GEFSSE_prec_meanprecacc_042.txt.gz
Total_Precipitation_Accumulation
0.03 0.06 0.09 0.10 0.09 0.07 0.08 0.09 0.07 0.05 0.05 0.06 0.08 0.10 0.12 0.12 0.11 0.11 0.11 0.11 0.12 0.11 0.10 0.09 0.08 0.07 0.08 0.09 0.10 0.11 0.11 0.12 0.14 0.14 0.14 0.12 0.11 0.09 0.10 0.13 0.11 0.17 0.22
0.05 0.08 0.08 0.08 0.07 0.06 0.06 0.06 0.05 0.04 0.05 0.07 0.06 0.05 0.06 0.08 0.09 0.10 0.11 0.12 0.13 0.13 0.13 0.13 0.12 0.09 0.07 0.09 0.12 0.11 0.10 0.09 0.10 0.13 0.13 0.11 0.12 0.10 0.08 0.12 0.13 0.25 0.28
0.04 0.07 0.08 0.07 0.06 0.05 0.05 0.04 0.04 0.03 0.04 0.04 0.04 0.04 0.04 0.05 0.06 0.07 0.09 0.09 0.10 0.10 0.11 0.13 0.15 0.13 0.08 0.08 0.12 0.12 0.11 0.11 0.10 0.10 0.09 0.09 0.15 0.12 0.12 0.14 0.15 0.27 0.28
0.02 0.04 0.06 0.07 0.06 0.05 0.05 0.05 0.04 0.03 0.03 0.03 0.03 0.03 0.03 0.04 0.04 0.05 0.06 0.07 0.08 0.11 0.13 0.13 0.14 0.15 0.11 0.11 0.11 0.11 0.12 0.12 0.10 0.07 0.02 0.05 0.21 0.26 0.24 0.19 0.15 0.24 0.27
0.01 0.02 0.05 0.07 0.06 0.06 0.06 0.05 0.04 0.04 0.04 0.04 0.03 0.03 0.03 0.03 0.03 0.04 0.03 0.04 0.05 0.07 0.09 0.11 0.14 0.15 0.14 0.13 0.12 0.13 0.15 0.14 0.10 0.04 0.01 0.07 0.24 0.31 0.25 0.22 0.18 0.23 0.26
0.02 0.02 0.04 0.06 0.06 0.07 0.07 0.06 0.05 0.04 0.04 0.03 0.03 0.03 0.03 0.03 0.04 0.04 0.03 0.03 0.02 0.04 0.07 0.10 0.15 0.19 0.15 0.13 0.16 0.19 0.24 0.22 0.11 0.03 0.02 0.07 0.16 0.25 0.28 0.30 0.29 0.25 0.23
0.03 0.04 0.04 0.04 0.05 0.06 0.06 0.06 0.04 0.03 0.04 0.03 0.03 0.03 0.03 0.03 0.03 0.04 0.05 0.04 0.03 0.03 0.05 0.07 0.11 0.20 0.19 0.18 0.22 0.25 0.32 0.25 0.12 0.11 0.06 0.04 0.10 0.22 0.37 0.42 0.38 0.29 0.25
0.00 0.00 0.00 0.01 0.01 0.02 0.04 0.05 0.04 0.03 0.03 0.03 0.03 0.03 0.02 0.02 0.04 0.07 0.09 0.08 0.06 0.05 0.05 0.06 0.07 0.13 0.17 0.20 0.24 0.27 0.29 0.17 0.12 0.22 0.18 0.14 0.18 0.33 0.43 0.60 0.55 0.40 0.32
0.00 0.00 0.00 0.00 0.00 0.00 0.02 0.03 0.03 0.02 0.02 0.02 0.02 0.01 0.01 0.02 0.03 0.06 0.07 0.06 0.06 0.06 0.06 0.05 0.04 0.05 0.10 0.15 0.18 0.21 0.21 0.13 0.12 0.31 0.31 0.39 0.29 0.36 0.41 0.57 0.63 0.52 0.41
0.00 0.00 0.00 0.00 0.00 0.00 0.00 0.01 0.01 0.01 0.02 0.03 0.02 0.02 0.02 0.02 0.05 0.06 0.05 0.06 0.06 0.06 0.06 0.05 0.05 0.03 0.04 0.05 0.07 0.09 0.08 0.05 0.06 0.22 0.48 0.46 0.34 0.48 0.54 0.56 0.61 0.58 0.52
0.00 0.00 0.00 0.00 0.00 0.00 0.00 0.00 0.00 0.00 0.01 0.02 0.04 0.04 0.03 0.03 0.03 0.03 0.03 0.04 0.04 0.04 0.04 0.04 0.05 0.05 0.04 0.02 0.02 0.03 0.03 0.00 0.04 0.16 0.28 0.30 0.38 0.51 0.66 0.68 0.68 0.63 0.56
0.00 0.00 0.00 0.00 0.00 0.00 0.00 0.00 0.00 0.00 0.00 0.01 0.02 0.03 0.03 0.04 0.04 0.06 0.06 0.07 0.05 0.04 0.05 0.06 0.06 0.05 0.04 0.02 0.06 0.08 0.03 0.01 0.01 0.03 0.08 0.13 0.26 0.41 0.55 0.68 0.80 0.76 0.64
0.00 0.00 0.00 0.00 0.00 0.00 0.00 0.00 0.00 0.00 0.00 0.00 0.00 0.00 0.00 0.01 0.02 0.04 0.04 0.06 0.06 0.07 0.09 0.10 0.10 0.10 0.11 0.12 0.14 0.14 0.09 0.06 0.04 0.03 0.03 0.07 0.13 0.21 0.38 0.55 0.75 0.85 0.82
0.00 0.00 0.00 0.00 0.00 0.00 0.00 0.00 0.00 0.00 0.00 0.00 0.00 0.00 0.00 0.00 0.00 0.01 0.02 0.02 0.03 0.06 0.09 0.13 0.15 0.15 0.13 0.12 0.13 0.13 0.13 0.13 0.08 0.07 0.05 0.08 0.10 0.09 0.16 0.31 0.52 0.80 0.92
0.00 0.00 0.00 0.00 0.00 0.00 0.00 0.00 0.00 0.00 0.00 0.00 0.00 0.00 0.00 0.00 0.00 0.00 0.00 0.00 0.01 0.01 0.02 0.03 0.05 0.08 0.09 0.09 0.11 0.11 0.12 0.11 0.09 0.10 0.09 0.10 0.10 0.09 0.09 0.16 0.31 0.61 0.90
0.00 0.00 0.00 0.00 0.00 0.00 0.00 0.00 0.00 0.00 0.00 0.00 0.00 0.00 0.00 0.00 0.00 0.00 0.00 0.00 0.00 0.00 0.00 0.00 0.01 0.02 0.02 0.03 0.04 0.05 0.07 0.08 0.08 0.11 0.12 0.14 0.13 0.11 0.10 0.11 0.18 0.35 0.66
0.00 0.00 0.00 0.00 0.00 0.00 0.00 0.00 0.00 0.00 0.00 0.00 0.00 0.00 0.00 0.00 0.00 0.00 0.00 0.00 0.00 0.00 0.00 0.00 0.00 0.00 0.00 0.01 0.01 0.01 0.02 0.03 0.05 0.07 0.09 0.13 0.17 0.15 0.13 0.11 0.12 0.19 0.36
0.00 0.00 0.00 0.00 0.00 0.00 0.00 0.00 0.00 0.00 0.00 0.00 0.00 0.00 0.00 0.00 0.00 0.00 0.00 0.00 0.00 0.00 0.00 0.00 0.00 0.00 0.00 0.00 0.00 0.00 0.00 0.00 0.01 0.02 0.05 0.08 0.14 0.17 0.15 0.15 0.14 0.14 0.21
0.00 0.00 0.00 0.00 0.00 0.00 0.00 0.00 0.00 0.00 0.00 0.00 0.00 0.00 0.00 0.00 0.00 0.00 0.00 0.00 0.00 0.00 0.00 0.00 0.00 0.00 0.00 0.00 0.00 0.00 0.00 0.00 0.00 0.00 0.01 0.03 0.06 0.13 0.17 0.17 0.18 0.16 0.17
0.00 0.00 0.00 0.00 0.00 0.00 0.00 0.00 0.00 0.00 0.00 0.00 0.00 0.00 0.00 0.00 0.00 0.00 0.00 0.00 0.00 0.00 0.00 0.00 0.00 0.00 0.00 0.00 0.00 0.00 0.00 0.00 0.00 0.00 0.00 0.01 0.02 0.04 0.11 0.15 0.18 0.18 0.16
0.00 0.00 0.00 0.00 0.00 0.00 0.00 0.00 0.00 0.00 0.00 0.00 0.00 0.00 0.00 0.00 0.00 0.00 0.00 0.00 0.00 0.00 0.00 0.00 0.00 0.00 0.00 0.01 0.02 0.01 0.00 0.00 0.00 0.00 0.00 0.00 0.01 0.01 0.04 0.08 0.15 0.20 0.19
0.00 0.00 0.00 0.00 0.00 0.00 0.00 0.00 0.00 0.00 0.00 0.00 0.00 0.00 0.00 0.00 0.00 0.00 0.00 0.00 0.00 0.00 0.00 0.00 0.00 0.01 0.01 0.01 0.05 0.09 0.05 0.01 0.00 0.00 0.00 0.00 0.00 0.01 0.02 0.04 0.08 0.15 0.20
0.00 0.00 0.00 0.00 0.00 0.00 0.00 0.00 0.00 0.00 0.00 0.00 0.00 0.00 0.00 0.00 0.00 0.00 0.00 0.00 0.00 0.00 0.00 0.00 0.01 0.02 0.03 0.02 0.04 0.18 0.28 0.16 0.05 0.01 0.00 0.01 0.01 0.01 0.01 0.02 0.05 0.08 0.14
0.00 0.00 0.00 0.00 0.00 0.00 0.00 0.00 0.00 0.00 0.00 0.00 0.00 0.00 0.00 0.00 0.00 0.00 0.00 0.00 0.00 0.00 0.01 0.01 0.01 0.02 0.06 0.08 0.05 0.08 0.18 0.24 0.27 0.13 0.02 0.02 0.03 0.03 0.02 0.02 0.03 0.04 0.08
0.00 0.00 0.00 0.00 0.00 0.00 0.00 0.00 0.00 0.00 0.00 0.00 0.00 0.00 0.00 0.00 0.00 0.00 0.00 0.00 0.00 0.00 0.01 0.01 0.02 0.03 0.06 0.11 0.12 0.11 0.09 0.09 0.15 0.24 0.11 0.03 0.04 0.04 0.04 0.03 0.03 0.04 0.05
0.00 0.00 0.00 0.00 0.00 0.00 0.00 0.00 0.00 0.00 0.00 0.00 0.00 0.00 0.00 0.01 0.01 0.01 0.00 0.00 0.00 0.01 0.01 0.02 0.03 0.04 0.06 0.08 0.11 0.13 0.17 0.19 0.16 0.21 0.20 0.07 0.03 0.03 0.04 0.04 0.05 0.07 0.08

GEFSSE_prec_meanprecacc_048.txt.gz
Total_Precipitation_Accumulation
0.03 0.06 0.09 0.10 0.09 0.07 0.08 0.09 0.07 0.05 0.05 0.06 0.08 0.10 0.12 0.12 0.11 0.11 0.11 0.12 0.12 0.12 0.11 0.10 0.09 0.09 0.09 0.10 0.11 0.12 0.12 0.13 0.15 0.15 0.14 0.12 0.11 0.09 0.10 0.13 0.11 0.17 0.22
0.05 0.08 0.08 0.08 0.07 0.06 0.06 0.06 0.05 0.04 0.05 0.07 0.06 0.05 0.06 0.08 0.09 0.10 0.11 0.12 0.13 0.13 0.13 0.13 0.13 0.10 0.08 0.10 0.13 0.12 0.11 0.10 0.10 0.13 0.13 0.11 0.12 0.10 0.08 0.12 0.13 0.25 0.28
0.04 0.07 0.08 0.07 0.06 0.05 0.05 0.04 0.04 0.03 0.04 0.04 0.04 0.04 0.04 0.05 0.06 0.07 0.09 0.09 0.10 0.11 0.12 0.13 0.15 0.14 0.09 0.09 0.13 0.13 0.13 0.12 0.11 0.10 0.09 0.09 0.15 0.12 0.12 0.14 0.15 0.27 0.28
0.02 0.04 0.06 0.07 0.06 0.05 0.05 0.05 0.04 0.03 0.03 0.03 0.03 0.03 0.03 0.04 0.04 0.05 0.06 0.07 0.09 0.11 0.13 0.13 0.15 0.15 0.12 0.11 0.12 0.12 0.13 0.13 0.10 0.07 0.02 0.05 0.21 0.26 0.24 0.19 0.15 0.24 0.27
0.01 0.02 0.05 0.07 0.06 0.06 0.06 0.05 0.04 0.04 0.04 0.04 0.03 0.03 0.03 0.03 0.03 0.04 0.04 0.04 0.05 0.07 0.09 0.11 0.15 0.16 0.15 0.13 0.12 0.13 0.15 0.15 0.10 0.04 0.01 0.07 0.24 0.31 0.26 0.23 0.19 0.23 0.26
0.02 0.02 0.04 0.06 0.06 0.07 0.07 0.06 0.05 0.04 0.04 0.03 0.03 0.03 0.03 0.03 0.04 0.04 0.03 0.03 0.02 0.04 0.07 0.10 0.15 0.20 0.15 0.13 0.16 0.19 0.24 0.22 0.11 0.03 0.02 0.07 0.16 0.25 0.28 0.31 0.30 0.25 0.24
0.03 0.04 0.04 0.04 0.05 0.06 0.06 0.06 0.04 0.03 0.04 0.03 0.03 0.03 0.03 0.03 0.03 0.04 0.05 0.04 0.03 0.03 0.05 0.07 0.11 0.20 0.19 0.18 0.22 0.26 0.32 0.25 0.12 0.11 0.06 0.04 0.10 0.22 0.38 0.43 0.39 0.30 0.26
0.00 0.00 0.00 0.01 0.01 0.02 0.04 0.05 0.04 0.03 0.03 0.03 0.03 0.03 0.02 0.02 0.04 0.07 0.09 0.08 0.06 0.05 0.05 0.06 0.07 0.13 0.17 0.20 0.24 0.27 0.29 0.17 0.12 0.22 0.18 0.14 0.18 0.33 0.44 0.60 0.56 0.41 0.34
0.00 0.00 0.00 0.00 0.00 0.00 0.02 0.03 0.03 0.02 0.02 0.02 0.02 0.01 0.01 0.02 0.03 0.06 0.07 0.06 0.06 0.06 0.06 0.05 0.04 0.05 0.10 0.15 0.18 0.21 0.21 0.13 0.12 0.31 0.31 0.39 0.29 0.36 0.42 0.58 0.64 0.53 0.42
0.00 0.00 0.00 0.00 0.00 0.00 0.00 0.01 0.01 0.01 0.02 0.03 0.02 0.02 0.02 0.02 0.05 0.06 0.05 0.06 0.06 0.06 0.06 0.05 0.05 0.03 0.04 0.05 0.07 0.09 0.08 0.05 0.06 0.22 0.48 0.46 0.34 0.48 0.55 0.57 0.63 0.59 0.54
0.00 0.00 0.00 0.00 0.00 0.00 0.00 0.00 0.00 0.00 0.01 0.02 0.04 0.04 0.03 0.03 0.03 0.03 0.03 0.04 0.04 0.04 0.04 0.04 0.05 0.05 0.04 0.02 0.02 0.03 0.03 0.00 0.04 0.16 0.28 0.30 0.38 0.51 0.67 0.70 0.70 0.65 0.58
0.00 0.00 0.00 0.00 0.00 0.00 0.00 0.00 0.00 0.00 0.00 0.01 0.02 0.03 0.03 0.04 0.04 0.06 0.06 0.07 0.05 0.04 0.05 0.06 0.06 0.05 0.04 0.02 0.06 0.08 0.03 0.01 0.01 0.03 0.08 0.13 0.26 0.41 0.56 0.69 0.81 0.78 0.66
0.00 0.00 0.00 0.00 0.00 0.00 0.00 0.00 0.00 0.00 0.00 0.00 0.00 0.00 0.00 0.01 0.02 0.04 0.04 0.06 0.06 0.07 0.09 0.10 0.10 0.10 0.11 0.12 0.14 0.14 0.09 0.06 0.04 0.03 0.03 0.07 0.13 0.21 0.38 0.56 0.76 0.87 0.84
0.00 0.00 0.00 0.00 0.00 0.00 0.00 0.00 0.00 0.00 0.00 0.00 0.00 0.00 0.00 0.00 0.00 0.01 0.02 0.02 0.03 0.06 0.09 0.13 0.15 0.15 0.13 0.12 0.13 0.13 0.13 0.13 0.08 0.07 0.05 0.08 0.10 0.09 0.16 0.32 0.54 0.81 0.95
0.00 0.00 0.00 0.00 0.00 0.00 0.00 0.00 0.00 0.00 0.00 0.00 0.00 0.00 0.00 0.00 0.00 0.00 0.00 0.00 0.01 0.01 0.02 0.03 0.05 0.08 0.09 0.09 0.11 0.11 0.12 0.11 0.09 0.10 0.09 0.10 0.10 0.09 0.09 0.16 0.32 0.63 0.92
0.00 0.00 0.00 0.00 0.00 0.00 0.00 0.00 0.00 0.00 0.00 0.00 0.00 0.00 0.00 0.00 0.00 0.00 0.00 0.00 0.00 0.00 0.00 0.00 0.01 0.02 0.02 0.03 0.04 0.05 0.07 0.08 0.08 0.11 0.12 0.14 0.13 0.11 0.10 0.11 0.18 0.37 0.69
0.00 0.00 0.00 0.00 0.00 0.00 0.00 0.00 0.00 0.00 0.00 0.00 0.00 0.00 0.00 0.00 0.00 0.00 0.00 0.00 0.00 0.00 0.00 0.00 0.00 0.00 0.00 0.01 0.01 0.01 0.02 0.03 0.05 0.07 0.09 0.13 0.17 0.15 0.13 0.11 0.12 0.20 0.38
0.00 0.00 0.00 0.00 0.00 0.00 0.00 0.00 0.00 0.00 0.00 0.00 0.00 0.00 0.00 0.00 0.00 0.00 0.00 0.00 0.00 0.00 0.00 0.00 0.00 0.00 0.00 0.00 0.00 0.00 0.00 0.00 0.01 0.02 0.05 0.08 0.14 0.17 0.15 0.15 0.14 0.15 0.23
0.00 0.00 0.00 0.00 0.00 0.00 0.00 0.00 0.00 0.00 0.00 0.00 0.00 0.00 0.00 0.00 0.00 0.00 0.00 0.00 0.00 0.00 0.00 0.00 0.00 0.00 0.00 0.00 0.00 0.00 0.00 0.00 0.00 0.00 0.01 0.03 0.06 0.13 0.17 0.17 0.18 0.17 0.17
0.00 0.00 0.00 0.00 0.00 0.00 0.00 0.00 0.00 0.00 0.00 0.00 0.00 0.00 0.00 0.00 0.00 0.00 0.00 0.00 0.00 0.00 0.00 0.00 0.00 0.00 0.00 0.00 0.00 0.00 0.00 0.00 0.00 0.00 0.00 0.01 0.02 0.04 0.11 0.15 0.18 0.18 0.16
0.00 0.00 0.00 0.00 0.00 0.00 0.00 0.00 0.00 0.00 0.00 0.00 0.00 0.00 0.00 0.00 0.00 0.00 0.00 0.00 0.00 0.00 0.00 0.00 0.00 0.00 0.00 0.01 0.02 0.01 0.00 0.00 0.00 0.00 0.00 0.00 0.01 0.01 0.04 0.08 0.15 0.20 0.19
0.00 0.00 0.00 0.00 0.00 0.00 0.00 0.00 0.00 0.00 0.00 0.00 0.00 0.00 0.00 0.00 0.00 0.00 0.00 0.00 0.00 0.00 0.00 0.00 0.00 0.01 0.01 0.01 0.05 0.09 0.05 0.01 0.00 0.00 0.00 0.00 0.00 0.01 0.02 0.04 0.08 0.15 0.20
0.00 0.00 0.00 0.00 0.00 0.00 0.00 0.00 0.00 0.00 0.00 0.00 0.00 0.00 0.00 0.00 0.00 0.00 0.00 0.00 0.00 0.00 0.00 0.00 0.01 0.02 0.03 0.02 0.04 0.18 0.28 0.16 0.05 0.01 0.00 0.01 0.01 0.01 0.01 0.02 0.05 0.08 0.14
0.00 0.00 0.00 0.00 0.00 0.00 0.00 0.00 0.00 0.00 0.00 0.00 0.00 0.00 0.00 0.00 0.00 0.00 0.00 0.00 0.00 0.00 0.01 0.01 0.01 0.02 0.06 0.08 0.05 0.08 0.18 0.25 0.28 0.13 0.02 0.02 0.03 0.03 0.02 0.02 0.03 0.05 0.08
0.00 0.00 0.00 0.00 0.00 0.00 0.00 0.00 0.00 0.00 0.00 0.00 0.00 0.00 0.00 0.00 0.00 0.00 0.00 0.00 0.00 0.00 0.01 0.01 0.02 0.03 0.06 0.11 0.12 0.11 0.09 0.09 0.15 0.25 0.11 0.03 0.04 0.04 0.04 0.03 0.03 0.04 0.05
0.00 0.00 0.00 0.00 0.00 0.00 0.00 0.00 0.00 0.00 0.00 0.00 0.00 0.00 0.00 0.01 0.01 0.01 0.00 0.00 0.00 0.01 0.01 0.02 0.03 0.04 0.06 0.08 0.11 0.13 0.17 0.19 0.16 0.21 0.20 0.07 0.03 0.03 0.04 0.04 0.05 0.07 0.09

GEFSSE_prec_meanprecacc_054.txt.gz
Total_Precipitation_Accumulation
0.03 0.06 0.09 0.10 0.09 0.07 0.08 0.09 0.07 0.05 0.05 0.06 0.08 0.10 0.12 0.12 0.12 0.11 0.11 0.12 0.13 0.13 0.12 0.12 0.11 0.11 0.11 0.12 0.13 0.14 0.13 0.14 0.15 0.15 0.14 0.12 0.11 0.10 0.10 0.13 0.11 0.17 0.23
0.05 0.08 0.08 0.08 0.07 0.06 0.06 0.06 0.05 0.04 0.05 0.07 0.06 0.06 0.06 0.08 0.09 0.10 0.11 0.12 0.14 0.14 0.14 0.15 0.14 0.12 0.10 0.11 0.15 0.14 0.12 0.11 0.10 0.13 0.13 0.11 0.13 0.11 0.09 0.13 0.14 0.25 0.28
0.04 0.07 0.08 0.07 0.06 0.05 0.05 0.04 0.04 0.03 0.04 0.04 0.04 0.04 0.04 0.05 0.06 0.07 0.09 0.10 0.11 0.11 0.12 0.14 0.16 0.15 0.09 0.10 0.14 0.15 0.14 0.13 0.11 0.10 0.09 0.09 0.15 0.13 0.13 0.15 0.16 0.28 0.29
0.02 0.04 0.06 0.07 0.06 0.05 0.05 0.05 0.04 0.03 0.03 0.03 0.03 0.03 0.03 0.04 0.04 0.05 0.06 0.07 0.09 0.11 0.13 0.14 0.15 0.16 0.12 0.12 0.12 0.13 0.13 0.13 0.10 0.07 0.02 0.05 0.21 0.26 0.25 0.20 0.16 0.25 0.28
0.01 0.02 0.05 0.07 0.06 0.06 0.06 0.05 0.04 0.04 0.04 0.04 0.03 0.03 0.03 0.03 0.03 0.04 0.04 0.04 0.05 0.07 0.09 0.11 0.15 0.16 0.15 0.13 0.12 0.14 0.15 0.15 0.10 0.04 0.01 0.07 0.24 0.31 0.27 0.24 0.20 0.24 0.27
0.02 0.02 0.04 0.06 0.06 0.07 0.07 0.06 0.05 0.04 0.04 0.03 0.03 0.03 0.03 0.03 0.04 0.04 0.03 0.03 0.02 0.04 0.07 0.10 0.15 0.20 0.15 0.13 0.16 0.19 0.24 0.22 0.11 0.03 0.02 0.07 0.16 0.25 0.29 0.32 0.31 0.26 0.25
0.03 0.04 0.04 0.04 0.05 0.06 0.06 0.06 0.04 0.03 0.04 0.03 0.03 0.03 0.03 0.03 0.03 0.04 0.05 0.04 0.03 0.03 0.05 0.07 0.11 0.20 0.19 0.18 0.22 0.26 0.32 0.25 0.12 0.11 0.06 0.04 0.10 0.23 0.38 0.44 0.40 0.31 0.27
0.00 0.00 0.00 0.01 0.01 0.02 0.04 0.05 0.04 0.03 0.03 0.03 0.03 0.03 0.02 0.02 0.04 0.07 0.09 0.08 0.06 0.05 0.05 0.06 0.07 0.13 0.17 0.20 0.24 0.27 0.29 0.17 0.12 0.22 0.18 0.14 0.18 0.34 0.44 0.61 0.57 0.42 0.35
0.00 0.00 0.00 0.00 0.00 0.00 0.02 0.03 0.03 0.02 0.02 0.02 0.02 0.01 0.01 0.02 0.03 0.06 0.07 0.06 0.06 0.06 0.06 0.05 0.04 0.05 0.10 0.15 0.18 0.21 0.21 0.13 0.12 0.31 0.31 0.39 0.29 0.36 0.42 0.58 0.65 0.54 0.43
0.00 0.00 0.00 0.00 0.00 0.00 0.00 0.01 0.01 0.01 0.02 0.03 0.02 0.02 0.02 0.02 0.05 0.06 0.05 0.06 0.06 0.06 0.06 0.05 0.05 0.03 0.04 0.05 0.07 0.09 0.08 0.05 0.06 0.22 0.48 0.46 0.34 0.49 0.55 0.57 0.63 0.60 0.54
0.00 0.00 0.00 0.00 0.00 0.00 0.00 0.00 0.00 0.00 0.01 0.02 0.04 0.04 0.03 0.03 0.03 0.03 0.03 0.04 0.04 0.04 0.04 0.04 0.05 0.05 0.04 0.02 0.02 0.03 0.03 0.00 0.04 0.16 0.28 0.30 0.38 0.51 0.67 0.70 0.70 0.65 0.59
0.00 0.00 0.00 0.00 0.00 0.00 0.00 0.00 0.00 0.00 0.00 0.01 0.02 0.03 0.03 0.04 0.04 0.06 0.06 0.07 0.05 0.04 0.05 0.06 0.06 0.05 0.04 0.02 0.06 0.08 0.03 0.01 0.01 0.03 0.08 0.13 0.26 0.41 0.56 0.70 0.82 0.79 0.67
0.00 0.00 0.00 0.00 0.00 0.00 0.00 0.00 0.00 0.00 0.00 0.00 0.00 0.00 0.00 0.01 0.02 0.04 0.04 0.06 0.06 0.07 0.09 0.10 0.10 0.10 0.11 0.12 0.14 0.14 0.09 0.06 0.04 0.03 0.03 0.07 0.13 0.21 0.38 0.56 0.77 0.88 0.85
0.00 0.00 0.00 0.00 0.00 0.00 0.00 0.00 0.00 0.00 0.00 0.00 0.00 0.00 0.00 0.00 0.00 0.01 0.02 0.02 0.03 0.06 0.09 0.13 0.15 0.15 0.13 0.12 0.13 0.13 0.13 0.13 0.08 0.07 0.05 0.08 0.10 0.09 0.16 0.32 0.54 0.82 0.96
0.00 0.00 0.00 0.00 0.00 0.00 0.00 0.00 0.00 0.00 0.00 0.00 0.00 0.00 0.00 0.00 0.00 0.00 0.00 0.00 0.01 0.01 0.02 0.03 0.05 0.08 0.09 0.09 0.11 0.11 0.12 0.11 0.09 0.10 0.09 0.10 0.10 0.09 0.09 0.16 0.32 0.63 0.93
0.00 0.00 0.00 0.00 0.00 0.00 0.00 0.00 0.00 0.00 0.00 0.00 0.00 0.00 0.00 0.00 0.00 0.00 0.00 0.00 0.00 0.00 0.00 0.00 0.01 0.02 0.02 0.03 0.04 0.05 0.07 0.08 0.08 0.11 0.12 0.14 0.13 0.11 0.10 0.11 0.18 0.37 0.69
0.00 0.00 0.00 0.00 0.00 0.00 0.00 0.00 0.00 0.00 0.00 0.00 0.00 0.00 0.00 0.00 0.00 0.00 0.00 0.00 0.00 0.00 0.00 0.00 0.00 0.00 0.00 0.01 0.01 0.01 0.02 0.03 0.05 0.07 0.09 0.13 0.17 0.15 0.13 0.11 0.12 0.20 0.39
0.00 0.00 0.00 0.00 0.00 0.00 0.00 0.00 0.00 0.00 0.00 0.00 0.00 0.00 0.00 0.00 0.00 0.00 0.00 0.00 0.00 0.00 0.00 0.00 0.00 0.00 0.00 0.00 0.00 0.00 0.00 0.00 0.01 0.02 0.05 0.08 0.14 0.17 0.15 0.15 0.14 0.15 0.23
0.00 0.00 0.00 0.00 0.00 0.00 0.00 0.00 0.00 0.00 0.00 0.00 0.00 0.00 0.00 0.00 0.00 0.00 0.00 0.00 0.00 0.00 0.00 0.00 0.00 0.00 0.00 0.00 0.00 0.00 0.00 0.00 0.00 0.00 0.01 0.03 0.06 0.13 0.17 0.17 0.18 0.17 0.17
0.00 0.00 0.00 0.00 0.00 0.00 0.00 0.00 0.00 0.00 0.00 0.00 0.00 0.00 0.00 0.00 0.00 0.00 0.00 0.00 0.00 0.00 0.00 0.00 0.00 0.00 0.00 0.00 0.00 0.00 0.00 0.00 0.00 0.00 0.00 0.01 0.02 0.04 0.11 0.15 0.18 0.18 0.16
0.00 0.00 0.00 0.00 0.00 0.00 0.00 0.00 0.00 0.00 0.00 0.00 0.00 0.00 0.00 0.00 0.00 0.00 0.00 0.00 0.00 0.00 0.00 0.00 0.00 0.00 0.00 0.01 0.02 0.01 0.00 0.00 0.00 0.00 0.00 0.00 0.01 0.01 0.04 0.08 0.15 0.20 0.19
0.00 0.00 0.00 0.00 0.00 0.00 0.00 0.00 0.00 0.00 0.00 0.00 0.00 0.00 0.00 0.00 0.00 0.00 0.00 0.00 0.00 0.00 0.00 0.00 0.00 0.01 0.01 0.01 0.05 0.09 0.05 0.01 0.00 0.00 0.00 0.00 0.00 0.01 0.02 0.04 0.08 0.15 0.20
0.00 0.00 0.00 0.00 0.00 0.00 0.00 0.00 0.00 0.00 0.00 0.00 0.00 0.00 0.00 0.00 0.00 0.00 0.00 0.00 0.00 0.00 0.00 0.00 0.01 0.02 0.03 0.02 0.04 0.18 0.28 0.16 0.05 0.01 0.00 0.01 0.01 0.01 0.01 0.02 0.05 0.08 0.14
0.00 0.00 0.00 0.00 0.00 0.00 0.00 0.00 0.00 0.00 0.00 0.00 0.00 0.00 0.00 0.00 0.00 0.00 0.00 0.00 0.00 0.00 0.01 0.01 0.01 0.02 0.06 0.08 0.05 0.08 0.18 0.25 0.28 0.13 0.02 0.02 0.03 0.03 0.02 0.02 0.03 0.05 0.08
0.00 0.00 0.00 0.00 0.00 0.00 0.00 0.00 0.00 0.00 0.00 0.00 0.00 0.00 0.00 0.00 0.00 0.00 0.00 0.00 0.00 0.00 0.01 0.01 0.02 0.03 0.06 0.11 0.12 0.11 0.09 0.09 0.15 0.25 0.11 0.03 0.04 0.04 0.04 0.03 0.03 0.04 0.05
0.00 0.00 0.00 0.00 0.00 0.00 0.00 0.00 0.00 0.00 0.00 0.00 0.00 0.00 0.00 0.01 0.01 0.01 0.00 0.00 0.00 0.01 0.01 0.02 0.03 0.04 0.06 0.08 0.11 0.13 0.17 0.19 0.16 0.21 0.20 0.07 0.03 0.03 0.04 0.04 0.05 0.07 0.09

GEFSSE_prec_meanprecacc_060.txt.gz
Total_Precipitation_Accumulation
0.03 0.06 0.09 0.10 0.09 0.07 0.08 0.09 0.07 0.05 0.05 0.06 0.08 0.10 0.12 0.13 0.12 0.12 0.12 0.13 0.14 0.14 0.14 0.13 0.13 0.12 0.12 0.13 0.14 0.14 0.13 0.14 0.15 0.15 0.14 0.13 0.12 0.11 0.12 0.14 0.12 0.18 0.24
0.05 0.08 0.08 0.08 0.07 0.06 0.06 0.06 0.05 0.04 0.05 0.07 0.06 0.06 0.07 0.08 0.10 0.11 0.12 0.13 0.14 0.15 0.15 0.16 0.15 0.13 0.11 0.12 0.15 0.14 0.13 0.11 0.10 0.13 0.13 0.11 0.13 0.13 0.10 0.14 0.15 0.26 0.30
0.04 0.07 0.08 0.07 0.06 0.05 0.05 0.04 0.04 0.03 0.04 0.04 0.04 0.04 0.04 0.05 0.06 0.07 0.09 0.10 0.11 0.11 0.13 0.15 0.17 0.15 0.10 0.10 0.15 0.15 0.14 0.13 0.11 0.10 0.09 0.09 0.15 0.15 0.15 0.16 0.17 0.29 0.30
0.02 0.04 0.06 0.07 0.06 0.05 0.05 0.05 0.04 0.03 0.03 0.03 0.03 0.03 0.03 0.04 0.04 0.05 0.06 0.07 0.09 0.11 0.13 0.14 0.15 0.16 0.12 0.12 0.12 0.13 0.13 0.13 0.10 0.07 0.02 0.05 0.21 0.28 0.27 0.22 0.18 0.27 0.29
0.01 0.02 0.05 0.07 0.06 0.06 0.06 0.05 0.04 0.04 0.04 0.04 0.03 0.03 0.03 0.03 0.03 0.04 0.04 0.04 0.05 0.07 0.09 0.11 0.15 0.16 0.15 0.13 0.12 0.14 0.15 0.15 0.10 0.04 0.01 0.07 0.24 0.32 0.28 0.25 0.21 0.26 0.28
0.02 0.02 0.04 0.06 0.06 0.07 0.07 0.06 0.05 0.04 0.04 0.03 0.03 0.03 0.03 0.03 0.04 0.04 0.03 0.03 0.02 0.04 0.07 0.10 0.15 0.20 0.15 0.13 0.16 0.19 0.24 0.22 0.11 0.03 0.02 0.07 0.16 0.25 0.30 0.33 0.32 0.27 0.26
0.03 0.04 0.04 0.04 0.05 0.06 0.06 0.06 0.04 0.03 0.04 0.03 0.03 0.03 0.03 0.03 0.03 0.04 0.05 0.04 0.03 0.03 0.05 0.07 0.11 0.20 0.19 0.18 0.22 0.26 0.32 0.25 0.12 0.11 0.06 0.04 0.10 0.23 0.39 0.44 0.41 0.32 0.28
0.00 0.00 0.00 0.01 0.01 0.02 0.04 0.05 0.04 0.03 0.03 0.03 0.03 0.03 0.02 0.02 0.04 0.07 0.09 0.08 0.06 0.05 0.05 0.06 0.07 0.13 0.17 0.20 0.24 0.27 0.29 0.17 0.12 0.22 0.18 0.14 0.18 0.34 0.44 0.61 0.57 0.42 0.35
0.00 0.00 0.00 0.00 0.00 0.00 0.02 0.03 0.03 0.02 0.02 0.02 0.02 0.01 0.01 0.02 0.03 0.06 0.07 0.06 0.06 0.06 0.06 0.05 0.04 0.05 0.10 0.15 0.18 0.21 0.21 0.13 0.12 0.31 0.31 0.39 0.29 0.36 0.42 0.58 0.65 0.54 0.43
0.00 0.00 0.00 0.00 0.00 0.00 0.00 0.01 0.01 0.01 0.02 0.03 0.02 0.02 0.02 0.02 0.05 0.06 0.05 0.06 0.06 0.06 0.06 0.05 0.05 0.03 0.04 0.05 0.07 0.09 0.08 0.05 0.06 0.22 0.48 0.46 0.34 0.49 0.55 0.58 0.63 0.60 0.55
0.00 0.00 0.00 0.00 0.00 0.00 0.00 0.00 0.00 0.00 0.01 0.02 0.04 0.04 0.03 0.03 0.03 0.03 0.03 0.04 0.04 0.04 0.04 0.04 0.05 0.05 0.04 0.02 0.02 0.03 0.03 0.00 0.04 0.16 0.28 0.30 0.38 0.51 0.67 0.70 0.70 0.66 0.59
0.00 0.00 0.00 0.00 0.00 0.00 0.00 0.00 0.00 0.00 0.00 0.01 0.02 0.03 0.03 0.04 0.04 0.06 0.06 0.07 0.05 0.04 0.05 0.06 0.06 0.05 0.04 0.02 0.06 0.08 0.03 0.01 0.01 0.03 0.08 0.13 0.26 0.41 0.56 0.70 0.82 0.79 0.68
0.00 0.00 0.00 0.00 0.00 0.00 0.00 0.00 0.00 0.00 0.00 0.00 0.00 0.00 0.00 0.01 0.02 0.04 0.04 0.06 0.06 0.07 0.09 0.10 0.10 0.10 0.11 0.12 0.14 0.14 0.09 0.06 0.04 0.03 0.03 0.07 0.13 0.21 0.39 0.57 0.77 0.89 0.86
0.00 0.00 0.00 0.00 0.00 0.00 0.00 0.00 0.00 0.00 0.00 0.00 0.00 0.00 0.00 0.00 0.00 0.01 0.02 0.02 0.03 0.06 0.09 0.13 0.15 0.15 0.13 0.12 0.13 0.13 0.13 0.13 0.08 0.07 0.05 0.08 0.10 0.09 0.16 0.32 0.54 0.83 0.96
0.00 0.00 0.00 0.00 0.00 0.00 0.00 0.00 0.00 0.00 0.00 0.00 0.00 0.00 0.00 0.00 0.00 0.00 0.00 0.00 0.01 0.01 0.02 0.03 0.05 0.08 0.09 0.09 0.11 0.11 0.12 0.11 0.09 0.10 0.09 0.10 0.10 0.09 0.09 0.16 0.32 0.64 0.94
0.00 0.00 0.00 0.00 0.00 0.00 0.00 0.00 0.00 0.00 0.00 0.00 0.00 0.00 0.00 0.00 0.00 0.00 0.00 0.00 0.00 0.00 0.00 0.00 0.01 0.02 0.02 0.03 0.04 0.05 0.07 0.08 0.08 0.11 0.12 0.14 0.13 0.11 0.10 0.11 0.18 0.37 0.70
0.00 0.00 0.00 0.00 0.00 0.00 0.00 0.00 0.00 0.00 0.00 0.00 0.00 0.00 0.00 0.00 0.00 0.00 0.00 0.00 0.00 0.00 0.00 0.00 0.00 0.00 0.00 0.01 0.01 0.01 0.02 0.03 0.05 0.07 0.09 0.13 0.17 0.15 0.13 0.11 0.12 0.20 0.39
0.00 0.00 0.00 0.00 0.00 0.00 0.00 0.00 0.00 0.00 0.00 0.00 0.00 0.00 0.00 0.00 0.00 0.00 0.00 0.00 0.00 0.00 0.00 0.00 0.00 0.00 0.00 0.00 0.00 0.00 0.00 0.00 0.01 0.02 0.05 0.08 0.14 0.17 0.15 0.15 0.14 0.15 0.23
0.00 0.00 0.00 0.00 0.00 0.00 0.00 0.00 0.00 0.00 0.00 0.00 0.00 0.00 0.00 0.00 0.00 0.00 0.00 0.00 0.00 0.00 0.00 0.00 0.00 0.00 0.00 0.00 0.00 0.00 0.00 0.00 0.00 0.00 0.01 0.03 0.06 0.13 0.17 0.17 0.18 0.17 0.17
0.00 0.00 0.00 0.00 0.00 0.00 0.00 0.00 0.00 0.00 0.00 0.00 0.00 0.00 0.00 0.00 0.00 0.00 0.00 0.00 0.00 0.00 0.00 0.00 0.00 0.00 0.00 0.00 0.00 0.00 0.00 0.00 0.00 0.00 0.00 0.01 0.02 0.04 0.11 0.15 0.18 0.18 0.16
0.00 0.00 0.00 0.00 0.00 0.00 0.00 0.00 0.00 0.00 0.00 0.00 0.00 0.00 0.00 0.00 0.00 0.00 0.00 0.00 0.00 0.00 0.00 0.00 0.00 0.00 0.00 0.01 0.02 0.01 0.00 0.00 0.00 0.00 0.00 0.00 0.01 0.01 0.04 0.08 0.15 0.20 0.19
0.00 0.00 0.00 0.00 0.00 0.00 0.00 0.00 0.00 0.00 0.00 0.00 0.00 0.00 0.00 0.00 0.00 0.00 0.00 0.00 0.00 0.00 0.00 0.00 0.00 0.01 0.01 0.01 0.05 0.09 0.05 0.01 0.00 0.00 0.00 0.00 0.00 0.01 0.02 0.04 0.08 0.15 0.20
0.00 0.00 0.00 0.00 0.00 0.00 0.00 0.00 0.00 0.00 0.00 0.00 0.00 0.00 0.00 0.00 0.00 0.00 0.00 0.00 0.00 0.00 0.00 0.00 0.01 0.02 0.03 0.02 0.04 0.18 0.28 0.16 0.05 0.01 0.00 0.01 0.01 0.01 0.01 0.02 0.05 0.08 0.14
0.00 0.00 0.00 0.00 0.00 0.00 0.00 0.00 0.00 0.00 0.00 0.00 0.00 0.00 0.00 0.00 0.00 0.00 0.00 0.00 0.00 0.00 0.01 0.01 0.01 0.02 0.06 0.08 0.05 0.08 0.18 0.25 0.28 0.13 0.02 0.02 0.03 0.03 0.02 0.02 0.03 0.05 0.08
0.00 0.00 0.00 0.00 0.00 0.00 0.00 0.00 0.00 0.00 0.00 0.00 0.00 0.00 0.00 0.00 0.00 0.00 0.00 0.00 0.00 0.00 0.01 0.01 0.02 0.03 0.06 0.11 0.12 0.11 0.09 0.09 0.15 0.25 0.11 0.03 0.04 0.04 0.04 0.03 0.03 0.04 0.05
0.00 0.00 0.00 0.00 0.00 0.00 0.00 0.00 0.00 0.00 0.00 0.00 0.00 0.00 0.00 0.01 0.01 0.01 0.00 0.00 0.00 0.01 0.01 0.02 0.03 0.04 0.06 0.08 0.11 0.13 0.17 0.19 0.16 0.21 0.20 0.07 0.03 0.03 0.04 0.04 0.05 0.07 0.09

GEFSSE_prec_meanprecacc_066.txt.gz
Total_Precipitation_Accumulation
0.03 0.06 0.09 0.10 0.09 0.07 0.08 0.09 0.07 0.05 0.05 0.07 0.08 0.10 0.12 0.13 0.12 0.12 0.12 0.14 0.15 0.15 0.14 0.14 0.13 0.13 0.13 0.13 0.14 0.14 0.13 0.14 0.15 0.15 0.15 0.14 0.15 0.13 0.13 0.16 0.12 0.19 0.25
0.05 0.08 0.09 0.08 0.07 0.06 0.06 0.06 0.05 0.04 0.05 0.07 0.06 0.06 0.07 0.08 0.10 0.11 0.12 0.13 0.15 0.15 0.15 0.16 0.15 0.13 0.11 0.12 0.15 0.14 0.13 0.11 0.10 0.13 0.13 0.11 0.15 0.15 0.12 0.15 0.16 0.28 0.31
0.04 0.07 0.08 0.07 0.06 0.05 0.05 0.04 0.04 0.03 0.04 0.04 0.04 0.04 0.04 0.05 0.06 0.08 0.09 0.10 0.11 0.11 0.13 0.15 0.17 0.15 0.10 0.10 0.15 0.15 0.14 0.13 0.11 0.10 0.09 0.09 0.15 0.16 0.17 0.18 0.19 0.31 0.32
0.02 0.04 0.06 0.07 0.06 0.05 0.05 0.05 0.04 0.03 0.03 0.03 0.03 0.03 0.03 0.04 0.04 0.06 0.07 0.07 0.09 0.11 0.13 0.14 0.15 0.16 0.12 0.12 0.12 0.13 0.13 0.13 0.10 0.07 0.02 0.05 0.22 0.29 0.28 0.23 0.19 0.28 0.31
0.01 0.02 0.05 0.07 0.07 0.06 0.06 0.05 0.04 0.04 0.04 0.04 0.03 0.03 0.03 0.03 0.03 0.04 0.04 0.04 0.05 0.07 0.09 0.11 0.15 0.16 0.15 0.13 0.12 0.14 0.15 0.15 0.10 0.04 0.01 0.07 0.24 0.33 0.29 0.26 0.23 0.27 0.30
0.02 0.02 0.04 0.06 0.06 0.07 0.07 0.06 0.05 0.04 0.04 0.03 0.03 0.03 0.03 0.03 0.04 0.04 0.03 0.03 0.02 0.04 0.07 0.10 0.15 0.20 0.15 0.13 0.16 0.19 0.24 0.22 0.11 0.03 0.02 0.07 0.16 0.26 0.31 0.34 0.33 0.29 0.27
0.03 0.04 0.04 0.04 0.05 0.06 0.06 0.06 0.04 0.03 0.04 0.03 0.03 0.03 0.03 0.03 0.03 0.04 0.05 0.04 0.03 0.03 0.05 0.07 0.11 0.20 0.19 0.18 0.22 0.26 0.32 0.25 0.12 0.11 0.06 0.04 0.10 0.23 0.39 0.45 0.41 0.32 0.29
0.00 0.00 0.00 0.01 0.01 0.02 0.04 0.05 0.04 0.03 0.03 0.03 0.03 0.03 0.02 0.02 0.04 0.07 0.09 0.08 0.06 0.05 0.05 0.06 0.07 0.13 0.17 0.20 0.24 0.27 0.29 0.17 0.12 0.22 0.18 0.14 0.18 0.34 0.45 0.62 0.57 0.43 0.36
0.00 0.00 0.00 0.00 0.00 0.00 0.02 0.03 0.03 0.02 0.02 0.02 0.02 0.01 0.01 0.02 0.03 0.06 0.07 0.06 0.06 0.06 0.06 0.05 0.04 0.05 0.10 0.15 0.18 0.21 0.21 0.13 0.12 0.31 0.31 0.39 0.29 0.36 0.42 0.59 0.65 0.54 0.44
0.00 0.00 0.00 0.00 0.00 0.00 0.00 0.01 0.01 0.01 0.02 0.03 0.02 0.02 0.02 0.02 0.05 0.06 0.05 0.06 0.06 0.06 0.06 0.05 0.05 0.03 0.04 0.05 0.07 0.09 0.08 0.05 0.06 0.22 0.48 0.46 0.34 0.49 0.55 0.58 0.63 0.60 0.55
0.00 0.00 0.00 0.00 0.00 0.00 0.00 0.00 0.00 0.00 0.01 0.02 0.04 0.04 0.03 0.03 0.03 0.03 0.03 0.04 0.04 0.04 0.04 0.04 0.05 0.05 0.04 0.02 0.02 0.03 0.03 0.00 0.04 0.16 0.28 0.30 0.38 0.51 0.67 0.70 0.70 0.66 0.59
0.00 0.00 0.00 0.00 0.00 0.00 0.00 0.00 0.00 0.00 0.00 0.01 0.02 0.03 0.03 0.04 0.04 0.06 0.06 0.07 0.05 0.04 0.05 0.06 0.06 0.05 0.04 0.02 0.06 0.08 0.03 0.01 0.01 0.03 0.08 0.13 0.26 0.41 0.56 0.70 0.82 0.79 0.68
0.00 0.00 0.00 0.00 0.00 0.00 0.00 0.00 0.00 0.00 0.00 0.00 0.00 0.00 0.00 0.01 0.02 0.04 0.04 0.06 0.06 0.07 0.09 0.10 0.10 0.10 0.11 0.12 0.14 0.14 0.09 0.06 0.04 0.03 0.03 0.07 0.13 0.21 0.39 0.57 0.77 0.89 0.86
0.00 0.00 0.00 0.00 0.00 0.00 0.00 0.00 0.00 0.00 0.00 0.00 0.00 0.00 0.00 0.00 0.00 0.01 0.02 0.02 0.03 0.06 0.09 0.13 0.15 0.15 0.13 0.12 0.13 0.13 0.13 0.13 0.08 0.07 0.05 0.08 0.10 0.09 0.16 0.32 0.54 0.83 0.96
0.00 0.00 0.00 0.00 0.00 0.00 0.00 0.00 0.00 0.00 0.00 0.00 0.00 0.00 0.00 0.00 0.00 0.00 0.00 0.00 0.01 0.01 0.02 0.03 0.05 0.08 0.09 0.09 0.11 0.11 0.12 0.11 0.09 0.10 0.09 0.10 0.10 0.09 0.09 0.16 0.32 0.64 0.94
0.00 0.00 0.00 0.00 0.00 0.00 0.00 0.00 0.00 0.00 0.00 0.00 0.00 0.00 0.00 0.00 0.00 0.00 0.00 0.00 0.00 0.00 0.00 0.00 0.01 0.02 0.02 0.03 0.04 0.05 0.07 0.08 0.08 0.11 0.12 0.14 0.13 0.11 0.10 0.11 0.18 0.37 0.70
0.00 0.00 0.00 0.00 0.00 0.00 0.00 0.00 0.00 0.00 0.00 0.00 0.00 0.00 0.00 0.00 0.00 0.00 0.00 0.00 0.00 0.00 0.00 0.00 0.00 0.00 0.00 0.01 0.01 0.01 0.02 0.03 0.05 0.07 0.09 0.13 0.17 0.15 0.13 0.11 0.12 0.20 0.39
0.00 0.00 0.00 0.00 0.00 0.00 0.00 0.00 0.00 0.00 0.00 0.00 0.00 0.00 0.00 0.00 0.00 0.00 0.00 0.00 0.00 0.00 0.00 0.00 0.00 0.00 0.00 0.00 0.00 0.00 0.00 0.00 0.01 0.02 0.05 0.08 0.14 0.17 0.15 0.15 0.14 0.15 0.23
0.00 0.00 0.00 0.00 0.00 0.00 0.00 0.00 0.00 0.00 0.00 0.00 0.00 0.00 0.00 0.00 0.00 0.00 0.00 0.00 0.00 0.00 0.00 0.00 0.00 0.00 0.00 0.00 0.00 0.00 0.00 0.00 0.00 0.00 0.01 0.03 0.06 0.13 0.17 0.17 0.18 0.17 0.17
0.00 0.00 0.00 0.00 0.00 0.00 0.00 0.00 0.00 0.00 0.00 0.00 0.00 0.00 0.00 0.00 0.00 0.00 0.00 0.00 0.00 0.00 0.00 0.00 0.00 0.00 0.00 0.00 0.00 0.00 0.00 0.00 0.00 0.00 0.00 0.01 0.02 0.04 0.11 0.15 0.18 0.18 0.16
0.00 0.00 0.00 0.00 0.00 0.00 0.00 0.00 0.00 0.00 0.00 0.00 0.00 0.00 0.00 0.00 0.00 0.00 0.00 0.00 0.00 0.00 0.00 0.00 0.00 0.00 0.00 0.01 0.02 0.01 0.00 0.00 0.00 0.00 0.00 0.00 0.01 0.01 0.04 0.08 0.15 0.20 0.19
0.00 0.00 0.00 0.00 0.00 0.00 0.00 0.00 0.00 0.00 0.00 0.00 0.00 0.00 0.00 0.00 0.00 0.00 0.00 0.00 0.00 0.00 0.00 0.00 0.00 0.01 0.01 0.01 0.05 0.09 0.05 0.01 0.00 0.00 0.00 0.00 0.00 0.01 0.02 0.04 0.08 0.15 0.20
0.00 0.00 0.00 0.00 0.00 0.00 0.00 0.00 0.00 0.00 0.00 0.00 0.00 0.00 0.00 0.00 0.00 0.00 0.00 0.00 0.00 0.00 0.00 0.00 0.01 0.02 0.03 0.02 0.04 0.18 0.28 0.16 0.05 0.01 0.00 0.01 0.01 0.01 0.01 0.02 0.05 0.08 0.14
0.00 0.00 0.00 0.00 0.00 0.00 0.00 0.00 0.00 0.00 0.00 0.00 0.00 0.00 0.00 0.00 0.00 0.00 0.00 0.00 0.00 0.00 0.01 0.01 0.01 0.02 0.06 0.08 0.05 0.08 0.18 0.25 0.28 0.13 0.02 0.02 0.03 0.03 0.02 0.02 0.03 0.05 0.08
0.00 0.00 0.00 0.00 0.00 0.00 0.00 0.00 0.00 0.00 0.00 0.00 0.00 0.00 0.00 0.00 0.00 0.00 0.00 0.00 0.00 0.00 0.01 0.01 0.02 0.03 0.06 0.11 0.12 0.11 0.09 0.09 0.15 0.25 0.11 0.03 0.04 0.04 0.04 0.03 0.03 0.04 0.05
0.00 0.00 0.00 0.00 0.00 0.00 0.00 0.00 0.00 0.00 0.00 0.00 0.00 0.00 0.00 0.01 0.01 0.01 0.00 0.00 0.00 0.01 0.01 0.02 0.03 0.04 0.06 0.08 0.11 0.13 0.17 0.19 0.16 0.21 0.20 0.07 0.03 0.03 0.04 0.04 0.05 0.07 0.09

GEFSSE_prec_meanprecacc_072.txt.gz
Total_Precipitation_Accumulation
0.03 0.06 0.09 0.10 0.09 0.07 0.08 0.09 0.08 0.06 0.05 0.07 0.09 0.11 0.13 0.13 0.13 0.13 0.13 0.14 0.15 0.15 0.15 0.15 0.14 0.13 0.13 0.13 0.14 0.14 0.14 0.14 0.16 0.16 0.16 0.16 0.16 0.15 0.14 0.16 0.13 0.19 0.26
0.05 0.08 0.09 0.08 0.07 0.06 0.06 0.06 0.05 0.04 0.05 0.07 0.06 0.06 0.07 0.09 0.10 0.12 0.12 0.13 0.15 0.15 0.16 0.16 0.15 0.13 0.11 0.12 0.15 0.14 0.13 0.11 0.11 0.13 0.13 0.12 0.16 0.16 0.13 0.16 0.17 0.29 0.33
0.04 0.07 0.08 0.07 0.06 0.05 0.05 0.04 0.04 0.03 0.04 0.05 0.04 0.04 0.04 0.05 0.06 0.08 0.09 0.10 0.11 0.12 0.13 0.15 0.17 0.15 0.10 0.10 0.15 0.15 0.14 0.13 0.11 0.10 0.09 0.09 0.16 0.18 0.18 0.19 0.20 0.32 0.33
0.02 0.04 0.06 0.07 0.06 0.05 0.05 0.05 0.04 0.03 0.03 0.03 0.03 0.03 0.04 0.04 0.05 0.06 0.07 0.07 0.09 0.11 0.13 0.14 0.15 0.16 0.12 0.12 0.12 0.13 0.13 0.13 0.10 0.07 0.02 0.05 0.22 0.30 0.30 0.25 0.20 0.30 0.32
0.01 0.02 0.05 0.07 0.07 0.06 0.06 0.05 0.04 0.04 0.04 0.04 0.03 0.03 0.03 0.03 0.03 0.04 0.04 0.04 0.05 0.07 0.09 0.11 0.15 0.16 0.15 0.13 0.12 0.14 0.15 0.15 0.10 0.04 0.01 0.07 0.24 0.34 0.31 0.28 0.24 0.28 0.31
0.02 0.02 0.04 0.06 0.07 0.07 0.07 0.07 0.05 0.04 0.04 0.03 0.03 0.03 0.03 0.03 0.04 0.04 0.03 0.03 0.02 0.04 0.07 0.10 0.15 0.20 0.15 0.13 0.16 0.19 0.24 0.22 0.11 0.03 0.02 0.07 0.16 0.27 0.32 0.35 0.34 0.30 0.28
0.03 0.04 0.04 0.04 0.05 0.06 0.06 0.06 0.04 0.04 0.04 0.03 0.03 0.03 0.03 0.03 0.03 0.04 0.05 0.04 0.03 0.03 0.05 0.07 0.11 0.20 0.19 0.18 0.22 0.26 0.32 0.25 0.12 0.11 0.06 0.04 0.10 0.24 0.40 0.45 0.42 0.33 0.30
0.00 0.00 0.00 0.01 0.02 0.03 0.04 0.05 0.04 0.03 0.03 0.03 0.03 0.03 0.02 0.02 0.04 0.07 0.09 0.08 0.06 0.05 0.05 0.06 0.07 0.13 0.17 0.20 0.24 0.27 0.29 0.17 0.12 0.22 0.18 0.14 0.19 0.34 0.45 0.62 0.58 0.43 0.36
0.00 0.00 0.00 0.00 0.00 0.01 0.02 0.03 0.03 0.03 0.02 0.02 0.02 0.01 0.01 0.02 0.03 0.06 0.07 0.06 0.06 0.06 0.06 0.05 0.04 0.05 0.10 0.15 0.18 0.21 0.21 0.13 0.12 0.31 0.31 0.39 0.29 0.36 0.42 0.59 0.66 0.55 0.44
0.00 0.00 0.00 0.00 0.00 0.00 0.01 0.01 0.01 0.02 0.02 0.03 0.03 0.02 0.02 0.02 0.05 0.06 0.05 0.06 0.06 0.06 0.06 0.05 0.05 0.03 0.04 0.05 0.07 0.09 0.08 0.05 0.06 0.22 0.48 0.46 0.34 0.49 0.55 0.58 0.63 0.60 0.55
0.00 0.00 0.00 0.00 0.00 0.00 0.00 0.00 0.00 0.01 0.01 0.03 0.04 0.04 0.03 0.03 0.03 0.03 0.03 0.04 0.04 0.04 0.04 0.04 0.05 0.05 0.04 0.02 0.02 0.03 0.03 0.00 0.04 0.16 0.28 0.30 0.38 0.51 0.67 0.70 0.70 0.66 0.59
0.00 0.00 0.00 0.00 0.00 0.00 0.00 0.00 0.00 0.00 0.00 0.01 0.02 0.03 0.03 0.04 0.04 0.06 0.06 0.07 0.05 0.04 0.05 0.06 0.06 0.05 0.04 0.02 0.06 0.08 0.03 0.01 0.01 0.03 0.08 0.13 0.26 0.41 0.56 0.70 0.82 0.79 0.68
0.00 0.00 0.00 0.00 0.00 0.00 0.00 0.00 0.00 0.00 0.00 0.00 0.00 0.00 0.00 0.01 0.02 0.04 0.04 0.06 0.06 0.07 0.09 0.10 0.10 0.10 0.11 0.12 0.14 0.14 0.09 0.06 0.04 0.03 0.03 0.07 0.13 0.21 0.39 0.57 0.77 0.89 0.86
0.00 0.00 0.00 0.00 0.00 0.00 0.00 0.00 0.00 0.00 0.00 0.00 0.00 0.00 0.00 0.00 0.00 0.01 0.02 0.02 0.03 0.06 0.09 0.13 0.15 0.15 0.13 0.12 0.13 0.13 0.13 0.13 0.08 0.07 0.05 0.08 0.10 0.09 0.16 0.32 0.54 0.83 0.96
0.00 0.00 0.00 0.00 0.00 0.00 0.00 0.00 0.00 0.00 0.00 0.00 0.00 0.00 0.00 0.00 0.00 0.00 0.00 0.00 0.01 0.01 0.02 0.03 0.05 0.08 0.09 0.09 0.11 0.11 0.12 0.11 0.09 0.10 0.09 0.10 0.10 0.09 0.09 0.16 0.32 0.64 0.94
0.00 0.00 0.00 0.00 0.00 0.00 0.00 0.00 0.00 0.00 0.00 0.00 0.00 0.00 0.00 0.00 0.00 0.00 0.00 0.00 0.00 0.00 0.00 0.00 0.01 0.02 0.02 0.03 0.04 0.05 0.07 0.08 0.08 0.11 0.12 0.14 0.13 0.11 0.10 0.11 0.18 0.37 0.70
0.00 0.00 0.00 0.00 0.00 0.00 0.00 0.00 0.00 0.00 0.00 0.00 0.00 0.00 0.00 0.00 0.00 0.00 0.00 0.00 0.00 0.00 0.00 0.00 0.00 0.00 0.00 0.01 0.01 0.01 0.02 0.03 0.05 0.07 0.09 0.13 0.17 0.15 0.13 0.11 0.12 0.20 0.39
0.00 0.00 0.00 0.00 0.00 0.00 0.00 0.00 0.00 0.00 0.00 0.00 0.00 0.00 0.00 0.00 0.00 0.00 0.00 0.00 0.00 0.00 0.00 0.00 0.00 0.00 0.00 0.00 0.00 0.00 0.00 0.00 0.01 0.02 0.05 0.08 0.14 0.17 0.15 0.15 0.14 0.15 0.23
0.00 0.00 0.00 0.00 0.00 0.00 0.00 0.00 0.00 0.00 0.00 0.00 0.00 0.00 0.00 0.00 0.00 0.00 0.00 0.00 0.00 0.00 0.00 0.00 0.00 0.00 0.00 0.00 0.00 0.00 0.00 0.00 0.00 0.00 0.01 0.03 0.06 0.13 0.17 0.17 0.18 0.17 0.17
0.00 0.00 0.00 0.00 0.00 0.00 0.00 0.00 0.00 0.00 0.00 0.00 0.00 0.00 0.00 0.00 0.00 0.00 0.00 0.00 0.00 0.00 0.00 0.00 0.00 0.00 0.00 0.00 0.00 0.00 0.00 0.00 0.00 0.00 0.00 0.01 0.02 0.04 0.11 0.15 0.18 0.18 0.16
0.00 0.00 0.00 0.00 0.00 0.00 0.00 0.00 0.00 0.00 0.00 0.00 0.00 0.00 0.00 0.00 0.00 0.00 0.00 0.00 0.00 0.00 0.00 0.00 0.00 0.00 0.00 0.01 0.02 0.01 0.00 0.00 0.00 0.00 0.00 0.00 0.01 0.01 0.04 0.08 0.15 0.20 0.19
0.00 0.00 0.00 0.00 0.00 0.00 0.00 0.00 0.00 0.00 0.00 0.00 0.00 0.00 0.00 0.00 0.00 0.00 0.00 0.00 0.00 0.00 0.00 0.00 0.00 0.01 0.01 0.01 0.05 0.09 0.05 0.01 0.00 0.00 0.00 0.00 0.00 0.01 0.02 0.04 0.08 0.15 0.20
0.00 0.00 0.00 0.00 0.00 0.00 0.00 0.00 0.00 0.00 0.00 0.00 0.00 0.00 0.00 0.00 0.00 0.00 0.00 0.00 0.00 0.00 0.00 0.00 0.01 0.02 0.03 0.02 0.04 0.18 0.28 0.16 0.05 0.01 0.00 0.01 0.01 0.01 0.01 0.02 0.05 0.08 0.14
0.00 0.00 0.00 0.00 0.00 0.00 0.00 0.00 0.00 0.00 0.00 0.00 0.00 0.00 0.00 0.00 0.00 0.00 0.00 0.00 0.00 0.00 0.01 0.01 0.01 0.02 0.06 0.08 0.05 0.08 0.18 0.25 0.28 0.13 0.02 0.02 0.03 0.03 0.02 0.02 0.03 0.05 0.08
0.00 0.00 0.00 0.00 0.00 0.00 0.00 0.00 0.00 0.00 0.00 0.00 0.00 0.00 0.00 0.00 0.00 0.00 0.00 0.00 0.00 0.00 0.01 0.01 0.02 0.03 0.06 0.11 0.12 0.11 0.09 0.09 0.15 0.25 0.11 0.03 0.04 0.04 0.04 0.03 0.03 0.04 0.05
0.00 0.00 0.00 0.00 0.00 0.00 0.00 0.00 0.00 0.00 0.00 0.00 0.00 0.00 0.00 0.01 0.01 0.01 0.00 0.00 0.00 0.01 0.01 0.02 0.03 0.04 0.06 0.08 0.11 0.13 0.17 0.19 0.16 0.21 0.20 0.07 0.03 0.03 0.04 0.04 0.05 0.07 0.09

GEFSSE_prec_meanprecacc_078.txt.gz
Total_Precipitation_Accumulation
0.03 0.06 0.09 0.10 0.09 0.07 0.08 0.09 0.08 0.06 0.06 0.07 0.09 0.11 0.13 0.14 0.13 0.13 0.13 0.14 0.16 0.15 0.15 0.15 0.14 0.13 0.13 0.14 0.14 0.15 0.15 0.15 0.17 0.17 0.17 0.18 0.18 0.16 0.16 0.17 0.13 0.20 0.27
0.05 0.08 0.09 0.08 0.07 0.06 0.06 0.06 0.05 0.04 0.05 0.07 0.06 0.06 0.08 0.09 0.11 0.12 0.13 0.14 0.15 0.16 0.16 0.16 0.15 0.13 0.11 0.13 0.16 0.15 0.14 0.12 0.12 0.13 0.14 0.12 0.17 0.18 0.15 0.18 0.19 0.30 0.34
0.04 0.07 0.08 0.08 0.06 0.05 0.05 0.04 0.04 0.03 0.04 0.05 0.04 0.04 0.05 0.06 0.07 0.08 0.10 0.11 0.12 0.12 0.13 0.15 0.17 0.15 0.10 0.11 0.15 0.15 0.14 0.13 0.11 0.10 0.09 0.09 0.16 0.19 0.19 0.20 0.21 0.34 0.34
0.02 0.04 0.06 0.07 0.06 0.05 0.05 0.05 0.04 0.03 0.03 0.03 0.03 0.03 0.04 0.04 0.05 0.06 0.07 0.07 0.09 0.11 0.14 0.14 0.15 0.16 0.12 0.12 0.12 0.13 0.14 0.13 0.10 0.07 0.02 0.05 0.22 0.31 0.31 0.26 0.21 0.31 0.33
0.01 0.02 0.05 0.07 0.07 0.06 0.06 0.06 0.04 0.04 0.04 0.04 0.04 0.03 0.03 0.03 0.03 0.04 0.04 0.04 0.05 0.07 0.09 0.11 0.15 0.16 0.15 0.13 0.12 0.14 0.15 0.15 0.10 0.04 0.01 0.07 0.24 0.35 0.31 0.28 0.24 0.29 0.32
0.02 0.02 0.04 0.06 0.07 0.07 0.08 0.07 0.05 0.04 0.04 0.04 0.03 0.03 0.03 0.04 0.04 0.04 0.03 0.03 0.03 0.04 0.07 0.10 0.15 0.20 0.15 0.13 0.16 0.19 0.24 0.22 0.11 0.03 0.02 0.07 0.16 0.28 0.32 0.36 0.35 0.30 0.29
0.03 0.04 0.04 0.04 0.05 0.06 0.06 0.06 0.05 0.04 0.04 0.03 0.03 0.03 0.03 0.03 0.03 0.04 0.05 0.04 0.03 0.03 0.05 0.07 0.11 0.20 0.19 0.18 0.22 0.26 0.32 0.25 0.12 0.11 0.06 0.04 0.10 0.24 0.40 0.46 0.42 0.34 0.30
0.00 0.00 0.00 0.01 0.02 0.03 0.05 0.06 0.05 0.04 0.04 0.04 0.03 0.03 0.02 0.02 0.04 0.07 0.09 0.08 0.06 0.05 0.05 0.06 0.07 0.13 0.17 0.20 0.24 0.27 0.29 0.17 0.12 0.22 0.18 0.14 0.19 0.34 0.45 0.62 0.58 0.43 0.36
0.00 0.00 0.00 0.00 0.00 0.01 0.02 0.04 0.04 0.03 0.03 0.03 0.02 0.02 0.01 0.02 0.03 0.06 0.07 0.06 0.06 0.06 0.06 0.05 0.04 0.05 0.10 0.15 0.18 0.21 0.21 0.13 0.12 0.31 0.31 0.39 0.29 0.36 0.42 0.59 0.66 0.55 0.44
0.00 0.00 0.00 0.00 0.00 0.00 0.01 0.02 0.02 0.02 0.03 0.03 0.03 0.02 0.02 0.03 0.05 0.06 0.05 0.06 0.06 0.06 0.06 0.05 0.05 0.03 0.04 0.05 0.07 0.09 0.08 0.05 0.06 0.22 0.48 0.46 0.34 0.49 0.55 0.58 0.63 0.60 0.55
0.00 0.00 0.00 0.00 0.00 0.00 0.00 0.01 0.01 0.01 0.01 0.03 0.05 0.05 0.04 0.03 0.03 0.03 0.03 0.04 0.04 0.04 0.04 0.04 0.05 0.05 0.04 0.02 0.02 0.03 0.03 0.00 0.04 0.16 0.28 0.30 0.38 0.51 0.67 0.70 0.70 0.66 0.59
0.00 0.00 0.00 0.00 0.00 0.00 0.00 0.00 0.00 0.00 0.01 0.01 0.02 0.03 0.03 0.04 0.04 0.06 0.06 0.07 0.05 0.04 0.05 0.06 0.06 0.05 0.04 0.02 0.06 0.08 0.03 0.01 0.01 0.03 0.08 0.13 0.26 0.41 0.56 0.70 0.82 0.79 0.68
0.00 0.00 0.00 0.00 0.00 0.00 0.00 0.00 0.00 0.00 0.00 0.00 0.00 0.00 0.00 0.01 0.02 0.04 0.04 0.06 0.06 0.07 0.09 0.10 0.10 0.10 0.11 0.12 0.14 0.14 0.09 0.06 0.04 0.03 0.03 0.07 0.13 0.21 0.39 0.57 0.77 0.89 0.86
0.00 0.00 0.00 0.00 0.00 0.00 0.00 0.00 0.00 0.00 0.00 0.00 0.00 0.00 0.00 0.00 0.00 0.01 0.02 0.02 0.03 0.06 0.09 0.13 0.15 0.15 0.13 0.12 0.13 0.13 0.13 0.13 0.08 0.07 0.05 0.08 0.10 0.09 0.16 0.32 0.54 0.83 0.96
0.00 0.00 0.00 0.00 0.00 0.00 0.00 0.00 0.00 0.00 0.00 0.00 0.00 0.00 0.00 0.00 0.00 0.00 0.00 0.00 0.01 0.01 0.02 0.03 0.05 0.08 0.09 0.09 0.11 0.11 0.12 0.11 0.09 0.10 0.09 0.10 0.10 0.09 0.09 0.16 0.32 0.64 0.94
0.00 0.00 0.00 0.00 0.00 0.00 0.00 0.00 0.00 0.00 0.00 0.00 0.00 0.00 0.00 0.00 0.00 0.00 0.00 0.00 0.00 0.00 0.00 0.00 0.01 0.02 0.02 0.03 0.04 0.05 0.07 0.08 0.08 0.11 0.12 0.14 0.13 0.11 0.10 0.11 0.18 0.37 0.70
0.00 0.00 0.00 0.00 0.00 0.00 0.00 0.00 0.00 0.00 0.00 0.00 0.00 0.00 0.00 0.00 0.00 0.00 0.00 0.00 0.00 0.00 0.00 0.00 0.00 0.00 0.00 0.01 0.01 0.01 0.02 0.03 0.05 0.07 0.09 0.13 0.17 0.15 0.13 0.11 0.12 0.20 0.39
0.00 0.00 0.00 0.00 0.00 0.00 0.00 0.00 0.00 0.00 0.00 0.00 0.00 0.00 0.00 0.00 0.00 0.00 0.00 0.00 0.00 0.00 0.00 0.00 0.00 0.00 0.00 0.00 0.00 0.00 0.00 0.00 0.01 0.02 0.05 0.08 0.14 0.17 0.15 0.15 0.14 0.15 0.23
0.00 0.00 0.00 0.00 0.00 0.00 0.00 0.00 0.00 0.00 0.00 0.00 0.00 0.00 0.00 0.00 0.00 0.00 0.00 0.00 0.00 0.00 0.00 0.00 0.00 0.00 0.00 0.00 0.00 0.00 0.00 0.00 0.00 0.00 0.01 0.03 0.06 0.13 0.17 0.17 0.18 0.17 0.17
0.00 0.00 0.00 0.00 0.00 0.00 0.00 0.00 0.00 0.00 0.00 0.00 0.00 0.00 0.00 0.00 0.00 0.00 0.00 0.00 0.00 0.00 0.00 0.00 0.00 0.00 0.00 0.00 0.00 0.00 0.00 0.00 0.00 0.00 0.00 0.01 0.02 0.04 0.11 0.15 0.18 0.18 0.16
0.00 0.00 0.00 0.00 0.00 0.00 0.00 0.00 0.00 0.00 0.00 0.00 0.00 0.00 0.00 0.00 0.00 0.00 0.00 0.00 0.00 0.00 0.00 0.00 0.00 0.00 0.00 0.01 0.02 0.01 0.00 0.00 0.00 0.00 0.00 0.00 0.01 0.01 0.04 0.08 0.15 0.20 0.19
0.00 0.00 0.00 0.00 0.00 0.00 0.00 0.00 0.00 0.00 0.00 0.00 0.00 0.00 0.00 0.00 0.00 0.00 0.00 0.00 0.00 0.00 0.00 0.00 0.00 0.01 0.01 0.01 0.05 0.09 0.05 0.01 0.00 0.00 0.00 0.00 0.00 0.01 0.02 0.04 0.08 0.15 0.20
0.00 0.00 0.00 0.00 0.00 0.00 0.00 0.00 0.00 0.00 0.00 0.00 0.00 0.00 0.00 0.00 0.00 0.00 0.00 0.00 0.00 0.00 0.00 0.00 0.01 0.02 0.03 0.02 0.04 0.18 0.28 0.16 0.05 0.01 0.00 0.01 0.01 0.01 0.01 0.02 0.05 0.08 0.14
0.00 0.00 0.00 0.00 0.00 0.00 0.00 0.00 0.00 0.00 0.00 0.00 0.00 0.00 0.00 0.00 0.00 0.00 0.00 0.00 0.00 0.00 0.01 0.01 0.01 0.02 0.06 0.08 0.05 0.08 0.18 0.25 0.28 0.13 0.02 0.02 0.03 0.03 0.02 0.02 0.03 0.05 0.08
0.00 0.00 0.00 0.00 0.00 0.00 0.00 0.00 0.00 0.00 0.00 0.00 0.00 0.00 0.00 0.00 0.00 0.00 0.00 0.00 0.00 0.00 0.01 0.01 0.02 0.03 0.06 0.11 0.12 0.11 0.09 0.09 0.15 0.25 0.11 0.03 0.04 0.04 0.04 0.03 0.03 0.04 0.05
0.00 0.00 0.00 0.00 0.00 0.00 0.00 0.00 0.00 0.00 0.00 0.00 0.00 0.00 0.00 0.01 0.01 0.01 0.00 0.00 0.00 0.01 0.01 0.02 0.03 0.04 0.06 0.08 0.11 0.13 0.17 0.19 0.16 0.21 0.20 0.07 0.03 0.03 0.04 0.04 0.05 0.07 0.09

GEFSSE_prec_meanprecacc_084.txt.gz
Total_Precipitation_Accumulation
0.03 0.06 0.09 0.11 0.09 0.07 0.08 0.09 0.08 0.06 0.06 0.08 0.10 0.12 0.13 0.14 0.14 0.14 0.14 0.15 0.16 0.16 0.15 0.15 0.14 0.13 0.13 0.14 0.15 0.16 0.15 0.16 0.17 0.17 0.18 0.19 0.20 0.18 0.17 0.18 0.14 0.20 0.27
0.05 0.08 0.09 0.09 0.07 0.06 0.06 0.06 0.05 0.04 0.06 0.07 0.07 0.07 0.08 0.10 0.11 0.12 0.13 0.14 0.16 0.16 0.16 0.16 0.16 0.14 0.11 0.13 0.17 0.16 0.14 0.13 0.12 0.13 0.14 0.13 0.18 0.19 0.16 0.19 0.20 0.31 0.35
0.04 0.07 0.08 0.08 0.06 0.05 0.05 0.05 0.04 0.03 0.04 0.05 0.05 0.05 0.05 0.06 0.07 0.08 0.10 0.11 0.12 0.12 0.13 0.15 0.17 0.15 0.10 0.11 0.15 0.16 0.15 0.14 0.11 0.10 0.09 0.09 0.17 0.21 0.21 0.21 0.23 0.35 0.36
0.02 0.04 0.06 0.07 0.06 0.06 0.05 0.05 0.04 0.04 0.03 0.04 0.04 0.04 0.04 0.04 0.05 0.06 0.07 0.08 0.09 0.11 0.14 0.14 0.15 0.16 0.12 0.12 0.13 0.14 0.14 0.13 0.10 0.07 0.02 0.05 0.22 0.32 0.32 0.26 0.22 0.32 0.34
0.01 0.02 0.05 0.07 0.07 0.06 0.07 0.06 0.04 0.04 0.05 0.05 0.04 0.03 0.03 0.04 0.04 0.04 0.04 0.04 0.05 0.07 0.09 0.11 0.15 0.16 0.15 0.13 0.13 0.14 0.16 0.15 0.10 0.04 0.01 0.07 0.24 0.35 0.32 0.29 0.25 0.29 0.32
0.02 0.02 0.04 0.06 0.07 0.07 0.08 0.07 0.05 0.04 0.04 0.04 0.03 0.03 0.04 0.04 0.04 0.04 0.03 0.03 0.03 0.04 0.07 0.10 0.15 0.20 0.15 0.13 0.16 0.19 0.24 0.22 0.11 0.03 0.02 0.07 0.16 0.28 0.33 0.36 0.35 0.30 0.29
0.03 0.04 0.04 0.04 0.05 0.06 0.07 0.06 0.05 0.04 0.04 0.04 0.03 0.03 0.03 0.03 0.03 0.04 0.05 0.04 0.03 0.03 0.05 0.07 0.11 0.20 0.19 0.18 0.22 0.26 0.32 0.25 0.12 0.11 0.06 0.04 0.10 0.24 0.41 0.46 0.43 0.34 0.30
0.00 0.00 0.00 0.01 0.02 0.03 0.05 0.06 0.05 0.04 0.04 0.04 0.03 0.03 0.03 0.03 0.04 0.07 0.09 0.08 0.06 0.05 0.05 0.06 0.07 0.13 0.17 0.20 0.24 0.27 0.29 0.17 0.12 0.22 0.18 0.14 0.19 0.34 0.45 0.62 0.58 0.43 0.36
0.00 0.00 0.00 0.00 0.01 0.01 0.03 0.04 0.04 0.04 0.03 0.03 0.03 0.02 0.02 0.02 0.03 0.06 0.07 0.06 0.06 0.06 0.06 0.05 0.04 0.05 0.10 0.15 0.18 0.21 0.21 0.13 0.12 0.31 0.31 0.39 0.29 0.36 0.42 0.59 0.66 0.55 0.44
0.00 0.00 0.00 0.00 0.00 0.00 0.01 0.02 0.02 0.03 0.03 0.04 0.04 0.02 0.02 0.03 0.05 0.07 0.05 0.06 0.06 0.06 0.06 0.05 0.05 0.03 0.04 0.05 0.07 0.09 0.08 0.05 0.06 0.22 0.48 0.46 0.34 0.49 0.55 0.58 0.63 0.60 0.55
0.00 0.00 0.00 0.00 0.00 0.00 0.00 0.01 0.01 0.02 0.02 0.04 0.05 0.05 0.04 0.04 0.03 0.03 0.03 0.04 0.05 0.04 0.04 0.04 0.05 0.05 0.04 0.02 0.02 0.03 0.03 0.00 0.04 0.16 0.28 0.30 0.38 0.51 0.67 0.70 0.70 0.66 0.59
0.00 0.00 0.00 0.00 0.00 0.00 0.00 0.00 0.00 0.01 0.01 0.01 0.02 0.03 0.04 0.04 0.05 0.06 0.06 0.07 0.05 0.04 0.05 0.06 0.06 0.05 0.04 0.02 0.06 0.08 0.03 0.01 0.01 0.03 0.08 0.13 0.26 0.41 0.56 0.70 0.82 0.79 0.68
0.00 0.00 0.00 0.00 0.00 0.00 0.00 0.00 0.00 0.00 0.00 0.00 0.00 0.00 0.01 0.01 0.02 0.04 0.04 0.06 0.06 0.07 0.09 0.10 0.10 0.10 0.11 0.12 0.14 0.14 0.09 0.06 0.04 0.03 0.03 0.07 0.13 0.21 0.39 0.57 0.77 0.89 0.86
0.00 0.00 0.00 0.00 0.00 0.00 0.00 0.00 0.00 0.00 0.00 0.00 0.00 0.00 0.00 0.00 0.00 0.01 0.02 0.02 0.03 0.06 0.09 0.13 0.15 0.15 0.13 0.12 0.13 0.13 0.13 0.13 0.08 0.07 0.05 0.08 0.10 0.09 0.16 0.32 0.54 0.83 0.96
0.00 0.00 0.00 0.00 0.00 0.00 0.00 0.00 0.00 0.00 0.00 0.00 0.00 0.00 0.00 0.00 0.00 0.00 0.00 0.00 0.01 0.01 0.02 0.03 0.05 0.08 0.09 0.09 0.11 0.11 0.12 0.11 0.09 0.10 0.09 0.10 0.10 0.09 0.09 0.16 0.32 0.64 0.94
0.00 0.00 0.00 0.00 0.00 0.00 0.00 0.00 0.00 0.00 0.00 0.00 0.00 0.00 0.00 0.00 0.00 0.00 0.00 0.00 0.00 0.00 0.00 0.00 0.01 0.02 0.02 0.03 0.04 0.05 0.07 0.08 0.08 0.11 0.12 0.14 0.13 0.11 0.10 0.11 0.18 0.37 0.70
0.00 0.00 0.00 0.00 0.00 0.00 0.00 0.00 0.00 0.00 0.00 0.00 0.00 0.00 0.00 0.00 0.00 0.00 0.00 0.00 0.00 0.00 0.00 0.00 0.00 0.00 0.00 0.01 0.01 0.01 0.02 0.03 0.05 0.07 0.09 0.13 0.17 0.15 0.13 0.11 0.12 0.20 0.39
0.00 0.00 0.00 0.00 0.00 0.00 0.00 0.00 0.00 0.00 0.00 0.00 0.00 0.00 0.00 0.00 0.00 0.00 0.00 0.00 0.00 0.00 0.00 0.00 0.00 0.00 0.00 0.00 0.00 0.00 0.00 0.00 0.01 0.02 0.05 0.08 0.14 0.17 0.15 0.15 0.14 0.15 0.23
0.00 0.00 0.00 0.00 0.00 0.00 0.00 0.00 0.00 0.00 0.00 0.00 0.00 0.00 0.00 0.00 0.00 0.00 0.00 0.00 0.00 0.00 0.00 0.00 0.00 0.00 0.00 0.00 0.00 0.00 0.00 0.00 0.00 0.00 0.01 0.03 0.06 0.13 0.17 0.17 0.18 0.17 0.17
0.00 0.00 0.00 0.00 0.00 0.00 0.00 0.00 0.00 0.00 0.00 0.00 0.00 0.00 0.00 0.00 0.00 0.00 0.00 0.00 0.00 0.00 0.00 0.00 0.00 0.00 0.00 0.00 0.00 0.00 0.00 0.00 0.00 0.00 0.00 0.01 0.02 0.04 0.11 0.15 0.18 0.18 0.16
0.00 0.00 0.00 0.00 0.00 0.00 0.00 0.00 0.00 0.00 0.00 0.00 0.00 0.00 0.00 0.00 0.00 0.00 0.00 0.00 0.00 0.00 0.00 0.00 0.00 0.00 0.00 0.01 0.02 0.01 0.00 0.00 0.00 0.00 0.00 0.00 0.01 0.01 0.04 0.08 0.15 0.20 0.19
0.00 0.00 0.00 0.00 0.00 0.00 0.00 0.00 0.00 0.00 0.00 0.00 0.00 0.00 0.00 0.00 0.00 0.00 0.00 0.00 0.00 0.01 0.00 0.00 0.00 0.01 0.01 0.01 0.05 0.09 0.05 0.01 0.00 0.00 0.00 0.00 0.00 0.01 0.02 0.04 0.08 0.15 0.20
0.00 0.00 0.00 0.00 0.00 0.00 0.00 0.00 0.00 0.00 0.00 0.00 0.00 0.00 0.00 0.00 0.00 0.00 0.00 0.00 0.00 0.00 0.00 0.00 0.01 0.02 0.04 0.02 0.04 0.18 0.28 0.16 0.05 0.01 0.00 0.01 0.01 0.01 0.01 0.02 0.05 0.08 0.14
0.00 0.00 0.00 0.00 0.00 0.00 0.00 0.00 0.00 0.00 0.00 0.00 0.00 0.00 0.00 0.00 0.00 0.00 0.00 0.00 0.00 0.00 0.01 0.01 0.01 0.03 0.06 0.08 0.05 0.08 0.18 0.25 0.28 0.13 0.02 0.02 0.03 0.03 0.02 0.02 0.03 0.05 0.08
0.00 0.00 0.00 0.00 0.00 0.00 0.00 0.00 0.00 0.00 0.00 0.00 0.00 0.00 0.00 0.00 0.00 0.00 0.00 0.00 0.00 0.00 0.01 0.01 0.02 0.03 0.06 0.11 0.13 0.11 0.09 0.10 0.15 0.25 0.12 0.03 0.04 0.04 0.04 0.03 0.03 0.04 0.05
0.00 0.00 0.00 0.00 0.00 0.00 0.00 0.00 0.00 0.00 0.00 0.00 0.00 0.00 0.00 0.01 0.01 0.01 0.00 0.00 0.00 0.01 0.01 0.02 0.03 0.04 0.06 0.08 0.11 0.13 0.17 0.19 0.16 0.21 0.20 0.07 0.03 0.03 0.04 0.04 0.05 0.07 0.09

GEFSSE_prec_meanprecacc_090.txt.gz
Total_Precipitation_Accumulation
0.03 0.06 0.09 0.11 0.09 0.07 0.08 0.10 0.09 0.07 0.07 0.09 0.11 0.12 0.14 0.15 0.14 0.14 0.14 0.15 0.16 0.16 0.16 0.16 0.15 0.14 0.15 0.15 0.16 0.16 0.16 0.16 0.18 0.18 0.19 0.21 0.22 0.20 0.18 0.18 0.14 0.20 0.28
0.05 0.08 0.09 0.09 0.07 0.06 0.06 0.06 0.05 0.05 0.06 0.08 0.07 0.07 0.09 0.10 0.11 0.13 0.13 0.14 0.16 0.16 0.16 0.17 0.16 0.14 0.12 0.14 0.17 0.16 0.15 0.13 0.12 0.13 0.14 0.13 0.19 0.21 0.17 0.20 0.21 0.32 0.35
0.04 0.07 0.08 0.08 0.06 0.05 0.05 0.05 0.04 0.04 0.04 0.05 0.05 0.05 0.06 0.07 0.07 0.08 0.10 0.11 0.12 0.12 0.13 0.15 0.17 0.15 0.10 0.11 0.16 0.16 0.15 0.14 0.11 0.10 0.09 0.09 0.17 0.22 0.22 0.22 0.23 0.36 0.36
0.02 0.04 0.06 0.07 0.07 0.06 0.06 0.05 0.04 0.04 0.04 0.04 0.04 0.04 0.04 0.05 0.05 0.06 0.07 0.08 0.09 0.11 0.14 0.14 0.15 0.16 0.12 0.12 0.13 0.14 0.14 0.13 0.10 0.07 0.02 0.05 0.22 0.33 0.33 0.27 0.23 0.33 0.35
0.01 0.02 0.05 0.07 0.07 0.07 0.07 0.06 0.05 0.04 0.05 0.05 0.04 0.04 0.04 0.04 0.04 0.04 0.04 0.04 0.05 0.07 0.09 0.11 0.15 0.16 0.15 0.13 0.13 0.14 0.16 0.15 0.10 0.04 0.01 0.07 0.24 0.36 0.32 0.29 0.25 0.30 0.33
0.02 0.02 0.04 0.06 0.07 0.07 0.08 0.07 0.05 0.04 0.05 0.04 0.04 0.04 0.04 0.04 0.04 0.04 0.03 0.03 0.03 0.04 0.07 0.10 0.15 0.20 0.15 0.13 0.16 0.19 0.24 0.22 0.11 0.03 0.02 0.07 0.16 0.28 0.33 0.36 0.35 0.31 0.30
0.03 0.04 0.04 0.04 0.06 0.07 0.07 0.06 0.05 0.04 0.05 0.04 0.03 0.03 0.04 0.04 0.03 0.04 0.05 0.04 0.03 0.03 0.05 0.07 0.11 0.20 0.19 0.18 0.22 0.26 0.32 0.25 0.12 0.11 0.06 0.04 0.10 0.24 0.41 0.46 0.43 0.34 0.30
0.00 0.00 0.00 0.01 0.02 0.03 0.05 0.06 0.05 0.04 0.04 0.04 0.03 0.03 0.03 0.03 0.04 0.07 0.09 0.08 0.06 0.05 0.05 0.06 0.07 0.13 0.17 0.20 0.24 0.27 0.29 0.17 0.12 0.22 0.18 0.14 0.19 0.34 0.45 0.62 0.58 0.43 0.37
0.00 0.00 0.00 0.00 0.01 0.02 0.03 0.04 0.04 0.04 0.04 0.04 0.03 0.02 0.02 0.02 0.04 0.07 0.07 0.06 0.06 0.06 0.06 0.05 0.04 0.05 0.10 0.15 0.18 0.21 0.21 0.13 0.12 0.31 0.31 0.39 0.29 0.36 0.42 0.59 0.66 0.55 0.44
0.00 0.00 0.00 0.00 0.00 0.00 0.01 0.02 0.03 0.03 0.03 0.04 0.04 0.03 0.02 0.03 0.05 0.07 0.05 0.06 0.06 0.06 0.06 0.05 0.05 0.03 0.04 0.05 0.07 0.09 0.08 0.05 0.06 0.22 0.48 0.46 0.34 0.49 0.55 0.58 0.63 0.60 0.55
0.00 0.00 0.00 0.00 0.00 0.00 0.00 0.01 0.02 0.02 0.02 0.04 0.06 0.05 0.04 0.04 0.04 0.03 0.03 0.04 0.05 0.04 0.04 0.04 0.05 0.05 0.04 0.02 0.02 0.03 0.03 0.00 0.04 0.16 0.28 0.30 0.38 0.51 0.67 0.70 0.70 0.66 0.59
0.00 0.00 0.00 0.00 0.00 0.00 0.00 0.00 0.01 0.01 0.01 0.02 0.03 0.03 0.04 0.04 0.05 0.06 0.06 0.07 0.06 0.04 0.05 0.06 0.06 0.06 0.04 0.02 0.06 0.08 0.03 0.01 0.01 0.03 0.08 0.13 0.26 0.41 0.56 0.70 0.82 0.79 0.68
0.00 0.00 0.00 0.00 0.00 0.00 0.00 0.00 0.00 0.00 0.01 0.01 0.00 0.01 0.01 0.01 0.02 0.04 0.04 0.06 0.06 0.07 0.09 0.10 0.10 0.10 0.11 0.12 0.14 0.14 0.09 0.06 0.04 0.03 0.03 0.07 0.13 0.21 0.39 0.57 0.77 0.89 0.86
0.00 0.00 0.00 0.00 0.00 0.00 0.00 0.00 0.00 0.00 0.00 0.00 0.00 0.00 0.00 0.00 0.00 0.01 0.02 0.02 0.03 0.06 0.09 0.13 0.15 0.15 0.13 0.12 0.13 0.13 0.13 0.13 0.08 0.07 0.05 0.08 0.10 0.09 0.16 0.32 0.54 0.83 0.96
0.00 0.00 0.00 0.00 0.00 0.00 0.00 0.00 0.00 0.00 0.00 0.00 0.00 0.00 0.00 0.00 0.00 0.00 0.00 0.00 0.01 0.01 0.02 0.03 0.05 0.08 0.09 0.09 0.11 0.11 0.12 0.11 0.09 0.10 0.09 0.10 0.10 0.09 0.09 0.16 0.32 0.64 0.94
0.00 0.00 0.00 0.00 0.00 0.00 0.00 0.00 0.00 0.00 0.00 0.00 0.00 0.00 0.00 0.00 0.00 0.00 0.00 0.00 0.00 0.00 0.00 0.00 0.01 0.02 0.02 0.03 0.04 0.05 0.07 0.08 0.08 0.11 0.12 0.14 0.13 0.11 0.10 0.11 0.18 0.37 0.70
0.00 0.00 0.00 0.00 0.00 0.00 0.00 0.00 0.00 0.00 0.00 0.00 0.00 0.00 0.00 0.00 0.00 0.00 0.00 0.00 0.00 0.00 0.00 0.00 0.00 0.00 0.00 0.01 0.01 0.01 0.02 0.03 0.05 0.07 0.09 0.13 0.17 0.15 0.13 0.11 0.12 0.20 0.39
0.00 0.00 0.00 0.00 0.00 0.00 0.00 0.00 0.00 0.00 0.00 0.00 0.00 0.00 0.00 0.00 0.00 0.00 0.00 0.00 0.00 0.00 0.00 0.00 0.00 0.00 0.00 0.00 0.00 0.00 0.00 0.00 0.01 0.02 0.05 0.08 0.14 0.17 0.15 0.15 0.14 0.15 0.23
0.00 0.00 0.00 0.00 0.00 0.00 0.00 0.00 0.00 0.00 0.00 0.00 0.00 0.00 0.00 0.00 0.00 0.00 0.01 0.01 0.00 0.00 0.00 0.00 0.00 0.00 0.00 0.00 0.00 0.00 0.00 0.00 0.00 0.00 0.01 0.03 0.06 0.13 0.17 0.17 0.18 0.17 0.17
0.00 0.00 0.00 0.00 0.00 0.00 0.00 0.00 0.00 0.00 0.00 0.00 0.00 0.00 0.00 0.00 0.00 0.00 0.00 0.00 0.00 0.00 0.00 0.00 0.00 0.00 0.01 0.01 0.01 0.01 0.00 0.00 0.00 0.00 0.00 0.01 0.02 0.04 0.11 0.15 0.18 0.18 0.16
0.00 0.00 0.00 0.00 0.00 0.00 0.00 0.00 0.00 0.00 0.00 0.00 0.00 0.00 0.00 0.00 0.00 0.00 0.00 0.00 0.00 0.01 0.01 0.00 0.00 0.01 0.01 0.01 0.02 0.01 0.00 0.00 0.00 0.00 0.00 0.00 0.01 0.01 0.04 0.08 0.15 0.20 0.19
0.00 0.00 0.00 0.00 0.00 0.00 0.00 0.00 0.00 0.00 0.00 0.00 0.00 0.00 0.00 0.00 0.00 0.00 0.00 0.01 0.01 0.01 0.01 0.01 0.01 0.02 0.02 0.01 0.05 0.10 0.05 0.01 0.00 0.00 0.00 0.00 0.00 0.01 0.02 0.04 0.08 0.15 0.20
0.00 0.00 0.00 0.00 0.00 0.00 0.00 0.00 0.00 0.00 0.00 0.00 0.00 0.00 0.00 0.00 0.00 0.00 0.00 0.00 0.00 0.01 0.01 0.01 0.01 0.02 0.04 0.02 0.04 0.19 0.28 0.16 0.05 0.01 0.00 0.01 0.01 0.01 0.01 0.02 0.05 0.08 0.14
0.00 0.00 0.00 0.00 0.00 0.00 0.00 0.00 0.00 0.00 0.00 0.00 0.00 0.00 0.00 0.00 0.00 0.00 0.00 0.00 0.00 0.00 0.01 0.01 0.01 0.03 0.06 0.08 0.05 0.08 0.19 0.25 0.28 0.13 0.02 0.02 0.03 0.03 0.02 0.02 0.03 0.05 0.08
0.00 0.00 0.00 0.00 0.00 0.00 0.00 0.00 0.00 0.00 0.00 0.00 0.00 0.00 0.00 0.00 0.00 0.00 0.00 0.00 0.00 0.00 0.01 0.01 0.02 0.03 0.06 0.11 0.13 0.11 0.09 0.10 0.15 0.25 0.12 0.03 0.04 0.04 0.04 0.03 0.03 0.04 0.05
0.00 0.00 0.00 0.00 0.00 0.00 0.00 0.00 0.00 0.00 0.00 0.00 0.00 0.00 0.00 0.01 0.01 0.01 0.00 0.00 0.00 0.01 0.01 0.02 0.03 0.04 0.06 0.08 0.11 0.13 0.17 0.19 0.16 0.21 0.20 0.07 0.03 0.03 0.04 0.04 0.05 0.07 0.09

GEFSSE_prec_meanprecacc_096.txt.gz
Total_Precipitation_Accumulation
0.03 0.06 0.10 0.11 0.10 0.08 0.09 0.11 0.10 0.09 0.09 0.10 0.11 0.13 0.14 0.15 0.14 0.14 0.14 0.15 0.16 0.16 0.17 0.17 0.16 0.15 0.15 0.16 0.16 0.17 0.16 0.17 0.18 0.19 0.20 0.22 0.23 0.21 0.19 0.19 0.14 0.20 0.28
0.05 0.08 0.10 0.09 0.08 0.07 0.07 0.07 0.07 0.06 0.07 0.09 0.08 0.07 0.09 0.10 0.12 0.13 0.13 0.14 0.16 0.16 0.17 0.17 0.17 0.15 0.13 0.14 0.18 0.17 0.15 0.13 0.12 0.14 0.14 0.14 0.20 0.22 0.18 0.21 0.21 0.32 0.36
0.04 0.07 0.08 0.08 0.06 0.06 0.06 0.06 0.05 0.05 0.05 0.06 0.05 0.05 0.06 0.07 0.07 0.08 0.10 0.11 0.12 0.12 0.13 0.15 0.17 0.16 0.11 0.12 0.16 0.17 0.16 0.14 0.12 0.10 0.09 0.09 0.18 0.23 0.23 0.23 0.24 0.37 0.37
0.02 0.04 0.06 0.08 0.07 0.06 0.06 0.06 0.05 0.04 0.04 0.04 0.04 0.05 0.05 0.05 0.05 0.06 0.07 0.08 0.09 0.11 0.14 0.14 0.16 0.16 0.13 0.13 0.13 0.14 0.14 0.14 0.10 0.07 0.02 0.05 0.22 0.34 0.33 0.28 0.24 0.34 0.36
0.01 0.02 0.05 0.07 0.07 0.07 0.07 0.07 0.05 0.04 0.05 0.05 0.04 0.04 0.04 0.04 0.04 0.04 0.04 0.04 0.05 0.07 0.09 0.11 0.15 0.16 0.15 0.14 0.13 0.14 0.16 0.15 0.10 0.04 0.01 0.07 0.24 0.36 0.33 0.29 0.26 0.30 0.34
0.02 0.02 0.04 0.06 0.07 0.08 0.08 0.08 0.06 0.05 0.05 0.04 0.04 0.04 0.04 0.04 0.04 0.04 0.03 0.03 0.03 0.04 0.07 0.10 0.15 0.20 0.15 0.13 0.16 0.19 0.24 0.22 0.11 0.03 0.02 0.07 0.16 0.29 0.34 0.37 0.36 0.31 0.30
0.03 0.04 0.04 0.04 0.06 0.07 0.07 0.07 0.06 0.05 0.05 0.04 0.03 0.04 0.04 0.04 0.04 0.04 0.05 0.04 0.03 0.03 0.05 0.07 0.11 0.20 0.19 0.18 0.22 0.26 0.32 0.25 0.12 0.11 0.06 0.04 0.10 0.25 0.41 0.46 0.43 0.34 0.31
0.00 0.00 0.00 0.01 0.03 0.04 0.06 0.07 0.06 0.05 0.05 0.05 0.04 0.04 0.03 0.03 0.04 0.07 0.09 0.08 0.06 0.05 0.05 0.06 0.07 0.13 0.17 0.20 0.24 0.27 0.29 0.17 0.12 0.22 0.18 0.14 0.19 0.34 0.45 0.62 0.58 0.43 0.37
0.00 0.00 0.00 0.00 0.01 0.02 0.04 0.05 0.05 0.04 0.04 0.04 0.03 0.02 0.02 0.03 0.04 0.07 0.07 0.06 0.06 0.06 0.06 0.05 0.04 0.05 0.11 0.15 0.18 0.21 0.21 0.13 0.12 0.31 0.31 0.39 0.29 0.36 0.42 0.59 0.66 0.55 0.44
0.00 0.00 0.00 0.00 0.00 0.01 0.02 0.03 0.04 0.04 0.04 0.05 0.04 0.03 0.03 0.03 0.05 0.07 0.06 0.06 0.06 0.06 0.06 0.05 0.05 0.03 0.04 0.05 0.08 0.09 0.09 0.05 0.06 0.22 0.48 0.46 0.34 0.49 0.55 0.58 0.63 0.60 0.55
0.00 0.00 0.00 0.00 0.00 0.00 0.01 0.01 0.02 0.03 0.03 0.05 0.06 0.06 0.04 0.04 0.04 0.03 0.03 0.04 0.05 0.04 0.04 0.05 0.05 0.05 0.04 0.02 0.02 0.03 0.03 0.00 0.04 0.16 0.28 0.30 0.38 0.51 0.67 0.70 0.70 0.66 0.59
0.00 0.00 0.00 0.00 0.00 0.00 0.00 0.01 0.01 0.01 0.02 0.02 0.03 0.04 0.04 0.04 0.05 0.06 0.06 0.07 0.06 0.04 0.05 0.07 0.06 0.06 0.04 0.02 0.06 0.08 0.03 0.01 0.01 0.03 0.08 0.13 0.26 0.41 0.56 0.70 0.82 0.79 0.68
0.00 0.00 0.00 0.00 0.00 0.00 0.00 0.00 0.00 0.01 0.01 0.01 0.01 0.01 0.01 0.02 0.03 0.04 0.04 0.06 0.06 0.07 0.10 0.10 0.10 0.10 0.11 0.12 0.14 0.14 0.09 0.06 0.04 0.03 0.03 0.07 0.13 0.21 0.39 0.57 0.77 0.89 0.86
0.00 0.00 0.00 0.00 0.00 0.00 0.00 0.00 0.00 0.00 0.00 0.01 0.01 0.01 0.01 0.01 0.01 0.01 0.02 0.03 0.03 0.06 0.09 0.13 0.15 0.15 0.13 0.12 0.13 0.13 0.13 0.13 0.08 0.07 0.05 0.08 0.10 0.09 0.17 0.32 0.55 0.83 0.97
0.00 0.00 0.00 0.00 0.00 0.00 0.00 0.00 0.00 0.00 0.00 0.01 0.01 0.01 0.01 0.01 0.01 0.00 0.00 0.00 0.01 0.01 0.02 0.03 0.05 0.08 0.09 0.09 0.11 0.11 0.12 0.11 0.09 0.10 0.09 0.10 0.10 0.09 0.10 0.17 0.32 0.64 0.94
0.00 0.00 0.00 0.00 0.00 0.00 0.00 0.00 0.00 0.00 0.00 0.00 0.01 0.01 0.01 0.01 0.01 0.01 0.00 0.00 0.00 0.00 0.00 0.00 0.01 0.02 0.02 0.03 0.04 0.05 0.07 0.08 0.08 0.11 0.12 0.14 0.13 0.11 0.10 0.11 0.19 0.37 0.71
0.00 0.00 0.00 0.00 0.00 0.00 0.00 0.00 0.00 0.00 0.00 0.01 0.01 0.01 0.01 0.01 0.01 0.01 0.01 0.01 0.00 0.00 0.00 0.00 0.00 0.00 0.00 0.01 0.01 0.01 0.02 0.03 0.05 0.07 0.09 0.13 0.17 0.15 0.13 0.11 0.13 0.21 0.39
0.00 0.00 0.00 0.00 0.00 0.00 0.00 0.00 0.00 0.00 0.00 0.01 0.01 0.01 0.01 0.01 0.01 0.01 0.01 0.01 0.01 0.00 0.00 0.00 0.00 0.00 0.00 0.00 0.00 0.00 0.00 0.00 0.01 0.02 0.05 0.08 0.14 0.17 0.15 0.15 0.14 0.15 0.23
0.00 0.00 0.00 0.00 0.00 0.00 0.00 0.00 0.00 0.00 0.00 0.01 0.01 0.01 0.01 0.01 0.01 0.01 0.01 0.01 0.01 0.01 0.01 0.01 0.00 0.00 0.00 0.00 0.01 0.00 0.00 0.00 0.00 0.00 0.01 0.03 0.06 0.13 0.17 0.17 0.18 0.17 0.17
0.00 0.00 0.00 0.00 0.00 0.00 0.00 0.00 0.00 0.00 0.00 0.00 0.00 0.00 0.00 0.00 0.01 0.01 0.01 0.01 0.01 0.01 0.01 0.01 0.01 0.01 0.01 0.01 0.01 0.01 0.00 0.00 0.00 0.00 0.00 0.01 0.02 0.04 0.11 0.15 0.18 0.18 0.16
0.00 0.00 0.00 0.00 0.00 0.00 0.00 0.00 0.00 0.00 0.00 0.00 0.00 0.00 0.00 0.00 0.00 0.00 0.00 0.01 0.01 0.01 0.01 0.01 0.01 0.01 0.01 0.01 0.02 0.02 0.00 0.00 0.00 0.00 0.00 0.00 0.01 0.01 0.04 0.08 0.15 0.20 0.19
0.00 0.00 0.00 0.00 0.00 0.00 0.00 0.00 0.00 0.00 0.00 0.00 0.00 0.00 0.00 0.00 0.00 0.00 0.01 0.01 0.01 0.01 0.01 0.01 0.01 0.02 0.02 0.02 0.05 0.10 0.05 0.01 0.00 0.00 0.00 0.00 0.00 0.01 0.02 0.04 0.08 0.15 0.20
0.00 0.00 0.00 0.00 0.00 0.00 0.00 0.00 0.00 0.00 0.00 0.00 0.00 0.00 0.00 0.00 0.00 0.00 0.00 0.01 0.01 0.01 0.01 0.01 0.01 0.03 0.04 0.02 0.04 0.19 0.29 0.16 0.05 0.01 0.00 0.01 0.01 0.01 0.01 0.02 0.05 0.08 0.14
0.00 0.00 0.00 0.00 0.00 0.00 0.00 0.00 0.00 0.00 0.00 0.00 0.00 0.00 0.00 0.00 0.00 0.00 0.00 0.00 0.00 0.01 0.01 0.01 0.01 0.03 0.06 0.08 0.05 0.08 0.19 0.25 0.28 0.13 0.02 0.02 0.03 0.03 0.02 0.02 0.03 0.05 0.08
0.00 0.00 0.00 0.00 0.00 0.00 0.00 0.00 0.00 0.00 0.00 0.00 0.00 0.00 0.00 0.00 0.00 0.00 0.00 0.00 0.00 0.01 0.01 0.01 0.02 0.03 0.07 0.11 0.13 0.11 0.09 0.10 0.15 0.25 0.12 0.03 0.04 0.04 0.04 0.03 0.03 0.04 0.05
0.00 0.00 0.00 0.00 0.00 0.00 0.00 0.00 0.00 0.00 0.00 0.00 0.00 0.00 0.00 0.01 0.01 0.01 0.00 0.00 0.00 0.01 0.01 0.02 0.03 0.04 0.06 0.08 0.11 0.13 0.17 0.19 0.16 0.21 0.20 0.07 0.03 0.03 0.04 0.04 0.05 0.07 0.09

GEFSSE_prec_meanprecacc_102.txt.gz
Total_Precipitation_Accumulation
0.03 0.06 0.11 0.12 0.10 0.09 0.11 0.13 0.12 0.11 0.10 0.11 0.12 0.13 0.15 0.15 0.15 0.15 0.14 0.15 0.17 0.17 0.18 0.18 0.17 0.16 0.16 0.17 0.17 0.18 0.17 0.17 0.18 0.19 0.21 0.24 0.25 0.22 0.20 0.19 0.14 0.21 0.29
0.05 0.08 0.10 0.10 0.09 0.08 0.09 0.08 0.09 0.07 0.08 0.10 0.08 0.08 0.09 0.11 0.12 0.13 0.14 0.15 0.16 0.17 0.17 0.18 0.17 0.15 0.13 0.15 0.18 0.18 0.16 0.14 0.12 0.14 0.14 0.14 0.22 0.24 0.20 0.22 0.22 0.33 0.37
0.04 0.07 0.09 0.08 0.07 0.07 0.07 0.07 0.07 0.06 0.06 0.06 0.06 0.06 0.07 0.07 0.08 0.09 0.10 0.11 0.12 0.12 0.14 0.15 0.17 0.16 0.11 0.13 0.17 0.17 0.16 0.15 0.12 0.10 0.09 0.09 0.18 0.24 0.24 0.24 0.25 0.38 0.38
0.02 0.04 0.06 0.08 0.08 0.07 0.07 0.07 0.06 0.05 0.05 0.05 0.05 0.05 0.05 0.05 0.05 0.06 0.07 0.08 0.09 0.12 0.14 0.14 0.16 0.16 0.13 0.13 0.14 0.15 0.15 0.14 0.10 0.07 0.02 0.05 0.22 0.34 0.34 0.29 0.25 0.34 0.36
0.01 0.02 0.05 0.07 0.08 0.08 0.08 0.08 0.06 0.05 0.06 0.06 0.05 0.04 0.04 0.04 0.04 0.04 0.04 0.04 0.05 0.07 0.09 0.11 0.15 0.16 0.15 0.14 0.13 0.14 0.16 0.15 0.10 0.04 0.01 0.07 0.24 0.37 0.33 0.30 0.26 0.31 0.34
0.02 0.02 0.05 0.06 0.08 0.09 0.09 0.09 0.06 0.05 0.05 0.05 0.04 0.04 0.04 0.05 0.04 0.04 0.03 0.03 0.03 0.04 0.07 0.10 0.15 0.20 0.15 0.13 0.16 0.19 0.24 0.22 0.11 0.03 0.02 0.07 0.16 0.29 0.34 0.37 0.36 0.31 0.30
0.03 0.04 0.04 0.05 0.07 0.08 0.08 0.08 0.06 0.05 0.05 0.05 0.04 0.04 0.04 0.04 0.04 0.05 0.05 0.04 0.03 0.03 0.05 0.07 0.11 0.20 0.19 0.18 0.22 0.26 0.32 0.25 0.12 0.11 0.06 0.04 0.10 0.25 0.41 0.46 0.43 0.34 0.31
0.00 0.00 0.01 0.02 0.04 0.05 0.07 0.08 0.06 0.05 0.05 0.05 0.04 0.04 0.04 0.03 0.04 0.07 0.09 0.08 0.06 0.05 0.05 0.06 0.07 0.13 0.17 0.20 0.24 0.27 0.29 0.17 0.12 0.22 0.18 0.14 0.19 0.35 0.45 0.62 0.58 0.43 0.37
0.00 0.00 0.00 0.01 0.02 0.03 0.05 0.06 0.06 0.05 0.05 0.05 0.04 0.03 0.03 0.03 0.04 0.07 0.08 0.07 0.06 0.06 0.07 0.05 0.04 0.05 0.11 0.15 0.18 0.21 0.21 0.13 0.12 0.31 0.31 0.39 0.29 0.36 0.42 0.59 0.66 0.55 0.44
0.00 0.00 0.00 0.00 0.01 0.01 0.02 0.04 0.04 0.05 0.05 0.06 0.05 0.04 0.03 0.04 0.06 0.08 0.06 0.06 0.06 0.07 0.06 0.06 0.05 0.04 0.04 0.05 0.08 0.09 0.09 0.05 0.06 0.22 0.48 0.46 0.34 0.49 0.55 0.58 0.63 0.60 0.55
0.00 0.00 0.00 0.00 0.00 0.01 0.01 0.02 0.03 0.04 0.04 0.06 0.07 0.06 0.05 0.04 0.04 0.04 0.03 0.05 0.05 0.05 0.04 0.05 0.06 0.06 0.04 0.02 0.02 0.03 0.03 0.00 0.04 0.16 0.28 0.30 0.38 0.51 0.67 0.71 0.71 0.66 0.59
0.00 0.00 0.00 0.00 0.00 0.00 0.01 0.01 0.02 0.02 0.03 0.03 0.03 0.04 0.04 0.05 0.05 0.06 0.06 0.07 0.06 0.05 0.06 0.07 0.07 0.06 0.04 0.02 0.06 0.08 0.03 0.01 0.01 0.03 0.08 0.13 0.26 0.42 0.57 0.71 0.83 0.80 0.69
0.00 0.00 0.00 0.00 0.00 0.00 0.00 0.01 0.01 0.01 0.02 0.02 0.01 0.01 0.01 0.02 0.03 0.04 0.05 0.06 0.07 0.07 0.10 0.10 0.10 0.10 0.11 0.12 0.14 0.14 0.09 0.06 0.04 0.03 0.03 0.07 0.13 0.21 0.39 0.57 0.78 0.90 0.87
0.00 0.00 0.00 0.00 0.00 0.00 0.00 0.00 0.01 0.01 0.01 0.01 0.01 0.01 0.01 0.01 0.01 0.01 0.02 0.03 0.04 0.06 0.09 0.13 0.15 0.15 0.13 0.12 0.13 0.13 0.13 0.13 0.08 0.07 0.05 0.08 0.10 0.09 0.17 0.33 0.55 0.84 0.98
0.00 0.00 0.00 0.00 0.00 0.00 0.00 0.00 0.00 0.01 0.01 0.01 0.01 0.01 0.01 0.01 0.01 0.01 0.01 0.01 0.01 0.01 0.02 0.03 0.05 0.08 0.09 0.09 0.11 0.11 0.12 0.11 0.09 0.10 0.09 0.10 0.10 0.09 0.10 0.17 0.33 0.65 0.95
0.00 0.00 0.00 0.00 0.00 0.00 0.00 0.00 0.01 0.01 0.01 0.01 0.01 0.01 0.01 0.01 0.02 0.01 0.01 0.01 0.00 0.00 0.00 0.00 0.01 0.02 0.02 0.03 0.04 0.05 0.07 0.08 0.08 0.11 0.12 0.14 0.13 0.11 0.10 0.11 0.19 0.38 0.71
0.00 0.00 0.00 0.00 0.00 0.00 0.00 0.00 0.01 0.01 0.01 0.01 0.02 0.02 0.02 0.02 0.02 0.01 0.01 0.01 0.01 0.00 0.00 0.00 0.00 0.01 0.01 0.01 0.01 0.01 0.02 0.03 0.05 0.07 0.09 0.13 0.17 0.15 0.13 0.11 0.13 0.21 0.39
0.00 0.00 0.00 0.00 0.00 0.00 0.00 0.01 0.01 0.01 0.01 0.02 0.02 0.02 0.02 0.02 0.02 0.01 0.02 0.01 0.01 0.01 0.01 0.01 0.01 0.01 0.01 0.01 0.01 0.00 0.00 0.00 0.01 0.02 0.05 0.08 0.14 0.17 0.15 0.15 0.14 0.15 0.24
0.00 0.00 0.00 0.00 0.00 0.00 0.00 0.01 0.01 0.01 0.02 0.01 0.01 0.01 0.01 0.01 0.01 0.02 0.02 0.02 0.01 0.01 0.01 0.01 0.01 0.01 0.01 0.01 0.01 0.00 0.00 0.00 0.00 0.00 0.01 0.03 0.06 0.13 0.17 0.17 0.18 0.17 0.17
0.00 0.00 0.00 0.00 0.00 0.00 0.01 0.01 0.01 0.01 0.01 0.01 0.01 0.01 0.01 0.01 0.01 0.01 0.02 0.01 0.01 0.01 0.01 0.01 0.01 0.01 0.01 0.01 0.01 0.01 0.00 0.00 0.00 0.00 0.00 0.01 0.02 0.04 0.11 0.15 0.18 0.18 0.16
0.00 0.00 0.00 0.00 0.00 0.00 0.01 0.01 0.01 0.01 0.01 0.01 0.01 0.01 0.01 0.01 0.00 0.01 0.01 0.01 0.01 0.01 0.01 0.01 0.01 0.02 0.01 0.02 0.03 0.02 0.00 0.00 0.00 0.00 0.00 0.00 0.01 0.01 0.04 0.08 0.15 0.20 0.19
0.00 0.00 0.00 0.00 0.00 0.00 0.00 0.00 0.00 0.00 0.00 0.00 0.01 0.00 0.00 0.00 0.00 0.01 0.01 0.01 0.02 0.02 0.02 0.02 0.02 0.03 0.02 0.02 0.05 0.10 0.05 0.01 0.00 0.00 0.00 0.00 0.00 0.01 0.02 0.04 0.08 0.15 0.20
0.00 0.00 0.00 0.00 0.00 0.00 0.00 0.00 0.00 0.00 0.00 0.00 0.00 0.00 0.00 0.00 0.00 0.00 0.00 0.01 0.01 0.01 0.01 0.01 0.01 0.03 0.04 0.02 0.04 0.19 0.29 0.16 0.05 0.01 0.00 0.01 0.01 0.01 0.01 0.02 0.05 0.08 0.14
0.00 0.00 0.00 0.00 0.00 0.00 0.00 0.00 0.00 0.00 0.00 0.00 0.00 0.00 0.00 0.00 0.00 0.00 0.01 0.01 0.01 0.01 0.01 0.01 0.01 0.03 0.07 0.08 0.05 0.08 0.19 0.25 0.29 0.13 0.02 0.02 0.03 0.03 0.02 0.02 0.03 0.05 0.08
0.00 0.00 0.00 0.00 0.00 0.00 0.00 0.00 0.00 0.00 0.00 0.00 0.00 0.00 0.00 0.00 0.00 0.00 0.01 0.00 0.01 0.01 0.01 0.01 0.02 0.03 0.07 0.12 0.13 0.11 0.09 0.10 0.15 0.25 0.12 0.03 0.04 0.04 0.04 0.03 0.03 0.04 0.05
0.00 0.00 0.00 0.00 0.00 0.00 0.00 0.00 0.00 0.00 0.00 0.00 0.00 0.00 0.00 0.01 0.01 0.01 0.00 0.00 0.00 0.01 0.01 0.02 0.03 0.04 0.06 0.09 0.11 0.13 0.17 0.19 0.16 0.21 0.20 0.07 0.03 0.03 0.04 0.04 0.05 0.07 0.09

GEFSSE_prec_meanprecacc_108.txt.gz
Total_Precipitation_Accumulation
0.03 0.06 0.11 0.12 0.11 0.10 0.13 0.15 0.15 0.12 0.11 0.11 0.12 0.14 0.15 0.16 0.15 0.15 0.15 0.16 0.17 0.18 0.19 0.19 0.18 0.17 0.17 0.18 0.18 0.18 0.17 0.17 0.19 0.19 0.21 0.25 0.26 0.23 0.20 0.20 0.15 0.21 0.29
0.05 0.08 0.10 0.10 0.09 0.10 0.11 0.11 0.11 0.09 0.09 0.10 0.09 0.08 0.10 0.11 0.12 0.14 0.14 0.15 0.17 0.17 0.18 0.18 0.18 0.16 0.14 0.16 0.19 0.18 0.16 0.14 0.12 0.14 0.14 0.14 0.22 0.25 0.20 0.22 0.22 0.34 0.38
0.04 0.07 0.09 0.09 0.08 0.09 0.09 0.09 0.08 0.07 0.06 0.07 0.06 0.06 0.07 0.07 0.08 0.09 0.10 0.11 0.13 0.13 0.14 0.16 0.18 0.17 0.12 0.13 0.17 0.18 0.16 0.15 0.12 0.10 0.09 0.10 0.18 0.25 0.25 0.25 0.26 0.38 0.39
0.02 0.04 0.06 0.08 0.08 0.09 0.08 0.09 0.07 0.06 0.05 0.05 0.05 0.05 0.05 0.05 0.05 0.06 0.07 0.08 0.09 0.12 0.14 0.14 0.16 0.17 0.13 0.13 0.14 0.15 0.15 0.14 0.10 0.07 0.02 0.05 0.22 0.34 0.34 0.29 0.26 0.35 0.37
0.01 0.02 0.05 0.08 0.08 0.09 0.09 0.09 0.07 0.06 0.06 0.06 0.05 0.05 0.04 0.04 0.04 0.04 0.04 0.04 0.05 0.07 0.10 0.11 0.15 0.16 0.16 0.14 0.13 0.14 0.16 0.15 0.10 0.04 0.01 0.07 0.24 0.37 0.34 0.30 0.26 0.31 0.35
0.02 0.02 0.05 0.07 0.09 0.10 0.10 0.10 0.07 0.06 0.06 0.05 0.04 0.04 0.05 0.05 0.04 0.04 0.03 0.03 0.03 0.04 0.07 0.10 0.15 0.20 0.16 0.13 0.16 0.19 0.24 0.22 0.11 0.03 0.02 0.07 0.16 0.29 0.34 0.37 0.36 0.31 0.30
0.03 0.04 0.05 0.05 0.07 0.09 0.09 0.09 0.07 0.06 0.06 0.05 0.04 0.04 0.04 0.04 0.04 0.05 0.05 0.04 0.03 0.03 0.05 0.07 0.11 0.20 0.19 0.18 0.23 0.26 0.32 0.25 0.12 0.11 0.06 0.04 0.10 0.25 0.41 0.46 0.43 0.34 0.31
0.00 0.00 0.01 0.02 0.04 0.06 0.08 0.08 0.07 0.06 0.06 0.06 0.05 0.04 0.04 0.03 0.04 0.07 0.09 0.08 0.06 0.05 0.05 0.06 0.07 0.13 0.17 0.20 0.24 0.27 0.29 0.17 0.12 0.22 0.18 0.14 0.19 0.35 0.45 0.62 0.58 0.43 0.37
0.00 0.00 0.00 0.01 0.02 0.04 0.06 0.07 0.06 0.05 0.05 0.05 0.04 0.03 0.03 0.03 0.04 0.07 0.08 0.07 0.06 0.06 0.07 0.05 0.04 0.06 0.11 0.15 0.18 0.21 0.21 0.13 0.12 0.31 0.31 0.39 0.29 0.36 0.42 0.59 0.66 0.55 0.44
0.00 0.00 0.00 0.00 0.01 0.02 0.03 0.05 0.05 0.05 0.05 0.06 0.05 0.04 0.04 0.04 0.06 0.08 0.06 0.06 0.06 0.07 0.07 0.06 0.05 0.04 0.04 0.05 0.08 0.09 0.09 0.05 0.06 0.22 0.48 0.46 0.34 0.49 0.55 0.58 0.64 0.60 0.55
0.00 0.00 0.00 0.00 0.00 0.01 0.02 0.03 0.04 0.04 0.05 0.06 0.08 0.07 0.05 0.05 0.04 0.04 0.03 0.05 0.05 0.05 0.04 0.05 0.06 0.06 0.04 0.02 0.02 0.03 0.03 0.00 0.04 0.16 0.28 0.30 0.38 0.51 0.68 0.71 0.71 0.66 0.60
0.00 0.00 0.00 0.00 0.00 0.00 0.01 0.02 0.02 0.02 0.03 0.03 0.04 0.04 0.04 0.05 0.05 0.06 0.06 0.07 0.06 0.05 0.06 0.07 0.07 0.06 0.04 0.03 0.06 0.08 0.03 0.01 0.01 0.03 0.08 0.13 0.26 0.42 0.57 0.71 0.83 0.81 0.69
0.00 0.00 0.00 0.00 0.00 0.00 0.01 0.01 0.01 0.02 0.03 0.02 0.02 0.01 0.02 0.03 0.03 0.04 0.05 0.06 0.07 0.08 0.10 0.11 0.11 0.10 0.11 0.12 0.14 0.14 0.09 0.06 0.04 0.03 0.03 0.07 0.13 0.22 0.39 0.57 0.78 0.90 0.88
0.00 0.00 0.00 0.00 0.00 0.00 0.00 0.01 0.01 0.01 0.02 0.02 0.02 0.01 0.01 0.02 0.01 0.01 0.02 0.03 0.04 0.06 0.09 0.14 0.15 0.16 0.13 0.12 0.13 0.13 0.13 0.13 0.08 0.07 0.05 0.08 0.10 0.09 0.17 0.33 0.56 0.85 0.99
0.00 0.00 0.00 0.00 0.01 0.01 0.00 0.01 0.01 0.01 0.01 0.02 0.02 0.01 0.01 0.02 0.01 0.01 0.01 0.01 0.01 0.01 0.02 0.03 0.05 0.08 0.09 0.09 0.11 0.11 0.12 0.11 0.09 0.10 0.09 0.10 0.10 0.09 0.10 0.17 0.33 0.66 0.96
0.00 0.00 0.00 0.00 0.00 0.01 0.00 0.01 0.01 0.01 0.01 0.02 0.02 0.02 0.02 0.02 0.02 0.02 0.01 0.01 0.01 0.01 0.01 0.01 0.01 0.02 0.03 0.03 0.04 0.05 0.07 0.08 0.08 0.11 0.12 0.14 0.13 0.11 0.10 0.11 0.19 0.38 0.71
0.00 0.00 0.00 0.00 0.00 0.01 0.01 0.01 0.01 0.01 0.01 0.02 0.02 0.02 0.02 0.02 0.02 0.02 0.02 0.01 0.01 0.01 0.01 0.00 0.01 0.01 0.01 0.01 0.01 0.01 0.02 0.03 0.05 0.07 0.09 0.13 0.17 0.15 0.13 0.11 0.13 0.21 0.40
0.00 0.00 0.00 0.00 0.00 0.00 0.01 0.01 0.01 0.01 0.02 0.02 0.02 0.02 0.02 0.02 0.02 0.02 0.02 0.02 0.02 0.01 0.01 0.01 0.01 0.01 0.01 0.01 0.01 0.01 0.00 0.00 0.01 0.03 0.05 0.08 0.14 0.17 0.15 0.15 0.14 0.15 0.24
0.00 0.00 0.00 0.00 0.00 0.00 0.00 0.01 0.01 0.02 0.02 0.02 0.01 0.02 0.01 0.02 0.02 0.02 0.03 0.02 0.02 0.02 0.01 0.01 0.01 0.01 0.01 0.01 0.01 0.01 0.00 0.00 0.00 0.00 0.01 0.03 0.06 0.13 0.17 0.17 0.18 0.17 0.17
0.00 0.00 0.00 0.00 0.00 0.00 0.01 0.01 0.01 0.02 0.02 0.02 0.02 0.01 0.01 0.01 0.01 0.02 0.02 0.02 0.02 0.02 0.01 0.01 0.01 0.01 0.01 0.01 0.01 0.01 0.00 0.00 0.00 0.00 0.00 0.01 0.02 0.04 0.11 0.15 0.18 0.18 0.16
0.00 0.00 0.00 0.00 0.00 0.00 0.01 0.01 0.02 0.02 0.02 0.02 0.01 0.01 0.01 0.01 0.01 0.01 0.02 0.02 0.02 0.02 0.02 0.02 0.02 0.02 0.02 0.02 0.03 0.02 0.00 0.00 0.00 0.00 0.00 0.00 0.01 0.01 0.04 0.08 0.15 0.20 0.19
0.00 0.00 0.00 0.00 0.00 0.00 0.00 0.00 0.01 0.01 0.01 0.01 0.01 0.01 0.01 0.01 0.01 0.01 0.01 0.02 0.02 0.02 0.02 0.02 0.02 0.03 0.03 0.02 0.06 0.10 0.05 0.01 0.00 0.00 0.00 0.00 0.00 0.01 0.02 0.04 0.08 0.15 0.20
0.00 0.00 0.00 0.00 0.00 0.00 0.00 0.00 0.00 0.01 0.01 0.01 0.01 0.01 0.01 0.01 0.01 0.01 0.01 0.01 0.01 0.01 0.01 0.01 0.02 0.03 0.04 0.02 0.04 0.19 0.29 0.16 0.05 0.01 0.00 0.01 0.01 0.01 0.01 0.02 0.05 0.08 0.14
0.00 0.00 0.00 0.00 0.00 0.00 0.00 0.00 0.00 0.00 0.00 0.00 0.00 0.00 0.00 0.00 0.00 0.00 0.01 0.01 0.01 0.01 0.01 0.01 0.01 0.03 0.07 0.08 0.05 0.08 0.19 0.25 0.29 0.14 0.02 0.02 0.03 0.03 0.02 0.02 0.03 0.05 0.08
0.00 0.00 0.00 0.00 0.00 0.00 0.00 0.00 0.00 0.00 0.00 0.00 0.00 0.00 0.00 0.00 0.00 0.01 0.01 0.01 0.01 0.01 0.01 0.01 0.02 0.03 0.07 0.12 0.13 0.11 0.10 0.10 0.15 0.25 0.12 0.03 0.04 0.04 0.04 0.03 0.03 0.04 0.05
0.00 0.00 0.00 0.00 0.00 0.00 0.00 0.00 0.00 0.00 0.00 0.00 0.00 0.00 0.01 0.01 0.01 0.01 0.01 0.00 0.00 0.01 0.01 0.02 0.03 0.04 0.06 0.09 0.11 0.13 0.17 0.19 0.16 0.21 0.20 0.07 0.03 0.03 0.04 0.04 0.05 0.07 0.09

GEFSSE_prec_meanprecacc_114.txt.gz
Total_Precipitation_Accumulation
0.03 0.06 0.11 0.13 0.12 0.12 0.15 0.17 0.16 0.13 0.11 0.12 0.13 0.14 0.16 0.17 0.16 0.16 0.16 0.17 0.18 0.19 0.19 0.19 0.18 0.18 0.18 0.18 0.18 0.19 0.18 0.18 0.19 0.19 0.22 0.26 0.27 0.24 0.21 0.20 0.15 0.21 0.30
0.05 0.08 0.10 0.10 0.10 0.11 0.13 0.12 0.12 0.09 0.09 0.10 0.09 0.09 0.10 0.11 0.13 0.14 0.15 0.16 0.17 0.18 0.18 0.19 0.18 0.17 0.14 0.16 0.19 0.18 0.16 0.14 0.13 0.14 0.14 0.15 0.23 0.25 0.21 0.23 0.23 0.34 0.38
0.04 0.07 0.09 0.09 0.09 0.10 0.11 0.10 0.09 0.07 0.07 0.07 0.07 0.07 0.07 0.08 0.08 0.09 0.11 0.12 0.13 0.13 0.15 0.16 0.19 0.17 0.12 0.13 0.17 0.18 0.17 0.15 0.12 0.10 0.09 0.10 0.19 0.25 0.25 0.25 0.26 0.38 0.39
0.02 0.04 0.06 0.09 0.09 0.10 0.10 0.10 0.08 0.06 0.06 0.05 0.05 0.05 0.05 0.05 0.06 0.07 0.08 0.09 0.10 0.12 0.14 0.15 0.16 0.17 0.13 0.13 0.14 0.15 0.15 0.14 0.10 0.07 0.02 0.05 0.22 0.35 0.35 0.30 0.26 0.35 0.37
0.01 0.02 0.05 0.08 0.10 0.11 0.11 0.10 0.08 0.06 0.06 0.06 0.05 0.05 0.04 0.04 0.04 0.05 0.04 0.04 0.05 0.07 0.10 0.12 0.15 0.17 0.16 0.14 0.13 0.14 0.16 0.15 0.10 0.04 0.01 0.07 0.24 0.37 0.34 0.30 0.27 0.31 0.35
0.02 0.02 0.05 0.07 0.10 0.11 0.12 0.11 0.08 0.07 0.06 0.05 0.05 0.04 0.05 0.05 0.05 0.04 0.03 0.03 0.03 0.04 0.07 0.10 0.15 0.20 0.16 0.13 0.16 0.19 0.25 0.22 0.11 0.03 0.02 0.07 0.16 0.29 0.34 0.37 0.36 0.31 0.31
0.03 0.04 0.05 0.05 0.08 0.10 0.11 0.10 0.08 0.07 0.06 0.05 0.04 0.04 0.04 0.04 0.04 0.05 0.05 0.04 0.03 0.03 0.05 0.07 0.11 0.20 0.19 0.18 0.23 0.26 0.32 0.25 0.12 0.11 0.06 0.04 0.10 0.25 0.41 0.46 0.43 0.34 0.31
0.00 0.00 0.01 0.02 0.05 0.07 0.09 0.09 0.07 0.06 0.06 0.06 0.05 0.05 0.04 0.03 0.04 0.07 0.09 0.08 0.06 0.05 0.06 0.06 0.07 0.13 0.17 0.20 0.24 0.27 0.29 0.17 0.12 0.22 0.18 0.14 0.19 0.35 0.45 0.63 0.58 0.44 0.37
0.00 0.00 0.00 0.01 0.03 0.05 0.07 0.07 0.07 0.06 0.06 0.05 0.04 0.04 0.03 0.03 0.04 0.07 0.08 0.07 0.06 0.06 0.07 0.05 0.04 0.06 0.11 0.15 0.18 0.21 0.21 0.13 0.12 0.31 0.31 0.39 0.30 0.37 0.43 0.59 0.66 0.55 0.44
0.00 0.00 0.00 0.00 0.01 0.02 0.04 0.05 0.05 0.05 0.06 0.06 0.06 0.04 0.04 0.04 0.06 0.08 0.06 0.06 0.06 0.07 0.07 0.06 0.05 0.04 0.04 0.05 0.08 0.09 0.09 0.05 0.06 0.22 0.48 0.46 0.34 0.49 0.56 0.59 0.64 0.61 0.56
0.00 0.00 0.00 0.00 0.00 0.01 0.02 0.03 0.04 0.04 0.05 0.06 0.08 0.07 0.05 0.05 0.04 0.04 0.03 0.05 0.05 0.05 0.04 0.05 0.06 0.06 0.04 0.02 0.02 0.03 0.03 0.00 0.04 0.16 0.28 0.30 0.38 0.51 0.68 0.71 0.71 0.67 0.60
0.00 0.00 0.00 0.00 0.00 0.00 0.01 0.02 0.03 0.03 0.03 0.03 0.04 0.04 0.04 0.05 0.05 0.06 0.06 0.07 0.06 0.05 0.06 0.08 0.07 0.06 0.04 0.03 0.06 0.08 0.03 0.01 0.01 0.03 0.08 0.13 0.26 0.42 0.57 0.71 0.83 0.81 0.70
0.00 0.00 0.00 0.00 0.00 0.00 0.01 0.01 0.01 0.02 0.03 0.02 0.02 0.01 0.02 0.03 0.03 0.04 0.05 0.06 0.07 0.08 0.10 0.11 0.11 0.10 0.11 0.12 0.14 0.14 0.09 0.06 0.04 0.03 0.03 0.07 0.13 0.22 0.39 0.58 0.79 0.91 0.88
0.00 0.00 0.00 0.00 0.00 0.00 0.00 0.01 0.01 0.01 0.02 0.02 0.02 0.01 0.01 0.02 0.01 0.01 0.02 0.03 0.04 0.06 0.09 0.14 0.15 0.16 0.13 0.13 0.13 0.13 0.13 0.13 0.08 0.07 0.05 0.08 0.10 0.09 0.17 0.33 0.56 0.85 1.00
0.00 0.00 0.00 0.00 0.01 0.01 0.00 0.01 0.01 0.01 0.01 0.02 0.02 0.02 0.02 0.02 0.02 0.01 0.01 0.01 0.01 0.01 0.02 0.03 0.05 0.08 0.09 0.09 0.11 0.11 0.12 0.11 0.09 0.10 0.09 0.10 0.10 0.09 0.10 0.17 0.34 0.66 0.97
0.00 0.00 0.00 0.00 0.00 0.01 0.00 0.01 0.01 0.01 0.01 0.02 0.02 0.02 0.02 0.02 0.02 0.02 0.01 0.01 0.01 0.01 0.01 0.01 0.01 0.02 0.03 0.03 0.04 0.05 0.07 0.08 0.08 0.11 0.12 0.14 0.13 0.11 0.10 0.11 0.19 0.38 0.72
0.00 0.00 0.00 0.00 0.00 0.01 0.01 0.01 0.01 0.01 0.01 0.02 0.02 0.02 0.02 0.02 0.02 0.02 0.02 0.02 0.01 0.01 0.01 0.00 0.01 0.01 0.01 0.01 0.01 0.01 0.02 0.03 0.05 0.07 0.09 0.13 0.17 0.15 0.13 0.12 0.13 0.21 0.40
0.00 0.00 0.00 0.00 0.00 0.00 0.01 0.01 0.01 0.01 0.02 0.02 0.02 0.02 0.02 0.02 0.02 0.02 0.02 0.02 0.02 0.01 0.01 0.01 0.01 0.01 0.01 0.01 0.01 0.01 0.00 0.00 0.01 0.03 0.05 0.08 0.14 0.17 0.15 0.15 0.14 0.15 0.24
0.00 0.00 0.00 0.00 0.00 0.00 0.00 0.01 0.01 0.02 0.02 0.02 0.01 0.02 0.02 0.02 0.02 0.02 0.03 0.03 0.02 0.02 0.01 0.01 0.01 0.01 0.01 0.01 0.01 0.01 0.00 0.00 0.00 0.00 0.01 0.03 0.06 0.13 0.17 0.17 0.18 0.17 0.17
0.00 0.00 0.00 0.00 0.00 0.00 0.01 0.01 0.01 0.02 0.02 0.02 0.02 0.01 0.01 0.01 0.01 0.02 0.03 0.02 0.02 0.02 0.01 0.01 0.01 0.01 0.01 0.01 0.01 0.01 0.00 0.00 0.00 0.00 0.00 0.01 0.02 0.04 0.11 0.15 0.18 0.18 0.16
0.00 0.00 0.00 0.00 0.00 0.00 0.01 0.01 0.02 0.02 0.02 0.02 0.01 0.01 0.01 0.01 0.01 0.01 0.02 0.02 0.02 0.02 0.02 0.02 0.02 0.02 0.02 0.02 0.03 0.02 0.01 0.00 0.00 0.00 0.00 0.00 0.01 0.01 0.04 0.08 0.15 0.20 0.19
0.00 0.00 0.00 0.00 0.00 0.00 0.00 0.00 0.01 0.01 0.01 0.01 0.01 0.01 0.01 0.01 0.01 0.01 0.02 0.02 0.02 0.02 0.02 0.02 0.02 0.03 0.03 0.02 0.06 0.10 0.05 0.01 0.00 0.00 0.00 0.00 0.00 0.01 0.02 0.04 0.08 0.15 0.20
0.00 0.00 0.00 0.00 0.00 0.00 0.00 0.00 0.00 0.01 0.01 0.01 0.01 0.01 0.01 0.01 0.01 0.01 0.01 0.01 0.01 0.01 0.01 0.01 0.02 0.03 0.04 0.02 0.04 0.19 0.29 0.16 0.05 0.01 0.00 0.01 0.01 0.01 0.01 0.02 0.05 0.08 0.14
0.00 0.00 0.00 0.00 0.00 0.00 0.00 0.00 0.00 0.00 0.01 0.00 0.01 0.01 0.01 0.01 0.00 0.01 0.01 0.01 0.01 0.01 0.01 0.01 0.02 0.03 0.07 0.08 0.05 0.08 0.19 0.25 0.29 0.14 0.02 0.02 0.03 0.03 0.02 0.02 0.03 0.05 0.08
0.00 0.00 0.00 0.00 0.00 0.00 0.00 0.00 0.00 0.00 0.00 0.00 0.00 0.00 0.01 0.01 0.01 0.01 0.01 0.01 0.01 0.01 0.01 0.02 0.02 0.04 0.07 0.12 0.13 0.11 0.10 0.10 0.15 0.25 0.12 0.03 0.04 0.04 0.04 0.03 0.03 0.04 0.05
0.00 0.00 0.00 0.00 0.00 0.00 0.00 0.00 0.00 0.00 0.00 0.00 0.00 0.01 0.01 0.01 0.01 0.01 0.01 0.01 0.01 0.01 0.02 0.02 0.03 0.05 0.06 0.09 0.11 0.13 0.17 0.19 0.16 0.21 0.20 0.07 0.03 0.03 0.04 0.04 0.05 0.07 0.09

GEFSSE_prec_meanprecacc_120.txt.gz
Total_Precipitation_Accumulation
0.03 0.06 0.12 0.14 0.14 0.14 0.17 0.17 0.16 0.13 0.11 0.12 0.14 0.15 0.17 0.17 0.16 0.16 0.16 0.18 0.19 0.19 0.20 0.20 0.19 0.19 0.19 0.19 0.19 0.19 0.18 0.18 0.19 0.20 0.22 0.27 0.28 0.25 0.22 0.20 0.15 0.22 0.31
0.05 0.08 0.11 0.12 0.13 0.14 0.14 0.13 0.12 0.09 0.09 0.11 0.10 0.09 0.11 0.12 0.13 0.15 0.15 0.16 0.18 0.19 0.19 0.20 0.19 0.17 0.15 0.16 0.19 0.19 0.17 0.14 0.13 0.14 0.14 0.15 0.24 0.26 0.21 0.23 0.23 0.35 0.39
0.04 0.07 0.10 0.11 0.11 0.13 0.12 0.11 0.09 0.07 0.07 0.07 0.07 0.07 0.08 0.08 0.09 0.10 0.12 0.13 0.14 0.14 0.15 0.17 0.19 0.17 0.13 0.13 0.18 0.18 0.17 0.15 0.12 0.10 0.09 0.10 0.19 0.26 0.26 0.26 0.27 0.39 0.39
0.02 0.04 0.07 0.10 0.12 0.12 0.11 0.10 0.08 0.07 0.06 0.06 0.06 0.06 0.06 0.06 0.06 0.07 0.09 0.09 0.10 0.13 0.15 0.15 0.16 0.17 0.13 0.13 0.14 0.15 0.15 0.14 0.10 0.07 0.02 0.05 0.23 0.35 0.35 0.30 0.26 0.35 0.37
0.01 0.02 0.05 0.10 0.11 0.13 0.12 0.11 0.08 0.07 0.07 0.06 0.05 0.05 0.05 0.05 0.05 0.05 0.05 0.05 0.06 0.08 0.10 0.12 0.15 0.17 0.16 0.14 0.13 0.15 0.16 0.15 0.10 0.04 0.01 0.07 0.24 0.37 0.34 0.30 0.27 0.32 0.35
0.02 0.02 0.05 0.08 0.11 0.13 0.13 0.12 0.08 0.07 0.07 0.05 0.05 0.05 0.05 0.05 0.05 0.04 0.04 0.03 0.03 0.05 0.07 0.10 0.16 0.20 0.16 0.14 0.17 0.19 0.25 0.22 0.11 0.03 0.02 0.07 0.16 0.29 0.34 0.37 0.36 0.32 0.31
0.03 0.04 0.05 0.06 0.10 0.12 0.12 0.11 0.08 0.07 0.07 0.05 0.04 0.04 0.05 0.05 0.04 0.05 0.05 0.04 0.04 0.03 0.05 0.07 0.12 0.20 0.19 0.18 0.23 0.26 0.32 0.25 0.12 0.11 0.06 0.04 0.11 0.25 0.41 0.47 0.43 0.35 0.31
0.00 0.00 0.01 0.04 0.07 0.08 0.10 0.10 0.08 0.07 0.06 0.06 0.05 0.05 0.04 0.04 0.04 0.07 0.09 0.08 0.06 0.05 0.06 0.06 0.07 0.13 0.17 0.20 0.24 0.28 0.29 0.17 0.12 0.22 0.18 0.14 0.19 0.35 0.46 0.63 0.59 0.44 0.38
0.00 0.00 0.00 0.02 0.04 0.06 0.08 0.08 0.08 0.07 0.06 0.05 0.04 0.04 0.03 0.03 0.04 0.07 0.08 0.07 0.06 0.06 0.07 0.06 0.04 0.06 0.11 0.15 0.18 0.22 0.21 0.13 0.12 0.31 0.31 0.39 0.30 0.37 0.43 0.60 0.67 0.56 0.46
0.00 0.00 0.00 0.01 0.02 0.03 0.04 0.06 0.06 0.06 0.06 0.06 0.06 0.04 0.04 0.04 0.06 0.08 0.06 0.06 0.06 0.07 0.07 0.06 0.05 0.04 0.04 0.05 0.08 0.09 0.09 0.05 0.06 0.22 0.48 0.46 0.34 0.49 0.56 0.59 0.65 0.61 0.57
0.00 0.00 0.00 0.01 0.01 0.01 0.02 0.04 0.05 0.05 0.05 0.06 0.08 0.07 0.05 0.05 0.04 0.04 0.03 0.05 0.05 0.05 0.05 0.05 0.06 0.06 0.05 0.02 0.02 0.03 0.03 0.00 0.04 0.16 0.28 0.30 0.38 0.51 0.68 0.72 0.72 0.67 0.61
0.00 0.00 0.00 0.00 0.00 0.01 0.01 0.02 0.03 0.03 0.04 0.03 0.04 0.04 0.04 0.05 0.05 0.06 0.06 0.07 0.07 0.05 0.06 0.08 0.08 0.07 0.05 0.03 0.06 0.08 0.03 0.01 0.01 0.03 0.08 0.13 0.26 0.42 0.57 0.72 0.84 0.82 0.71
0.00 0.00 0.00 0.00 0.00 0.00 0.01 0.01 0.02 0.02 0.03 0.02 0.02 0.01 0.02 0.03 0.03 0.04 0.05 0.06 0.07 0.08 0.10 0.11 0.11 0.10 0.11 0.12 0.14 0.14 0.09 0.06 0.04 0.03 0.03 0.07 0.13 0.22 0.39 0.58 0.79 0.92 0.90
0.00 0.00 0.00 0.00 0.01 0.00 0.00 0.01 0.01 0.01 0.02 0.02 0.02 0.01 0.01 0.02 0.01 0.01 0.02 0.03 0.04 0.06 0.09 0.14 0.15 0.16 0.13 0.13 0.13 0.13 0.13 0.13 0.08 0.07 0.05 0.08 0.10 0.09 0.17 0.34 0.57 0.86 1.01
0.00 0.00 0.00 0.00 0.01 0.01 0.00 0.01 0.01 0.01 0.01 0.02 0.02 0.02 0.02 0.02 0.02 0.01 0.01 0.01 0.01 0.01 0.02 0.03 0.05 0.08 0.09 0.09 0.11 0.11 0.12 0.11 0.09 0.10 0.09 0.10 0.10 0.09 0.10 0.18 0.34 0.67 0.98
0.00 0.00 0.00 0.00 0.00 0.01 0.01 0.01 0.01 0.01 0.01 0.02 0.02 0.02 0.02 0.02 0.02 0.02 0.01 0.01 0.01 0.01 0.01 0.01 0.01 0.02 0.03 0.03 0.04 0.05 0.07 0.08 0.08 0.11 0.12 0.14 0.13 0.11 0.10 0.12 0.20 0.39 0.72
0.00 0.00 0.00 0.00 0.00 0.01 0.01 0.01 0.01 0.01 0.01 0.02 0.02 0.02 0.02 0.02 0.02 0.02 0.02 0.02 0.01 0.01 0.01 0.00 0.01 0.01 0.01 0.01 0.01 0.01 0.02 0.03 0.05 0.07 0.10 0.13 0.17 0.15 0.13 0.12 0.13 0.21 0.40
0.00 0.00 0.00 0.00 0.00 0.00 0.01 0.01 0.01 0.01 0.02 0.02 0.02 0.02 0.02 0.02 0.02 0.02 0.02 0.02 0.02 0.01 0.01 0.01 0.01 0.01 0.01 0.01 0.01 0.01 0.00 0.00 0.01 0.03 0.05 0.08 0.14 0.17 0.15 0.15 0.14 0.15 0.24
0.00 0.00 0.00 0.00 0.00 0.00 0.01 0.01 0.01 0.02 0.02 0.02 0.01 0.02 0.02 0.02 0.02 0.02 0.03 0.03 0.02 0.02 0.01 0.01 0.01 0.01 0.01 0.01 0.01 0.01 0.00 0.00 0.00 0.00 0.01 0.03 0.06 0.13 0.17 0.17 0.18 0.17 0.17
0.00 0.00 0.00 0.00 0.00 0.00 0.01 0.01 0.02 0.02 0.02 0.02 0.02 0.01 0.01 0.01 0.01 0.02 0.03 0.02 0.02 0.02 0.01 0.01 0.01 0.01 0.01 0.01 0.01 0.01 0.00 0.00 0.00 0.00 0.00 0.01 0.02 0.04 0.11 0.15 0.18 0.18 0.16
0.00 0.00 0.00 0.00 0.00 0.00 0.01 0.01 0.02 0.02 0.02 0.02 0.01 0.01 0.01 0.01 0.01 0.02 0.02 0.02 0.02 0.02 0.02 0.02 0.02 0.02 0.02 0.02 0.03 0.02 0.01 0.00 0.00 0.00 0.00 0.00 0.01 0.01 0.04 0.08 0.15 0.20 0.19
0.00 0.00 0.00 0.00 0.00 0.00 0.00 0.00 0.01 0.01 0.01 0.01 0.01 0.01 0.01 0.01 0.01 0.01 0.02 0.02 0.02 0.03 0.03 0.02 0.02 0.03 0.03 0.02 0.06 0.10 0.05 0.01 0.00 0.00 0.00 0.00 0.00 0.01 0.02 0.04 0.08 0.15 0.20
0.00 0.00 0.00 0.00 0.00 0.00 0.00 0.00 0.00 0.01 0.01 0.01 0.01 0.01 0.01 0.01 0.01 0.01 0.01 0.01 0.01 0.02 0.02 0.01 0.02 0.03 0.05 0.02 0.04 0.19 0.29 0.16 0.05 0.01 0.00 0.01 0.01 0.01 0.01 0.02 0.05 0.08 0.14
0.00 0.00 0.00 0.00 0.00 0.00 0.00 0.00 0.00 0.00 0.01 0.00 0.01 0.01 0.01 0.01 0.01 0.01 0.01 0.01 0.01 0.01 0.01 0.02 0.02 0.03 0.07 0.08 0.05 0.08 0.19 0.25 0.29 0.14 0.02 0.02 0.03 0.03 0.02 0.02 0.03 0.05 0.08
0.00 0.00 0.00 0.00 0.00 0.00 0.00 0.00 0.00 0.00 0.00 0.00 0.00 0.01 0.01 0.01 0.01 0.01 0.01 0.01 0.01 0.01 0.02 0.02 0.02 0.04 0.07 0.12 0.13 0.11 0.10 0.10 0.16 0.25 0.12 0.03 0.04 0.04 0.04 0.03 0.03 0.04 0.05
0.00 0.00 0.00 0.00 0.00 0.00 0.00 0.00 0.00 0.00 0.00 0.00 0.00 0.01 0.01 0.01 0.02 0.01 0.01 0.01 0.01 0.01 0.02 0.02 0.03 0.05 0.06 0.09 0.12 0.14 0.17 0.20 0.16 0.21 0.20 0.07 0.03 0.03 0.04 0.04 0.05 0.07 0.09

GEFSSE_prec_meanprecacc_126.txt.gz
Total_Precipitation_Accumulation
0.03 0.06 0.14 0.16 0.15 0.15 0.18 0.18 0.17 0.14 0.12 0.13 0.15 0.16 0.17 0.18 0.17 0.17 0.17 0.18 0.19 0.20 0.21 0.21 0.20 0.20 0.19 0.19 0.19 0.19 0.18 0.18 0.19 0.20 0.23 0.27 0.28 0.25 0.22 0.20 0.15 0.22 0.31
0.05 0.08 0.13 0.13 0.14 0.15 0.15 0.14 0.12 0.10 0.10 0.11 0.10 0.10 0.12 0.13 0.14 0.15 0.16 0.17 0.19 0.19 0.20 0.20 0.20 0.18 0.16 0.17 0.20 0.19 0.17 0.14 0.13 0.14 0.14 0.15 0.24 0.27 0.22 0.24 0.24 0.35 0.39
0.04 0.07 0.11 0.12 0.13 0.14 0.13 0.11 0.09 0.08 0.07 0.08 0.08 0.07 0.08 0.09 0.09 0.10 0.12 0.13 0.14 0.14 0.15 0.17 0.19 0.18 0.13 0.14 0.18 0.18 0.17 0.15 0.12 0.10 0.09 0.10 0.19 0.26 0.26 0.26 0.27 0.39 0.39
0.02 0.04 0.07 0.11 0.13 0.14 0.12 0.11 0.08 0.07 0.06 0.06 0.06 0.06 0.06 0.07 0.07 0.08 0.09 0.10 0.11 0.13 0.15 0.15 0.16 0.17 0.14 0.13 0.14 0.15 0.15 0.14 0.10 0.07 0.03 0.05 0.23 0.35 0.35 0.30 0.26 0.35 0.37
0.01 0.02 0.06 0.11 0.13 0.14 0.13 0.11 0.08 0.07 0.07 0.07 0.06 0.05 0.05 0.06 0.06 0.06 0.06 0.05 0.06 0.08 0.10 0.12 0.15 0.17 0.16 0.14 0.13 0.15 0.16 0.15 0.10 0.04 0.01 0.07 0.25 0.38 0.34 0.31 0.27 0.32 0.35
0.02 0.02 0.06 0.10 0.13 0.14 0.14 0.12 0.09 0.07 0.07 0.06 0.05 0.05 0.06 0.06 0.06 0.05 0.05 0.04 0.03 0.05 0.07 0.11 0.16 0.20 0.16 0.14 0.17 0.19 0.25 0.22 0.11 0.03 0.02 0.07 0.16 0.29 0.34 0.37 0.36 0.32 0.31
0.03 0.04 0.06 0.08 0.12 0.13 0.13 0.11 0.08 0.07 0.07 0.06 0.05 0.05 0.05 0.05 0.05 0.05 0.06 0.05 0.04 0.04 0.05 0.07 0.12 0.20 0.19 0.18 0.23 0.26 0.32 0.25 0.12 0.11 0.06 0.04 0.11 0.26 0.42 0.47 0.44 0.36 0.32
0.00 0.01 0.02 0.06 0.09 0.10 0.12 0.11 0.08 0.07 0.07 0.06 0.05 0.05 0.04 0.04 0.05 0.07 0.09 0.08 0.06 0.05 0.06 0.06 0.07 0.13 0.17 0.20 0.24 0.28 0.29 0.17 0.12 0.22 0.18 0.14 0.19 0.36 0.47 0.64 0.60 0.46 0.39
0.00 0.00 0.01 0.04 0.06 0.08 0.09 0.09 0.08 0.07 0.06 0.06 0.05 0.04 0.04 0.04 0.04 0.07 0.08 0.07 0.06 0.06 0.07 0.06 0.04 0.06 0.11 0.16 0.18 0.22 0.21 0.13 0.12 0.31 0.31 0.39 0.30 0.38 0.44 0.60 0.67 0.57 0.46
0.00 0.00 0.01 0.02 0.03 0.05 0.06 0.07 0.07 0.07 0.06 0.07 0.06 0.04 0.04 0.04 0.06 0.08 0.06 0.06 0.06 0.07 0.07 0.06 0.06 0.04 0.04 0.05 0.08 0.09 0.09 0.05 0.06 0.22 0.48 0.46 0.34 0.49 0.56 0.59 0.65 0.62 0.58
0.00 0.00 0.01 0.01 0.02 0.03 0.04 0.05 0.06 0.06 0.06 0.07 0.08 0.07 0.05 0.05 0.04 0.04 0.03 0.05 0.05 0.05 0.05 0.06 0.06 0.06 0.05 0.02 0.02 0.03 0.03 0.00 0.04 0.16 0.28 0.30 0.38 0.52 0.69 0.73 0.73 0.68 0.63
0.00 0.01 0.01 0.01 0.01 0.02 0.02 0.04 0.04 0.04 0.04 0.03 0.04 0.04 0.05 0.05 0.05 0.06 0.06 0.08 0.07 0.05 0.06 0.08 0.08 0.07 0.05 0.03 0.06 0.08 0.03 0.01 0.01 0.03 0.08 0.13 0.26 0.42 0.58 0.73 0.85 0.83 0.73
0.00 0.00 0.00 0.01 0.01 0.01 0.02 0.02 0.03 0.03 0.03 0.03 0.02 0.01 0.02 0.03 0.03 0.04 0.05 0.06 0.07 0.08 0.10 0.11 0.11 0.11 0.11 0.12 0.14 0.14 0.10 0.06 0.04 0.03 0.03 0.07 0.13 0.22 0.40 0.60 0.81 0.93 0.91
0.00 0.00 0.00 0.01 0.01 0.01 0.01 0.01 0.02 0.02 0.02 0.02 0.02 0.01 0.01 0.02 0.02 0.01 0.02 0.03 0.04 0.07 0.09 0.14 0.15 0.16 0.13 0.13 0.13 0.13 0.13 0.13 0.08 0.07 0.05 0.08 0.10 0.10 0.18 0.35 0.58 0.87 1.02
0.00 0.00 0.00 0.00 0.01 0.01 0.01 0.01 0.01 0.01 0.02 0.02 0.02 0.02 0.02 0.02 0.02 0.01 0.01 0.01 0.01 0.02 0.02 0.03 0.05 0.08 0.09 0.09 0.11 0.11 0.12 0.11 0.09 0.10 0.09 0.10 0.10 0.09 0.10 0.18 0.35 0.67 0.98
0.00 0.00 0.00 0.00 0.01 0.01 0.01 0.01 0.01 0.01 0.01 0.02 0.02 0.02 0.02 0.02 0.02 0.02 0.01 0.01 0.01 0.01 0.01 0.01 0.01 0.02 0.03 0.03 0.04 0.05 0.07 0.08 0.08 0.11 0.12 0.14 0.13 0.11 0.10 0.12 0.20 0.39 0.73
0.00 0.00 0.00 0.00 0.00 0.01 0.01 0.01 0.01 0.01 0.02 0.02 0.02 0.02 0.02 0.02 0.02 0.02 0.02 0.02 0.01 0.01 0.01 0.01 0.01 0.01 0.01 0.01 0.01 0.01 0.02 0.03 0.05 0.08 0.10 0.13 0.17 0.15 0.13 0.12 0.13 0.21 0.40
0.00 0.00 0.00 0.00 0.00 0.01 0.01 0.01 0.02 0.02 0.02 0.02 0.02 0.02 0.02 0.02 0.02 0.02 0.02 0.02 0.02 0.02 0.01 0.01 0.01 0.01 0.01 0.01 0.01 0.01 0.00 0.01 0.01 0.03 0.05 0.08 0.14 0.17 0.15 0.15 0.14 0.15 0.24
0.00 0.00 0.00 0.00 0.00 0.00 0.01 0.01 0.02 0.02 0.02 0.02 0.02 0.02 0.02 0.02 0.02 0.02 0.03 0.03 0.02 0.02 0.01 0.01 0.01 0.01 0.01 0.01 0.01 0.01 0.00 0.00 0.00 0.00 0.01 0.03 0.06 0.13 0.17 0.17 0.18 0.17 0.17
0.00 0.00 0.00 0.00 0.00 0.00 0.01 0.02 0.02 0.02 0.02 0.02 0.02 0.01 0.01 0.01 0.01 0.02 0.03 0.02 0.02 0.02 0.02 0.01 0.02 0.01 0.02 0.02 0.01 0.01 0.00 0.00 0.00 0.00 0.00 0.01 0.02 0.05 0.11 0.15 0.18 0.18 0.16
0.00 0.00 0.00 0.00 0.00 0.01 0.01 0.02 0.02 0.02 0.02 0.02 0.02 0.01 0.01 0.01 0.01 0.02 0.02 0.02 0.02 0.02 0.02 0.02 0.02 0.02 0.02 0.02 0.03 0.02 0.01 0.00 0.00 0.00 0.00 0.00 0.01 0.01 0.04 0.08 0.15 0.20 0.19
0.00 0.00 0.00 0.00 0.00 0.00 0.00 0.00 0.01 0.01 0.01 0.01 0.01 0.01 0.01 0.01 0.01 0.01 0.02 0.02 0.02 0.03 0.03 0.03 0.03 0.03 0.03 0.02 0.06 0.11 0.05 0.01 0.00 0.00 0.00 0.00 0.00 0.01 0.02 0.04 0.08 0.15 0.20
0.00 0.00 0.00 0.00 0.00 0.00 0.00 0.00 0.01 0.01 0.01 0.01 0.02 0.01 0.01 0.01 0.01 0.01 0.01 0.01 0.01 0.02 0.02 0.02 0.02 0.03 0.05 0.02 0.05 0.19 0.29 0.17 0.05 0.01 0.00 0.01 0.01 0.01 0.01 0.02 0.05 0.08 0.14
0.00 0.00 0.00 0.00 0.00 0.00 0.00 0.00 0.00 0.01 0.01 0.00 0.01 0.01 0.01 0.01 0.01 0.01 0.01 0.01 0.01 0.01 0.02 0.02 0.02 0.03 0.07 0.08 0.05 0.08 0.19 0.26 0.29 0.14 0.02 0.02 0.03 0.03 0.02 0.02 0.03 0.05 0.08
0.00 0.00 0.00 0.00 0.00 0.00 0.00 0.00 0.00 0.00 0.00 0.00 0.00 0.01 0.01 0.01 0.01 0.01 0.01 0.01 0.01 0.01 0.02 0.02 0.03 0.04 0.07 0.12 0.13 0.11 0.10 0.10 0.16 0.25 0.12 0.03 0.04 0.04 0.04 0.03 0.03 0.04 0.05
0.00 0.00 0.00 0.00 0.00 0.00 0.00 0.00 0.00 0.00 0.00 0.00 0.00 0.01 0.01 0.02 0.02 0.02 0.01 0.02 0.01 0.02 0.02 0.03 0.04 0.05 0.07 0.09 0.12 0.14 0.17 0.20 0.16 0.22 0.21 0.07 0.03 0.03 0.04 0.04 0.05 0.07 0.09

GEFSSE_prec_meanprecacc_132.txt.gz
Total_Precipitation_Accumulation
0.03 0.06 0.14 0.16 0.15 0.15 0.18 0.19 0.18 0.15 0.13 0.14 0.16 0.18 0.19 0.19 0.19 0.18 0.18 0.19 0.20 0.21 0.22 0.22 0.21 0.20 0.20 0.20 0.20 0.19 0.18 0.18 0.19 0.20 0.23 0.27 0.29 0.26 0.22 0.21 0.15 0.22 0.31
0.05 0.08 0.13 0.14 0.14 0.15 0.16 0.15 0.13 0.11 0.11 0.12 0.11 0.11 0.13 0.14 0.15 0.16 0.17 0.17 0.19 0.20 0.20 0.21 0.20 0.19 0.16 0.17 0.20 0.19 0.17 0.14 0.13 0.14 0.14 0.15 0.24 0.27 0.22 0.24 0.24 0.35 0.39
0.04 0.07 0.11 0.13 0.13 0.15 0.14 0.12 0.10 0.08 0.08 0.09 0.08 0.08 0.09 0.10 0.10 0.11 0.13 0.14 0.15 0.15 0.16 0.18 0.20 0.18 0.13 0.14 0.18 0.18 0.17 0.15 0.12 0.10 0.09 0.10 0.19 0.26 0.26 0.26 0.27 0.39 0.40
0.02 0.04 0.08 0.12 0.14 0.15 0.13 0.11 0.09 0.08 0.07 0.07 0.07 0.07 0.07 0.07 0.08 0.09 0.10 0.10 0.11 0.13 0.15 0.15 0.17 0.17 0.14 0.14 0.14 0.15 0.15 0.14 0.10 0.07 0.03 0.05 0.23 0.35 0.35 0.30 0.27 0.36 0.38
0.01 0.02 0.06 0.11 0.14 0.15 0.14 0.12 0.09 0.08 0.08 0.08 0.07 0.06 0.06 0.06 0.07 0.06 0.06 0.06 0.06 0.08 0.10 0.12 0.16 0.17 0.16 0.14 0.13 0.15 0.16 0.15 0.10 0.04 0.01 0.07 0.25 0.38 0.34 0.31 0.27 0.32 0.35
0.02 0.02 0.06 0.10 0.14 0.15 0.15 0.12 0.09 0.08 0.08 0.06 0.06 0.06 0.07 0.07 0.07 0.06 0.05 0.04 0.04 0.05 0.08 0.11 0.16 0.20 0.16 0.14 0.17 0.19 0.25 0.22 0.11 0.03 0.02 0.07 0.17 0.30 0.35 0.38 0.37 0.33 0.32
0.03 0.04 0.06 0.09 0.14 0.14 0.14 0.12 0.09 0.08 0.07 0.06 0.06 0.06 0.06 0.06 0.05 0.06 0.06 0.05 0.04 0.04 0.05 0.08 0.12 0.20 0.19 0.18 0.23 0.26 0.32 0.25 0.12 0.11 0.06 0.04 0.11 0.27 0.43 0.48 0.45 0.37 0.33
0.00 0.01 0.02 0.07 0.10 0.11 0.13 0.11 0.09 0.08 0.07 0.07 0.06 0.06 0.05 0.05 0.06 0.08 0.10 0.08 0.07 0.06 0.06 0.06 0.08 0.13 0.17 0.20 0.24 0.28 0.29 0.17 0.12 0.22 0.18 0.14 0.20 0.36 0.48 0.65 0.61 0.46 0.40
0.00 0.00 0.02 0.05 0.08 0.09 0.10 0.10 0.08 0.08 0.07 0.06 0.05 0.05 0.05 0.04 0.05 0.08 0.08 0.07 0.07 0.07 0.07 0.06 0.05 0.06 0.11 0.16 0.19 0.22 0.21 0.13 0.12 0.31 0.31 0.39 0.30 0.38 0.45 0.61 0.68 0.58 0.47
0.00 0.01 0.01 0.03 0.05 0.06 0.07 0.07 0.07 0.07 0.07 0.07 0.07 0.05 0.05 0.05 0.07 0.08 0.06 0.06 0.06 0.07 0.07 0.06 0.06 0.04 0.04 0.06 0.08 0.09 0.09 0.05 0.06 0.22 0.48 0.46 0.34 0.50 0.58 0.61 0.66 0.63 0.59
0.00 0.01 0.01 0.02 0.04 0.05 0.05 0.05 0.06 0.07 0.06 0.07 0.08 0.07 0.06 0.05 0.05 0.04 0.03 0.05 0.06 0.05 0.05 0.06 0.07 0.06 0.05 0.02 0.02 0.03 0.03 0.00 0.04 0.16 0.28 0.30 0.38 0.53 0.71 0.74 0.74 0.69 0.64
0.00 0.01 0.01 0.02 0.03 0.04 0.04 0.04 0.05 0.05 0.05 0.04 0.04 0.05 0.05 0.06 0.06 0.07 0.06 0.08 0.07 0.05 0.07 0.08 0.08 0.07 0.05 0.03 0.06 0.08 0.03 0.01 0.01 0.03 0.08 0.13 0.26 0.42 0.60 0.74 0.86 0.83 0.73
0.00 0.00 0.01 0.01 0.02 0.03 0.03 0.03 0.04 0.04 0.04 0.03 0.02 0.02 0.02 0.03 0.03 0.05 0.05 0.06 0.07 0.08 0.11 0.11 0.11 0.11 0.11 0.12 0.14 0.14 0.10 0.06 0.04 0.03 0.03 0.07 0.13 0.22 0.41 0.61 0.81 0.93 0.91
0.00 0.00 0.00 0.01 0.02 0.02 0.02 0.02 0.03 0.03 0.03 0.03 0.02 0.01 0.02 0.02 0.02 0.01 0.02 0.03 0.04 0.07 0.10 0.14 0.15 0.16 0.14 0.13 0.13 0.13 0.13 0.13 0.08 0.07 0.05 0.08 0.10 0.10 0.18 0.36 0.59 0.87 1.02
0.00 0.00 0.00 0.01 0.02 0.02 0.02 0.02 0.02 0.02 0.02 0.02 0.02 0.02 0.02 0.02 0.02 0.01 0.01 0.01 0.02 0.02 0.02 0.04 0.05 0.08 0.09 0.09 0.11 0.11 0.12 0.11 0.09 0.10 0.09 0.10 0.10 0.09 0.11 0.19 0.35 0.67 0.99
0.00 0.00 0.00 0.00 0.01 0.02 0.02 0.02 0.02 0.02 0.02 0.02 0.02 0.02 0.02 0.02 0.02 0.02 0.02 0.01 0.01 0.01 0.01 0.01 0.01 0.02 0.03 0.03 0.04 0.05 0.07 0.08 0.08 0.11 0.12 0.14 0.13 0.11 0.10 0.12 0.20 0.39 0.73
0.00 0.00 0.00 0.00 0.01 0.01 0.01 0.01 0.02 0.02 0.02 0.02 0.02 0.02 0.02 0.02 0.02 0.02 0.02 0.02 0.01 0.01 0.01 0.01 0.01 0.01 0.01 0.01 0.01 0.01 0.02 0.03 0.05 0.08 0.10 0.13 0.17 0.15 0.13 0.12 0.13 0.21 0.40
0.00 0.00 0.00 0.00 0.01 0.01 0.01 0.02 0.02 0.02 0.03 0.02 0.02 0.02 0.02 0.02 0.02 0.02 0.02 0.02 0.02 0.02 0.02 0.02 0.02 0.01 0.02 0.01 0.01 0.01 0.01 0.01 0.01 0.03 0.05 0.08 0.14 0.17 0.15 0.15 0.14 0.15 0.24
0.00 0.00 0.00 0.00 0.00 0.01 0.01 0.02 0.02 0.02 0.03 0.02 0.02 0.02 0.02 0.02 0.02 0.02 0.03 0.03 0.02 0.02 0.02 0.02 0.01 0.01 0.02 0.01 0.01 0.01 0.01 0.00 0.00 0.00 0.01 0.03 0.06 0.13 0.17 0.17 0.18 0.17 0.17
0.00 0.00 0.00 0.00 0.00 0.01 0.02 0.02 0.03 0.03 0.03 0.02 0.02 0.02 0.01 0.01 0.01 0.02 0.03 0.02 0.02 0.02 0.02 0.02 0.02 0.02 0.02 0.02 0.01 0.01 0.00 0.00 0.00 0.00 0.00 0.01 0.02 0.05 0.11 0.15 0.18 0.18 0.16
0.00 0.00 0.00 0.00 0.00 0.01 0.02 0.02 0.03 0.03 0.02 0.02 0.02 0.01 0.01 0.01 0.01 0.02 0.02 0.02 0.02 0.03 0.02 0.02 0.02 0.02 0.02 0.02 0.03 0.02 0.01 0.00 0.00 0.00 0.00 0.00 0.01 0.01 0.04 0.08 0.15 0.20 0.19
0.00 0.00 0.00 0.00 0.00 0.00 0.01 0.01 0.01 0.01 0.02 0.02 0.02 0.01 0.01 0.01 0.01 0.02 0.02 0.02 0.03 0.03 0.03 0.03 0.03 0.03 0.03 0.03 0.06 0.11 0.06 0.01 0.00 0.00 0.00 0.00 0.00 0.01 0.02 0.04 0.08 0.15 0.20
0.00 0.00 0.00 0.00 0.00 0.00 0.00 0.00 0.01 0.01 0.02 0.02 0.02 0.02 0.01 0.01 0.01 0.01 0.01 0.02 0.02 0.02 0.02 0.02 0.02 0.04 0.05 0.03 0.05 0.20 0.29 0.17 0.05 0.01 0.00 0.01 0.01 0.01 0.01 0.02 0.05 0.08 0.14
0.00 0.00 0.00 0.00 0.00 0.00 0.00 0.00 0.01 0.01 0.01 0.01 0.01 0.01 0.01 0.01 0.01 0.01 0.01 0.01 0.01 0.01 0.02 0.02 0.02 0.03 0.07 0.09 0.05 0.08 0.19 0.26 0.29 0.14 0.02 0.02 0.03 0.03 0.02 0.02 0.03 0.05 0.08
0.00 0.00 0.00 0.00 0.00 0.00 0.00 0.00 0.00 0.00 0.00 0.00 0.00 0.01 0.01 0.01 0.01 0.01 0.01 0.01 0.01 0.01 0.02 0.02 0.03 0.04 0.08 0.12 0.13 0.12 0.10 0.10 0.16 0.26 0.12 0.03 0.04 0.04 0.04 0.03 0.03 0.04 0.05
0.00 0.00 0.00 0.00 0.00 0.00 0.00 0.00 0.00 0.00 0.00 0.00 0.01 0.01 0.01 0.02 0.02 0.02 0.02 0.02 0.02 0.02 0.02 0.03 0.04 0.05 0.07 0.09 0.12 0.14 0.18 0.20 0.16 0.22 0.21 0.07 0.03 0.03 0.04 0.04 0.05 0.07 0.09

GEFSSE_prec_meanprecacc_138.txt.gz
Total_Precipitation_Accumulation
0.03 0.06 0.15 0.17 0.16 0.16 0.19 0.20 0.19 0.16 0.14 0.16 0.17 0.19 0.20 0.20 0.20 0.19 0.19 0.20 0.21 0.22 0.23 0.24 0.22 0.21 0.20 0.20 0.20 0.20 0.19 0.19 0.20 0.20 0.23 0.28 0.29 0.26 0.23 0.21 0.15 0.22 0.32
0.05 0.08 0.14 0.15 0.15 0.16 0.17 0.16 0.15 0.12 0.12 0.13 0.13 0.12 0.14 0.15 0.16 0.17 0.17 0.18 0.20 0.20 0.21 0.22 0.21 0.19 0.16 0.17 0.20 0.19 0.17 0.15 0.13 0.14 0.15 0.15 0.24 0.27 0.23 0.24 0.24 0.35 0.39
0.04 0.07 0.12 0.14 0.14 0.16 0.15 0.13 0.11 0.09 0.09 0.10 0.09 0.09 0.10 0.11 0.11 0.12 0.13 0.15 0.16 0.16 0.17 0.18 0.20 0.18 0.13 0.14 0.18 0.18 0.17 0.15 0.12 0.10 0.09 0.10 0.19 0.27 0.27 0.27 0.28 0.40 0.40
0.02 0.04 0.08 0.13 0.15 0.16 0.14 0.12 0.10 0.09 0.08 0.08 0.08 0.08 0.08 0.08 0.08 0.10 0.11 0.11 0.12 0.14 0.16 0.16 0.17 0.17 0.14 0.14 0.14 0.15 0.15 0.14 0.10 0.07 0.03 0.05 0.23 0.36 0.36 0.31 0.28 0.36 0.39
0.01 0.02 0.07 0.12 0.15 0.16 0.15 0.13 0.10 0.09 0.09 0.09 0.08 0.07 0.07 0.07 0.08 0.07 0.07 0.06 0.07 0.08 0.10 0.12 0.16 0.17 0.16 0.14 0.13 0.15 0.16 0.15 0.10 0.04 0.01 0.07 0.25 0.39 0.36 0.32 0.28 0.34 0.37
0.02 0.03 0.07 0.11 0.15 0.17 0.16 0.13 0.10 0.09 0.09 0.08 0.07 0.07 0.07 0.08 0.08 0.06 0.05 0.04 0.04 0.05 0.08 0.11 0.16 0.20 0.16 0.14 0.17 0.19 0.25 0.22 0.11 0.03 0.02 0.07 0.17 0.31 0.36 0.39 0.38 0.35 0.34
0.03 0.04 0.07 0.10 0.15 0.16 0.15 0.13 0.10 0.09 0.09 0.07 0.07 0.06 0.07 0.07 0.06 0.06 0.06 0.05 0.04 0.04 0.06 0.08 0.12 0.20 0.19 0.18 0.23 0.26 0.32 0.25 0.12 0.11 0.06 0.04 0.12 0.28 0.45 0.49 0.46 0.38 0.35
0.00 0.01 0.03 0.09 0.12 0.13 0.14 0.12 0.10 0.09 0.08 0.08 0.07 0.07 0.06 0.06 0.06 0.08 0.10 0.09 0.07 0.06 0.06 0.06 0.08 0.13 0.17 0.20 0.24 0.28 0.29 0.17 0.12 0.22 0.18 0.14 0.21 0.38 0.49 0.66 0.62 0.48 0.41
0.00 0.01 0.02 0.06 0.09 0.11 0.12 0.11 0.09 0.08 0.07 0.07 0.06 0.06 0.05 0.05 0.06 0.08 0.09 0.07 0.07 0.07 0.07 0.06 0.05 0.06 0.11 0.16 0.19 0.22 0.21 0.13 0.12 0.31 0.31 0.39 0.31 0.41 0.47 0.63 0.70 0.59 0.48
0.00 0.01 0.02 0.04 0.06 0.07 0.09 0.09 0.08 0.08 0.07 0.08 0.07 0.05 0.05 0.05 0.07 0.09 0.07 0.07 0.07 0.07 0.07 0.07 0.06 0.04 0.04 0.06 0.08 0.09 0.09 0.05 0.06 0.22 0.48 0.46 0.35 0.52 0.60 0.62 0.68 0.64 0.60
0.01 0.01 0.02 0.03 0.04 0.05 0.06 0.06 0.07 0.07 0.07 0.08 0.09 0.07 0.06 0.05 0.05 0.05 0.04 0.05 0.06 0.05 0.05 0.06 0.07 0.06 0.05 0.02 0.02 0.03 0.03 0.00 0.04 0.16 0.28 0.31 0.39 0.54 0.72 0.75 0.74 0.70 0.64
0.01 0.01 0.02 0.02 0.03 0.05 0.05 0.05 0.06 0.05 0.05 0.04 0.04 0.05 0.05 0.06 0.06 0.07 0.07 0.08 0.07 0.05 0.07 0.08 0.08 0.07 0.05 0.03 0.06 0.08 0.03 0.01 0.01 0.03 0.08 0.13 0.27 0.43 0.60 0.75 0.86 0.84 0.73
0.00 0.01 0.02 0.02 0.03 0.04 0.04 0.04 0.04 0.04 0.04 0.03 0.02 0.02 0.02 0.03 0.04 0.05 0.05 0.07 0.07 0.08 0.11 0.11 0.11 0.11 0.11 0.12 0.14 0.14 0.10 0.06 0.04 0.03 0.03 0.07 0.14 0.23 0.42 0.61 0.82 0.93 0.91
0.00 0.01 0.02 0.02 0.02 0.03 0.03 0.03 0.03 0.03 0.03 0.03 0.02 0.02 0.02 0.02 0.02 0.02 0.02 0.03 0.04 0.07 0.10 0.14 0.15 0.16 0.14 0.13 0.13 0.13 0.13 0.13 0.08 0.07 0.05 0.08 0.10 0.10 0.19 0.36 0.59 0.87 1.02
0.00 0.01 0.01 0.02 0.03 0.03 0.02 0.03 0.03 0.03 0.03 0.02 0.02 0.02 0.02 0.02 0.02 0.01 0.01 0.01 0.02 0.02 0.02 0.04 0.05 0.08 0.09 0.09 0.11 0.11 0.12 0.11 0.09 0.10 0.09 0.10 0.10 0.09 0.11 0.19 0.35 0.67 0.99
0.01 0.01 0.01 0.02 0.03 0.03 0.02 0.02 0.02 0.02 0.02 0.02 0.02 0.02 0.02 0.02 0.02 0.02 0.02 0.01 0.01 0.01 0.01 0.01 0.01 0.02 0.03 0.03 0.04 0.05 0.07 0.08 0.08 0.11 0.12 0.14 0.13 0.11 0.10 0.12 0.20 0.39 0.73
0.00 0.01 0.01 0.01 0.02 0.03 0.02 0.02 0.02 0.02 0.02 0.02 0.02 0.02 0.02 0.02 0.02 0.02 0.02 0.02 0.01 0.01 0.01 0.01 0.01 0.01 0.01 0.01 0.01 0.01 0.02 0.03 0.05 0.08 0.10 0.13 0.17 0.15 0.13 0.12 0.13 0.21 0.40
0.01 0.01 0.02 0.02 0.01 0.02 0.02 0.02 0.02 0.02 0.03 0.03 0.02 0.02 0.02 0.02 0.02 0.02 0.03 0.02 0.02 0.02 0.02 0.02 0.02 0.01 0.02 0.01 0.01 0.01 0.01 0.01 0.01 0.03 0.05 0.08 0.14 0.17 0.15 0.15 0.14 0.15 0.24
0.01 0.01 0.02 0.02 0.01 0.01 0.02 0.02 0.02 0.03 0.03 0.03 0.02 0.02 0.02 0.02 0.02 0.02 0.03 0.03 0.02 0.02 0.02 0.02 0.01 0.01 0.02 0.01 0.01 0.01 0.01 0.00 0.00 0.00 0.01 0.03 0.06 0.13 0.17 0.17 0.18 0.17 0.17
0.01 0.01 0.02 0.03 0.03 0.02 0.03 0.03 0.04 0.03 0.03 0.03 0.02 0.02 0.01 0.01 0.02 0.02 0.03 0.02 0.02 0.02 0.02 0.02 0.02 0.02 0.02 0.02 0.01 0.01 0.00 0.00 0.00 0.00 0.00 0.01 0.02 0.05 0.11 0.15 0.18 0.18 0.16
0.02 0.02 0.02 0.03 0.03 0.04 0.03 0.03 0.04 0.03 0.03 0.03 0.02 0.01 0.01 0.01 0.01 0.02 0.02 0.02 0.02 0.03 0.02 0.02 0.02 0.02 0.02 0.02 0.03 0.02 0.01 0.00 0.00 0.00 0.00 0.00 0.01 0.01 0.04 0.08 0.15 0.20 0.19
0.02 0.02 0.02 0.02 0.02 0.03 0.02 0.01 0.01 0.02 0.02 0.02 0.02 0.02 0.01 0.01 0.01 0.02 0.02 0.02 0.03 0.03 0.03 0.03 0.03 0.03 0.03 0.03 0.06 0.11 0.06 0.01 0.00 0.00 0.00 0.00 0.00 0.01 0.02 0.04 0.08 0.15 0.20
0.01 0.02 0.02 0.02 0.02 0.03 0.02 0.02 0.02 0.02 0.03 0.02 0.02 0.02 0.01 0.01 0.01 0.01 0.01 0.02 0.02 0.02 0.02 0.02 0.02 0.04 0.05 0.03 0.05 0.20 0.29 0.17 0.05 0.01 0.00 0.01 0.01 0.01 0.01 0.02 0.05 0.08 0.14
0.00 0.01 0.02 0.02 0.02 0.03 0.04 0.03 0.02 0.01 0.01 0.01 0.01 0.01 0.01 0.01 0.01 0.01 0.01 0.01 0.02 0.01 0.02 0.02 0.02 0.03 0.07 0.09 0.05 0.08 0.19 0.26 0.29 0.14 0.02 0.02 0.03 0.03 0.02 0.02 0.03 0.05 0.08
0.00 0.01 0.01 0.02 0.02 0.02 0.03 0.03 0.02 0.01 0.00 0.00 0.00 0.01 0.01 0.01 0.01 0.01 0.02 0.02 0.02 0.02 0.02 0.02 0.03 0.04 0.08 0.13 0.13 0.12 0.10 0.10 0.16 0.26 0.12 0.03 0.04 0.04 0.04 0.03 0.03 0.04 0.05
0.00 0.01 0.01 0.02 0.03 0.02 0.02 0.02 0.02 0.01 0.01 0.01 0.01 0.01 0.01 0.02 0.02 0.02 0.02 0.02 0.02 0.02 0.02 0.03 0.04 0.05 0.07 0.09 0.12 0.14 0.18 0.20 0.16 0.22 0.21 0.07 0.03 0.03 0.04 0.04 0.05 0.07 0.09

GEFSSE_prec_meanprecacc_144.txt.gz
Total_Precipitation_Accumulation
0.03 0.06 0.17 0.20 0.18 0.18 0.20 0.21 0.20 0.18 0.16 0.17 0.18 0.19 0.20 0.21 0.20 0.20 0.20 0.21 0.22 0.23 0.25 0.25 0.23 0.22 0.21 0.21 0.21 0.20 0.19 0.19 0.20 0.21 0.24 0.28 0.30 0.27 0.23 0.21 0.16 0.23 0.32
0.06 0.09 0.16 0.17 0.17 0.18 0.18 0.17 0.16 0.13 0.13 0.15 0.13 0.13 0.14 0.15 0.17 0.18 0.18 0.19 0.21 0.22 0.22 0.23 0.22 0.20 0.17 0.18 0.20 0.20 0.17 0.15 0.13 0.14 0.15 0.15 0.25 0.28 0.23 0.24 0.24 0.36 0.40
0.04 0.08 0.13 0.15 0.16 0.17 0.17 0.15 0.13 0.10 0.10 0.11 0.10 0.10 0.11 0.12 0.12 0.13 0.14 0.16 0.17 0.17 0.18 0.19 0.20 0.19 0.14 0.14 0.18 0.19 0.17 0.15 0.12 0.10 0.09 0.10 0.19 0.28 0.28 0.27 0.28 0.41 0.41
0.02 0.05 0.09 0.15 0.17 0.18 0.16 0.14 0.12 0.10 0.09 0.09 0.09 0.09 0.09 0.09 0.10 0.11 0.12 0.12 0.13 0.15 0.16 0.16 0.17 0.18 0.14 0.14 0.15 0.16 0.15 0.14 0.10 0.07 0.03 0.05 0.23 0.37 0.37 0.32 0.29 0.38 0.40
0.01 0.03 0.08 0.15 0.17 0.18 0.18 0.15 0.12 0.10 0.10 0.10 0.09 0.08 0.08 0.09 0.09 0.09 0.08 0.07 0.08 0.09 0.11 0.12 0.16 0.17 0.16 0.15 0.14 0.15 0.16 0.15 0.10 0.04 0.01 0.07 0.25 0.41 0.37 0.33 0.30 0.35 0.38
0.02 0.03 0.08 0.14 0.18 0.19 0.19 0.16 0.12 0.11 0.10 0.09 0.08 0.08 0.08 0.09 0.09 0.08 0.07 0.06 0.05 0.06 0.08 0.11 0.16 0.20 0.16 0.14 0.17 0.20 0.25 0.22 0.11 0.03 0.02 0.07 0.17 0.33 0.38 0.41 0.40 0.37 0.36
0.03 0.05 0.08 0.13 0.18 0.19 0.19 0.16 0.12 0.11 0.11 0.09 0.08 0.08 0.08 0.09 0.08 0.07 0.07 0.07 0.05 0.05 0.06 0.08 0.12 0.21 0.20 0.19 0.23 0.26 0.32 0.25 0.12 0.11 0.06 0.04 0.13 0.30 0.47 0.52 0.49 0.41 0.38
0.01 0.02 0.05 0.12 0.15 0.16 0.18 0.16 0.12 0.11 0.11 0.09 0.08 0.08 0.08 0.08 0.08 0.09 0.11 0.10 0.08 0.06 0.07 0.07 0.08 0.13 0.18 0.21 0.24 0.28 0.29 0.17 0.12 0.22 0.18 0.14 0.22 0.41 0.52 0.68 0.64 0.50 0.43
0.00 0.01 0.04 0.09 0.12 0.14 0.17 0.16 0.13 0.11 0.10 0.09 0.08 0.07 0.07 0.07 0.07 0.10 0.09 0.08 0.07 0.07 0.08 0.06 0.05 0.07 0.12 0.16 0.19 0.22 0.21 0.13 0.12 0.31 0.31 0.39 0.33 0.43 0.48 0.64 0.71 0.60 0.49
0.01 0.02 0.04 0.07 0.08 0.10 0.13 0.15 0.14 0.12 0.10 0.10 0.09 0.07 0.07 0.07 0.09 0.10 0.07 0.07 0.07 0.08 0.07 0.07 0.06 0.05 0.04 0.06 0.08 0.09 0.09 0.05 0.06 0.22 0.48 0.47 0.37 0.54 0.61 0.64 0.68 0.65 0.60
0.02 0.03 0.04 0.05 0.07 0.07 0.09 0.11 0.14 0.13 0.11 0.11 0.11 0.10 0.07 0.07 0.07 0.06 0.04 0.06 0.06 0.06 0.06 0.06 0.07 0.07 0.05 0.02 0.02 0.03 0.03 0.00 0.04 0.16 0.29 0.32 0.40 0.55 0.73 0.76 0.75 0.70 0.64
0.02 0.03 0.03 0.04 0.05 0.07 0.07 0.09 0.11 0.11 0.10 0.08 0.07 0.06 0.06 0.07 0.07 0.07 0.07 0.09 0.07 0.06 0.07 0.09 0.08 0.07 0.05 0.03 0.06 0.08 0.03 0.01 0.01 0.03 0.08 0.14 0.27 0.44 0.61 0.75 0.87 0.84 0.73
0.01 0.02 0.03 0.04 0.04 0.06 0.07 0.07 0.08 0.09 0.09 0.06 0.04 0.03 0.03 0.04 0.04 0.05 0.05 0.07 0.07 0.08 0.11 0.11 0.11 0.11 0.11 0.12 0.14 0.14 0.10 0.06 0.04 0.03 0.03 0.07 0.14 0.24 0.42 0.61 0.82 0.94 0.92
0.02 0.02 0.03 0.04 0.04 0.05 0.05 0.06 0.06 0.07 0.07 0.06 0.04 0.03 0.02 0.02 0.02 0.02 0.03 0.03 0.05 0.07 0.10 0.14 0.15 0.16 0.14 0.13 0.13 0.13 0.13 0.13 0.08 0.07 0.05 0.08 0.11 0.11 0.19 0.36 0.59 0.88 1.02
0.03 0.03 0.03 0.04 0.05 0.05 0.05 0.06 0.05 0.05 0.06 0.05 0.04 0.03 0.02 0.02 0.02 0.01 0.01 0.01 0.02 0.02 0.02 0.04 0.05 0.08 0.09 0.09 0.11 0.11 0.12 0.11 0.09 0.10 0.09 0.10 0.11 0.10 0.11 0.19 0.35 0.68 0.99
0.05 0.04 0.04 0.04 0.05 0.06 0.05 0.05 0.05 0.05 0.05 0.05 0.04 0.03 0.02 0.02 0.02 0.02 0.02 0.01 0.01 0.01 0.01 0.01 0.01 0.02 0.03 0.03 0.04 0.05 0.07 0.08 0.08 0.11 0.12 0.14 0.13 0.11 0.10 0.12 0.20 0.39 0.73
0.05 0.05 0.05 0.05 0.06 0.06 0.05 0.04 0.05 0.05 0.05 0.05 0.04 0.03 0.03 0.02 0.02 0.02 0.02 0.02 0.02 0.01 0.01 0.01 0.01 0.01 0.01 0.01 0.01 0.01 0.02 0.03 0.05 0.08 0.10 0.13 0.17 0.15 0.13 0.12 0.13 0.22 0.41
0.07 0.07 0.07 0.07 0.06 0.05 0.05 0.05 0.05 0.05 0.05 0.05 0.04 0.03 0.03 0.02 0.02 0.02 0.03 0.03 0.02 0.02 0.02 0.02 0.02 0.01 0.02 0.01 0.01 0.01 0.01 0.01 0.01 0.03 0.05 0.08 0.14 0.17 0.15 0.15 0.14 0.15 0.24
0.10 0.09 0.09 0.09 0.07 0.05 0.05 0.05 0.05 0.05 0.05 0.04 0.03 0.03 0.03 0.02 0.02 0.02 0.03 0.03 0.03 0.02 0.02 0.02 0.01 0.01 0.02 0.01 0.01 0.01 0.01 0.00 0.00 0.00 0.01 0.03 0.06 0.13 0.17 0.17 0.18 0.17 0.17
0.13 0.12 0.11 0.10 0.10 0.08 0.07 0.07 0.07 0.06 0.05 0.05 0.04 0.03 0.02 0.02 0.02 0.02 0.03 0.03 0.03 0.03 0.02 0.02 0.02 0.02 0.02 0.02 0.01 0.01 0.00 0.00 0.00 0.00 0.00 0.01 0.02 0.05 0.11 0.15 0.18 0.18 0.16
0.14 0.14 0.13 0.12 0.11 0.12 0.10 0.08 0.07 0.06 0.05 0.05 0.04 0.02 0.02 0.01 0.01 0.02 0.02 0.02 0.02 0.03 0.03 0.02 0.02 0.02 0.02 0.02 0.03 0.02 0.01 0.00 0.00 0.00 0.00 0.00 0.01 0.01 0.04 0.08 0.15 0.20 0.19
0.11 0.13 0.13 0.13 0.11 0.11 0.08 0.05 0.04 0.04 0.04 0.04 0.04 0.03 0.02 0.02 0.02 0.02 0.02 0.03 0.03 0.03 0.03 0.03 0.03 0.03 0.03 0.03 0.06 0.11 0.06 0.01 0.00 0.00 0.00 0.00 0.00 0.01 0.02 0.04 0.08 0.15 0.20
0.06 0.09 0.11 0.11 0.11 0.12 0.10 0.07 0.06 0.06 0.06 0.06 0.05 0.04 0.02 0.01 0.01 0.01 0.01 0.02 0.02 0.02 0.02 0.02 0.02 0.04 0.05 0.03 0.05 0.20 0.29 0.17 0.05 0.01 0.00 0.01 0.01 0.01 0.01 0.02 0.05 0.08 0.14
0.04 0.06 0.09 0.11 0.10 0.11 0.14 0.10 0.06 0.05 0.04 0.03 0.03 0.02 0.01 0.01 0.01 0.01 0.01 0.02 0.02 0.02 0.02 0.02 0.02 0.04 0.07 0.09 0.05 0.08 0.19 0.26 0.29 0.14 0.02 0.02 0.03 0.03 0.02 0.02 0.03 0.05 0.08
0.03 0.04 0.07 0.10 0.13 0.11 0.13 0.12 0.07 0.05 0.03 0.02 0.02 0.02 0.02 0.02 0.01 0.02 0.02 0.02 0.02 0.02 0.02 0.02 0.03 0.04 0.08 0.13 0.13 0.12 0.10 0.10 0.16 0.26 0.12 0.03 0.04 0.04 0.04 0.03 0.03 0.04 0.05
0.02 0.04 0.06 0.08 0.11 0.12 0.11 0.12 0.10 0.06 0.05 0.04 0.03 0.02 0.02 0.02 0.02 0.02 0.02 0.02 0.02 0.02 0.03 0.03 0.04 0.05 0.07 0.10 0.12 0.14 0.18 0.20 0.16 0.22 0.21 0.07 0.03 0.03 0.04 0.04 0.05 0.07 0.09

GEFSSE_prec_meanprecacc_150.txt.gz
Total_Precipitation_Accumulation
0.03 0.07 0.17 0.21 0.19 0.19 0.21 0.22 0.22 0.19 0.17 0.18 0.19 0.20 0.22 0.22 0.22 0.21 0.21 0.22 0.23 0.24 0.26 0.27 0.25 0.24 0.23 0.22 0.21 0.21 0.19 0.19 0.20 0.22 0.25 0.29 0.30 0.27 0.23 0.21 0.16 0.23 0.33
0.06 0.09 0.16 0.18 0.18 0.19 0.20 0.19 0.18 0.15 0.14 0.16 0.15 0.14 0.16 0.17 0.18 0.19 0.19 0.20 0.22 0.23 0.24 0.25 0.23 0.21 0.18 0.19 0.21 0.20 0.18 0.15 0.13 0.14 0.15 0.16 0.25 0.28 0.23 0.25 0.25 0.37 0.41
0.04 0.08 0.14 0.17 0.18 0.19 0.18 0.16 0.14 0.12 0.12 0.12 0.12 0.11 0.12 0.13 0.13 0.14 0.16 0.17 0.18 0.19 0.20 0.20 0.21 0.19 0.14 0.15 0.19 0.19 0.18 0.15 0.12 0.10 0.09 0.10 0.20 0.29 0.29 0.28 0.30 0.42 0.43
0.02 0.05 0.10 0.16 0.18 0.19 0.18 0.16 0.13 0.12 0.11 0.10 0.10 0.10 0.11 0.11 0.11 0.12 0.13 0.13 0.14 0.16 0.18 0.17 0.17 0.18 0.15 0.14 0.15 0.16 0.15 0.14 0.10 0.07 0.03 0.06 0.24 0.39 0.39 0.34 0.30 0.39 0.41
0.01 0.03 0.09 0.16 0.19 0.20 0.19 0.17 0.14 0.12 0.12 0.11 0.10 0.10 0.10 0.11 0.11 0.11 0.10 0.09 0.09 0.10 0.11 0.12 0.16 0.18 0.17 0.15 0.14 0.15 0.16 0.15 0.10 0.04 0.02 0.08 0.27 0.43 0.38 0.34 0.31 0.36 0.39
0.02 0.03 0.09 0.15 0.20 0.21 0.21 0.18 0.15 0.13 0.12 0.11 0.10 0.10 0.11 0.12 0.12 0.10 0.08 0.07 0.06 0.06 0.08 0.11 0.17 0.21 0.17 0.15 0.17 0.20 0.25 0.22 0.11 0.04 0.03 0.08 0.19 0.35 0.40 0.42 0.41 0.38 0.37
0.03 0.05 0.09 0.15 0.20 0.21 0.21 0.18 0.15 0.13 0.13 0.11 0.10 0.10 0.11 0.12 0.10 0.09 0.08 0.07 0.06 0.05 0.06 0.08 0.13 0.21 0.20 0.19 0.23 0.26 0.32 0.25 0.12 0.11 0.07 0.05 0.15 0.33 0.49 0.54 0.51 0.43 0.40
0.01 0.02 0.06 0.14 0.18 0.20 0.22 0.19 0.16 0.15 0.14 0.12 0.10 0.10 0.11 0.11 0.10 0.11 0.12 0.10 0.08 0.07 0.07 0.07 0.08 0.14 0.18 0.21 0.24 0.28 0.30 0.17 0.13 0.22 0.18 0.15 0.24 0.43 0.54 0.70 0.66 0.51 0.44
0.01 0.03 0.06 0.12 0.16 0.19 0.22 0.20 0.17 0.16 0.15 0.12 0.10 0.10 0.10 0.10 0.10 0.11 0.10 0.09 0.08 0.08 0.08 0.07 0.06 0.07 0.12 0.16 0.19 0.22 0.21 0.13 0.12 0.32 0.31 0.41 0.35 0.44 0.49 0.65 0.71 0.60 0.50
0.02 0.04 0.06 0.11 0.13 0.16 0.19 0.21 0.19 0.17 0.15 0.15 0.12 0.09 0.09 0.09 0.12 0.12 0.08 0.08 0.08 0.08 0.08 0.07 0.07 0.05 0.05 0.06 0.08 0.09 0.09 0.05 0.06 0.22 0.49 0.48 0.38 0.55 0.62 0.64 0.69 0.66 0.60
0.04 0.05 0.07 0.11 0.13 0.14 0.16 0.18 0.21 0.21 0.18 0.16 0.16 0.12 0.10 0.10 0.11 0.09 0.06 0.07 0.07 0.06 0.06 0.07 0.07 0.07 0.05 0.02 0.02 0.03 0.03 0.01 0.04 0.16 0.29 0.33 0.42 0.57 0.74 0.76 0.75 0.70 0.64
0.04 0.05 0.07 0.11 0.13 0.16 0.16 0.17 0.19 0.19 0.19 0.15 0.12 0.11 0.10 0.10 0.10 0.11 0.10 0.11 0.08 0.06 0.08 0.09 0.09 0.07 0.05 0.03 0.06 0.08 0.03 0.01 0.01 0.03 0.08 0.15 0.29 0.46 0.62 0.75 0.87 0.85 0.74
0.03 0.05 0.08 0.11 0.14 0.17 0.17 0.16 0.16 0.17 0.17 0.15 0.10 0.07 0.07 0.08 0.07 0.08 0.08 0.10 0.09 0.09 0.11 0.12 0.12 0.11 0.11 0.12 0.14 0.14 0.10 0.06 0.04 0.03 0.03 0.08 0.16 0.25 0.42 0.62 0.82 0.94 0.92
0.06 0.07 0.09 0.12 0.14 0.16 0.16 0.15 0.14 0.14 0.15 0.14 0.11 0.08 0.07 0.06 0.04 0.03 0.04 0.05 0.06 0.07 0.10 0.14 0.15 0.16 0.14 0.13 0.13 0.13 0.13 0.13 0.08 0.07 0.05 0.09 0.11 0.11 0.19 0.36 0.60 0.88 1.02
0.07 0.09 0.11 0.14 0.16 0.16 0.17 0.16 0.14 0.13 0.12 0.11 0.12 0.10 0.07 0.05 0.03 0.02 0.02 0.03 0.03 0.02 0.03 0.04 0.05 0.08 0.09 0.09 0.11 0.11 0.12 0.11 0.09 0.10 0.09 0.11 0.11 0.10 0.11 0.19 0.36 0.68 0.99
0.09 0.10 0.13 0.15 0.17 0.19 0.17 0.14 0.13 0.12 0.11 0.11 0.11 0.10 0.09 0.07 0.04 0.03 0.03 0.02 0.02 0.02 0.01 0.01 0.01 0.02 0.03 0.03 0.04 0.05 0.07 0.08 0.08 0.11 0.12 0.14 0.14 0.11 0.11 0.12 0.21 0.40 0.74
0.09 0.12 0.15 0.16 0.19 0.21 0.19 0.16 0.14 0.12 0.12 0.11 0.09 0.09 0.09 0.08 0.06 0.05 0.04 0.03 0.02 0.02 0.01 0.01 0.01 0.01 0.01 0.01 0.01 0.01 0.02 0.03 0.05 0.08 0.10 0.13 0.17 0.15 0.13 0.12 0.13 0.22 0.41
0.12 0.13 0.16 0.18 0.20 0.21 0.21 0.20 0.15 0.12 0.11 0.11 0.09 0.08 0.09 0.09 0.07 0.05 0.05 0.04 0.03 0.02 0.02 0.02 0.02 0.01 0.02 0.01 0.01 0.01 0.01 0.01 0.01 0.03 0.05 0.08 0.14 0.17 0.15 0.15 0.14 0.16 0.24
0.15 0.16 0.18 0.20 0.19 0.21 0.22 0.23 0.18 0.12 0.10 0.10 0.09 0.08 0.08 0.09 0.09 0.08 0.06 0.05 0.03 0.02 0.02 0.02 0.01 0.01 0.02 0.01 0.01 0.01 0.01 0.00 0.00 0.00 0.01 0.03 0.06 0.13 0.17 0.17 0.18 0.17 0.18
0.18 0.21 0.22 0.22 0.22 0.25 0.27 0.28 0.23 0.17 0.13 0.10 0.09 0.07 0.07 0.08 0.09 0.09 0.08 0.05 0.04 0.03 0.02 0.02 0.02 0.02 0.02 0.02 0.01 0.01 0.00 0.00 0.00 0.00 0.00 0.01 0.02 0.05 0.11 0.15 0.18 0.18 0.16
0.19 0.23 0.25 0.24 0.26 0.32 0.32 0.28 0.24 0.18 0.13 0.10 0.08 0.07 0.06 0.07 0.08 0.08 0.08 0.06 0.04 0.03 0.03 0.02 0.02 0.02 0.02 0.02 0.03 0.02 0.01 0.00 0.00 0.00 0.00 0.00 0.01 0.01 0.04 0.08 0.15 0.20 0.19
0.15 0.20 0.23 0.25 0.26 0.29 0.30 0.24 0.19 0.15 0.12 0.09 0.07 0.07 0.06 0.07 0.08 0.08 0.07 0.06 0.04 0.04 0.03 0.03 0.03 0.03 0.03 0.03 0.06 0.11 0.06 0.01 0.00 0.00 0.00 0.00 0.00 0.01 0.02 0.04 0.08 0.15 0.20
0.12 0.16 0.18 0.22 0.25 0.28 0.33 0.31 0.26 0.24 0.20 0.14 0.09 0.09 0.07 0.06 0.07 0.08 0.07 0.05 0.03 0.03 0.02 0.02 0.02 0.04 0.05 0.03 0.05 0.20 0.29 0.17 0.05 0.01 0.00 0.01 0.01 0.01 0.01 0.02 0.05 0.08 0.14
0.09 0.13 0.17 0.21 0.25 0.26 0.35 0.37 0.27 0.22 0.20 0.13 0.07 0.06 0.07 0.08 0.07 0.06 0.07 0.05 0.04 0.02 0.02 0.02 0.02 0.04 0.07 0.09 0.05 0.08 0.19 0.26 0.29 0.14 0.02 0.02 0.03 0.03 0.02 0.02 0.03 0.05 0.08
0.08 0.12 0.16 0.20 0.28 0.27 0.31 0.37 0.30 0.21 0.17 0.13 0.09 0.06 0.07 0.09 0.09 0.07 0.06 0.06 0.04 0.03 0.02 0.02 0.03 0.04 0.08 0.13 0.14 0.12 0.10 0.10 0.16 0.26 0.12 0.03 0.04 0.04 0.04 0.03 0.03 0.04 0.05
0.07 0.12 0.16 0.19 0.26 0.28 0.27 0.31 0.33 0.25 0.19 0.16 0.12 0.07 0.07 0.09 0.10 0.09 0.06 0.06 0.04 0.03 0.03 0.03 0.04 0.05 0.07 0.10 0.12 0.14 0.18 0.20 0.16 0.22 0.21 0.07 0.03 0.03 0.04 0.04 0.05 0.07 0.09

GEFSSE_prec_meanprecacc_156.txt.gz
Total_Precipitation_Accumulation
0.03 0.07 0.18 0.21 0.20 0.20 0.22 0.23 0.23 0.20 0.18 0.19 0.21 0.22 0.23 0.23 0.23 0.21 0.22 0.22 0.25 0.26 0.28 0.28 0.26 0.25 0.24 0.23 0.22 0.21 0.20 0.20 0.21 0.22 0.25 0.30 0.31 0.28 0.24 0.22 0.16 0.24 0.34
0.06 0.09 0.17 0.18 0.19 0.20 0.21 0.20 0.19 0.16 0.15 0.17 0.16 0.16 0.17 0.18 0.19 0.20 0.20 0.21 0.23 0.24 0.26 0.26 0.24 0.22 0.19 0.19 0.21 0.20 0.18 0.15 0.13 0.14 0.15 0.16 0.26 0.29 0.24 0.26 0.26 0.39 0.43
0.04 0.08 0.14 0.17 0.19 0.20 0.20 0.18 0.16 0.13 0.13 0.13 0.13 0.13 0.14 0.14 0.14 0.15 0.17 0.18 0.19 0.20 0.22 0.22 0.22 0.21 0.15 0.15 0.19 0.19 0.18 0.16 0.12 0.10 0.09 0.10 0.21 0.30 0.30 0.30 0.31 0.43 0.44
0.02 0.05 0.10 0.17 0.19 0.21 0.20 0.19 0.16 0.13 0.12 0.12 0.12 0.12 0.12 0.12 0.12 0.14 0.15 0.15 0.16 0.18 0.19 0.19 0.19 0.19 0.15 0.15 0.15 0.16 0.15 0.14 0.11 0.07 0.03 0.07 0.25 0.42 0.41 0.35 0.31 0.39 0.41
0.01 0.03 0.09 0.17 0.20 0.22 0.22 0.20 0.17 0.15 0.14 0.13 0.12 0.12 0.12 0.12 0.13 0.12 0.11 0.11 0.11 0.11 0.12 0.14 0.17 0.18 0.17 0.15 0.14 0.15 0.16 0.15 0.10 0.05 0.02 0.09 0.28 0.45 0.40 0.35 0.31 0.36 0.40
0.02 0.04 0.10 0.17 0.21 0.23 0.24 0.22 0.19 0.16 0.16 0.14 0.13 0.12 0.13 0.14 0.14 0.12 0.10 0.09 0.07 0.07 0.09 0.12 0.17 0.21 0.17 0.15 0.18 0.20 0.25 0.22 0.12 0.04 0.04 0.09 0.20 0.36 0.41 0.43 0.42 0.39 0.39
0.03 0.06 0.10 0.16 0.22 0.24 0.25 0.23 0.20 0.18 0.18 0.16 0.14 0.14 0.15 0.15 0.13 0.12 0.10 0.09 0.07 0.06 0.07 0.09 0.13 0.21 0.20 0.19 0.23 0.26 0.32 0.25 0.12 0.12 0.07 0.06 0.16 0.34 0.51 0.56 0.54 0.45 0.41
0.01 0.03 0.07 0.16 0.21 0.23 0.27 0.26 0.22 0.21 0.21 0.18 0.16 0.16 0.16 0.15 0.14 0.13 0.13 0.11 0.09 0.07 0.08 0.08 0.09 0.14 0.18 0.21 0.25 0.28 0.30 0.17 0.13 0.23 0.19 0.16 0.26 0.45 0.56 0.72 0.67 0.53 0.45
0.01 0.03 0.07 0.15 0.20 0.24 0.28 0.29 0.27 0.26 0.24 0.21 0.19 0.18 0.17 0.15 0.14 0.14 0.12 0.10 0.08 0.08 0.09 0.07 0.06 0.08 0.12 0.16 0.19 0.22 0.21 0.13 0.13 0.32 0.32 0.41 0.36 0.46 0.51 0.65 0.72 0.61 0.50
0.03 0.05 0.08 0.14 0.19 0.23 0.28 0.31 0.31 0.30 0.27 0.27 0.24 0.18 0.16 0.16 0.17 0.17 0.11 0.09 0.08 0.09 0.08 0.08 0.08 0.06 0.05 0.06 0.08 0.09 0.09 0.05 0.06 0.23 0.49 0.48 0.40 0.56 0.63 0.65 0.70 0.66 0.61
0.06 0.08 0.11 0.16 0.20 0.24 0.27 0.28 0.33 0.36 0.35 0.34 0.31 0.24 0.18 0.17 0.16 0.14 0.10 0.09 0.09 0.07 0.07 0.08 0.08 0.07 0.05 0.03 0.02 0.03 0.03 0.01 0.04 0.17 0.30 0.34 0.43 0.58 0.74 0.77 0.76 0.71 0.64
0.06 0.09 0.12 0.16 0.21 0.28 0.30 0.32 0.35 0.37 0.38 0.34 0.26 0.22 0.20 0.17 0.14 0.13 0.15 0.14 0.11 0.08 0.09 0.11 0.10 0.08 0.05 0.03 0.06 0.08 0.03 0.01 0.01 0.03 0.09 0.16 0.31 0.47 0.62 0.76 0.88 0.85 0.74
0.05 0.09 0.13 0.19 0.24 0.30 0.33 0.33 0.34 0.35 0.35 0.32 0.23 0.17 0.15 0.15 0.12 0.13 0.12 0.14 0.13 0.12 0.13 0.13 0.12 0.11 0.11 0.12 0.14 0.14 0.10 0.06 0.04 0.03 0.03 0.09 0.17 0.26 0.43 0.62 0.83 0.94 0.92
0.09 0.12 0.16 0.22 0.26 0.30 0.34 0.35 0.32 0.32 0.30 0.28 0.25 0.20 0.16 0.12 0.08 0.07 0.07 0.08 0.08 0.09 0.12 0.15 0.16 0.16 0.14 0.13 0.13 0.13 0.13 0.13 0.08 0.07 0.05 0.09 0.12 0.11 0.19 0.36 0.60 0.88 1.03
0.10 0.14 0.19 0.24 0.28 0.31 0.36 0.39 0.36 0.32 0.27 0.24 0.24 0.25 0.19 0.12 0.07 0.07 0.05 0.04 0.04 0.03 0.04 0.04 0.06 0.08 0.09 0.09 0.11 0.11 0.12 0.11 0.09 0.10 0.09 0.11 0.12 0.10 0.11 0.20 0.36 0.68 0.99
0.12 0.15 0.20 0.26 0.30 0.35 0.36 0.37 0.38 0.34 0.29 0.28 0.25 0.24 0.22 0.18 0.11 0.08 0.05 0.04 0.03 0.02 0.02 0.02 0.02 0.03 0.03 0.03 0.04 0.05 0.07 0.08 0.08 0.11 0.12 0.14 0.14 0.12 0.11 0.13 0.21 0.40 0.74
0.14 0.17 0.22 0.27 0.34 0.38 0.38 0.39 0.39 0.37 0.33 0.31 0.26 0.22 0.21 0.20 0.18 0.12 0.08 0.05 0.04 0.03 0.02 0.02 0.02 0.01 0.01 0.01 0.01 0.01 0.02 0.03 0.05 0.08 0.10 0.13 0.17 0.15 0.13 0.12 0.14 0.22 0.41
0.17 0.19 0.24 0.29 0.34 0.41 0.42 0.42 0.41 0.40 0.37 0.33 0.31 0.24 0.22 0.21 0.19 0.19 0.14 0.10 0.06 0.04 0.03 0.02 0.02 0.02 0.02 0.01 0.01 0.01 0.01 0.01 0.01 0.03 0.05 0.08 0.14 0.17 0.15 0.15 0.15 0.16 0.24
0.19 0.22 0.26 0.32 0.32 0.38 0.48 0.48 0.45 0.41 0.40 0.37 0.36 0.31 0.24 0.23 0.21 0.20 0.20 0.15 0.09 0.05 0.03 0.02 0.02 0.02 0.02 0.02 0.01 0.01 0.01 0.00 0.00 0.00 0.01 0.03 0.06 0.13 0.17 0.18 0.18 0.17 0.18
0.23 0.27 0.30 0.34 0.36 0.40 0.54 0.61 0.53 0.50 0.44 0.40 0.37 0.33 0.28 0.24 0.21 0.19 0.21 0.20 0.14 0.09 0.05 0.03 0.03 0.02 0.02 0.02 0.02 0.01 0.00 0.00 0.00 0.00 0.00 0.01 0.02 0.05 0.11 0.15 0.18 0.18 0.16
0.24 0.29 0.33 0.36 0.39 0.47 0.55 0.65 0.59 0.51 0.48 0.41 0.34 0.32 0.28 0.25 0.21 0.18 0.16 0.16 0.17 0.14 0.09 0.05 0.04 0.03 0.02 0.02 0.03 0.02 0.01 0.00 0.00 0.00 0.00 0.00 0.01 0.01 0.04 0.09 0.15 0.20 0.19
0.21 0.26 0.30 0.36 0.38 0.43 0.49 0.54 0.58 0.48 0.46 0.43 0.35 0.32 0.29 0.26 0.22 0.19 0.15 0.13 0.12 0.13 0.12 0.08 0.05 0.05 0.04 0.03 0.07 0.11 0.06 0.01 0.00 0.00 0.00 0.00 0.00 0.01 0.02 0.04 0.08 0.15 0.20
0.18 0.22 0.25 0.32 0.39 0.42 0.52 0.59 0.64 0.66 0.55 0.51 0.43 0.34 0.32 0.29 0.24 0.20 0.14 0.12 0.10 0.08 0.08 0.08 0.06 0.06 0.06 0.03 0.05 0.20 0.29 0.17 0.05 0.01 0.00 0.01 0.01 0.01 0.01 0.02 0.05 0.08 0.14
0.14 0.20 0.26 0.32 0.38 0.39 0.54 0.64 0.59 0.60 0.51 0.42 0.36 0.31 0.30 0.30 0.26 0.20 0.17 0.12 0.11 0.09 0.07 0.06 0.05 0.06 0.09 0.10 0.06 0.09 0.19 0.26 0.29 0.14 0.02 0.02 0.03 0.03 0.02 0.02 0.03 0.05 0.08
0.12 0.17 0.26 0.33 0.41 0.40 0.48 0.63 0.61 0.53 0.45 0.36 0.34 0.32 0.30 0.30 0.29 0.23 0.18 0.13 0.11 0.10 0.08 0.06 0.06 0.07 0.10 0.14 0.15 0.12 0.10 0.10 0.16 0.26 0.12 0.03 0.04 0.04 0.04 0.03 0.03 0.04 0.05
0.13 0.17 0.25 0.34 0.41 0.42 0.44 0.54 0.62 0.54 0.47 0.40 0.34 0.31 0.30 0.29 0.29 0.26 0.20 0.16 0.11 0.09 0.09 0.08 0.08 0.08 0.10 0.12 0.14 0.15 0.18 0.20 0.16 0.22 0.21 0.07 0.03 0.03 0.04 0.04 0.05 0.07 0.09

GEFSSE_prec_meanprecacc_162.txt.gz
Total_Precipitation_Accumulation
0.03 0.07 0.18 0.22 0.20 0.20 0.23 0.24 0.24 0.21 0.18 0.20 0.21 0.23 0.24 0.24 0.23 0.22 0.22 0.23 0.26 0.28 0.30 0.30 0.27 0.26 0.25 0.24 0.23 0.22 0.20 0.20 0.21 0.22 0.26 0.30 0.32 0.29 0.25 0.23 0.17 0.25 0.36
0.06 0.09 0.17 0.19 0.20 0.21 0.22 0.21 0.20 0.17 0.16 0.18 0.17 0.17 0.18 0.18 0.19 0.20 0.21 0.22 0.24 0.26 0.28 0.28 0.26 0.23 0.20 0.20 0.22 0.21 0.18 0.15 0.14 0.14 0.15 0.16 0.27 0.31 0.26 0.27 0.27 0.40 0.44
0.04 0.08 0.15 0.18 0.19 0.21 0.22 0.20 0.18 0.15 0.14 0.15 0.14 0.14 0.15 0.15 0.15 0.16 0.18 0.19 0.21 0.21 0.23 0.24 0.24 0.22 0.16 0.16 0.19 0.20 0.18 0.16 0.12 0.11 0.10 0.11 0.22 0.33 0.32 0.31 0.32 0.44 0.45
0.02 0.05 0.10 0.17 0.20 0.22 0.21 0.21 0.18 0.16 0.15 0.14 0.14 0.13 0.13 0.13 0.14 0.15 0.16 0.16 0.17 0.19 0.21 0.20 0.20 0.20 0.15 0.15 0.15 0.16 0.16 0.14 0.11 0.08 0.03 0.07 0.26 0.44 0.42 0.36 0.31 0.40 0.43
0.01 0.03 0.10 0.18 0.22 0.24 0.24 0.23 0.20 0.18 0.17 0.16 0.15 0.14 0.14 0.14 0.15 0.14 0.13 0.12 0.12 0.13 0.14 0.15 0.18 0.18 0.17 0.15 0.14 0.16 0.17 0.15 0.10 0.05 0.03 0.09 0.29 0.46 0.40 0.35 0.32 0.38 0.41
0.02 0.04 0.10 0.18 0.23 0.25 0.27 0.25 0.22 0.20 0.19 0.18 0.17 0.16 0.17 0.18 0.17 0.15 0.12 0.10 0.09 0.09 0.10 0.13 0.17 0.22 0.17 0.15 0.18 0.20 0.25 0.22 0.12 0.04 0.04 0.09 0.20 0.37 0.41 0.44 0.44 0.41 0.41
0.04 0.06 0.11 0.18 0.24 0.26 0.28 0.26 0.24 0.23 0.23 0.22 0.21 0.20 0.21 0.20 0.18 0.15 0.12 0.11 0.08 0.07 0.08 0.10 0.13 0.22 0.20 0.19 0.24 0.26 0.32 0.25 0.13 0.12 0.08 0.07 0.17 0.35 0.52 0.58 0.56 0.47 0.43
0.02 0.03 0.08 0.18 0.24 0.27 0.31 0.30 0.28 0.29 0.29 0.27 0.26 0.26 0.26 0.24 0.22 0.18 0.16 0.14 0.11 0.09 0.08 0.08 0.09 0.14 0.18 0.21 0.25 0.28 0.30 0.17 0.13 0.23 0.19 0.16 0.26 0.47 0.58 0.74 0.69 0.54 0.46
0.03 0.04 0.09 0.17 0.24 0.29 0.34 0.35 0.35 0.36 0.36 0.34 0.31 0.30 0.31 0.28 0.25 0.22 0.17 0.13 0.11 0.10 0.09 0.08 0.06 0.08 0.12 0.17 0.19 0.22 0.21 0.13 0.13 0.32 0.32 0.41 0.37 0.49 0.53 0.66 0.73 0.61 0.50
0.05 0.07 0.10 0.17 0.23 0.28 0.35 0.39 0.41 0.42 0.42 0.44 0.41 0.34 0.33 0.33 0.32 0.29 0.19 0.15 0.12 0.11 0.10 0.09 0.08 0.06 0.05 0.06 0.08 0.10 0.09 0.05 0.06 0.23 0.49 0.49 0.41 0.59 0.64 0.65 0.70 0.66 0.61
0.09 0.11 0.14 0.21 0.27 0.30 0.34 0.38 0.46 0.51 0.53 0.54 0.52 0.44 0.39 0.36 0.31 0.26 0.20 0.16 0.14 0.11 0.09 0.09 0.09 0.08 0.06 0.03 0.03 0.03 0.03 0.01 0.04 0.17 0.30 0.34 0.45 0.60 0.75 0.77 0.76 0.71 0.65
0.10 0.13 0.17 0.22 0.29 0.36 0.40 0.44 0.50 0.54 0.57 0.54 0.46 0.43 0.41 0.37 0.31 0.25 0.24 0.24 0.19 0.14 0.13 0.13 0.10 0.08 0.05 0.03 0.06 0.08 0.03 0.01 0.01 0.03 0.09 0.17 0.32 0.48 0.63 0.76 0.88 0.85 0.74
0.10 0.14 0.21 0.27 0.33 0.41 0.44 0.47 0.51 0.52 0.54 0.52 0.43 0.37 0.35 0.36 0.32 0.29 0.24 0.23 0.22 0.20 0.19 0.17 0.14 0.11 0.11 0.12 0.15 0.14 0.10 0.06 0.04 0.03 0.04 0.10 0.19 0.27 0.44 0.62 0.83 0.95 0.92
0.14 0.17 0.23 0.31 0.37 0.42 0.47 0.48 0.49 0.50 0.48 0.45 0.41 0.39 0.37 0.33 0.27 0.23 0.19 0.16 0.16 0.17 0.19 0.20 0.17 0.17 0.14 0.13 0.13 0.13 0.13 0.13 0.08 0.07 0.05 0.10 0.14 0.13 0.20 0.37 0.60 0.88 1.03
0.16 0.20 0.25 0.33 0.38 0.43 0.50 0.55 0.53 0.50 0.45 0.40 0.39 0.41 0.39 0.32 0.26 0.24 0.18 0.15 0.13 0.11 0.10 0.09 0.08 0.09 0.10 0.09 0.11 0.11 0.12 0.11 0.09 0.10 0.09 0.11 0.12 0.11 0.12 0.20 0.37 0.69 0.99
0.17 0.20 0.25 0.33 0.40 0.46 0.50 0.54 0.54 0.52 0.49 0.47 0.42 0.39 0.40 0.40 0.31 0.27 0.23 0.18 0.15 0.13 0.09 0.07 0.05 0.04 0.04 0.04 0.04 0.05 0.08 0.08 0.08 0.11 0.12 0.14 0.14 0.12 0.11 0.13 0.21 0.41 0.74
0.18 0.22 0.28 0.33 0.44 0.51 0.51 0.55 0.57 0.54 0.53 0.52 0.45 0.40 0.39 0.41 0.41 0.33 0.26 0.22 0.19 0.16 0.13 0.10 0.07 0.04 0.02 0.02 0.02 0.01 0.02 0.03 0.05 0.08 0.10 0.13 0.17 0.15 0.13 0.12 0.14 0.23 0.41
0.22 0.24 0.29 0.36 0.43 0.52 0.56 0.57 0.61 0.61 0.56 0.56 0.55 0.46 0.42 0.41 0.42 0.43 0.35 0.26 0.19 0.20 0.20 0.18 0.14 0.08 0.03 0.02 0.01 0.01 0.01 0.01 0.01 0.03 0.05 0.08 0.14 0.17 0.15 0.15 0.15 0.16 0.24
0.24 0.27 0.32 0.40 0.42 0.50 0.62 0.63 0.62 0.66 0.64 0.61 0.64 0.59 0.49 0.45 0.44 0.46 0.44 0.36 0.26 0.22 0.20 0.19 0.16 0.11 0.06 0.03 0.02 0.01 0.01 0.00 0.00 0.01 0.01 0.03 0.06 0.13 0.17 0.18 0.18 0.17 0.18
0.27 0.31 0.36 0.42 0.45 0.51 0.69 0.80 0.73 0.73 0.71 0.67 0.64 0.61 0.55 0.50 0.45 0.44 0.46 0.43 0.34 0.26 0.21 0.19 0.17 0.13 0.09 0.05 0.03 0.02 0.01 0.00 0.00 0.00 0.00 0.01 0.02 0.05 0.11 0.15 0.18 0.18 0.16
0.29 0.35 0.39 0.43 0.49 0.58 0.69 0.82 0.80 0.73 0.73 0.68 0.63 0.60 0.53 0.50 0.48 0.44 0.41 0.41 0.40 0.33 0.23 0.18 0.19 0.17 0.12 0.09 0.07 0.04 0.01 0.00 0.00 0.00 0.00 0.00 0.01 0.01 0.04 0.09 0.15 0.20 0.19
0.27 0.32 0.37 0.43 0.48 0.56 0.63 0.67 0.75 0.72 0.72 0.72 0.65 0.63 0.56 0.50 0.47 0.46 0.40 0.36 0.35 0.34 0.29 0.20 0.16 0.17 0.14 0.09 0.11 0.14 0.07 0.01 0.00 0.00 0.00 0.00 0.00 0.01 0.02 0.04 0.08 0.15 0.20
0.26 0.29 0.32 0.39 0.47 0.54 0.68 0.77 0.82 0.93 0.90 0.86 0.79 0.69 0.58 0.52 0.48 0.46 0.40 0.34 0.31 0.29 0.27 0.22 0.16 0.14 0.14 0.08 0.07 0.22 0.31 0.18 0.06 0.01 0.00 0.01 0.01 0.01 0.01 0.02 0.05 0.08 0.14
0.22 0.28 0.34 0.39 0.48 0.53 0.70 0.86 0.80 0.86 0.84 0.75 0.69 0.68 0.60 0.53 0.50 0.46 0.42 0.34 0.31 0.28 0.24 0.21 0.19 0.16 0.17 0.15 0.08 0.09 0.20 0.26 0.29 0.14 0.02 0.02 0.03 0.03 0.02 0.02 0.03 0.05 0.08
0.19 0.26 0.34 0.41 0.51 0.56 0.65 0.84 0.84 0.74 0.71 0.68 0.68 0.68 0.64 0.56 0.52 0.49 0.45 0.39 0.32 0.29 0.26 0.21 0.18 0.17 0.18 0.20 0.17 0.14 0.11 0.11 0.16 0.26 0.12 0.03 0.04 0.04 0.04 0.03 0.03 0.04 0.05
0.19 0.25 0.34 0.45 0.51 0.57 0.60 0.71 0.85 0.77 0.71 0.68 0.69 0.70 0.67 0.61 0.54 0.50 0.46 0.41 0.35 0.31 0.27 0.24 0.20 0.18 0.17 0.16 0.17 0.17 0.20 0.21 0.17 0.22 0.21 0.08 0.03 0.03 0.04 0.04 0.05 0.07 0.09